<?xml version="1.0" encoding="UTF-8" standalone="no" ?>
<gpx xmlns="http://www.topografix.com/GPX/1/1" xmlns:xsi="http://www.w3.org/2001/XMLSchema-instance" xsi:schemaLocation="http://www.topografix.com/GPX/1/1 http://www.topografix.com/GPX/1/1/gpx.xsd" version="1.1" creator="VisuGPX - https://www.visugpx.com">
  <metadata>
    <name>CMC MN Lasserre</name>
    <desc><![CDATA[Belle petite marche, on voit que la vitesse a augmenté !]]></desc>
  </metadata>
  <wpt lat="44.10294" lon="2.31765">
    <ele>412</ele>
    <name><![CDATA[Pause à 28/05/2016 à 11:51]]></name>
    <desc><![CDATA[Pause de 2min 25s]]></desc>
  </wpt>
  <wpt lat="43.59996" lon="1.18751">
    <ele>195</ele>
    <name><![CDATA[Pause à 04/06/2016 à 10:05]]></name>
    <desc><![CDATA[Pause de 2min 40s]]></desc>
  </wpt>
  <wpt lat="43.6053" lon="1.19698">
    <ele>198</ele>
    <name><![CDATA[Pause à 04/06/2016 à 9:49]]></name>
    <desc><![CDATA[Pause de 2min 2s]]></desc>
  </wpt>
  <wpt lat="44.10303" lon="2.31758">
    <ele>408</ele>
    <name><![CDATA[Pause à 28/05/2016 à 11:48]]></name>
    <desc><![CDATA[Pause de 2min 9s]]></desc>
  </wpt>
  <wpt lat="43.60572" lon="1.18173">
    <ele>231</ele>
    <name><![CDATA[Pause à 04/06/2016 à 10:39]]></name>
    <desc><![CDATA[Pause de 2min 36s]]></desc>
  </wpt>
  <wpt lat="43.61256" lon="1.18211">
    <ele>289</ele>
    <name><![CDATA[Pause à 04/06/2016 à 10:53]]></name>
    <desc><![CDATA[Pause de 4min 17s]]></desc>
  </wpt>
  <wpt lat="44.10314" lon="2.3173">
    <ele>402</ele>
    <name><![CDATA[Pause à 28/05/2016 à 11:55]]></name>
    <desc><![CDATA[Pause de 2min 12s]]></desc>
  </wpt>
  <wpt lat="44.10316" lon="2.3173">
    <ele>398</ele>
    <name><![CDATA[Pause à 28/05/2016 à 12:00]]></name>
    <desc><![CDATA[Pause de 3min 11s]]></desc>
  </wpt>
  <wpt lat="44.10291" lon="2.31723">
    <ele>322</ele>
    <name><![CDATA[Pause à 28/05/2016 à 8:34]]></name>
    <desc><![CDATA[Pause de 2min 56s]]></desc>
  </wpt>
  <trk>
    <name><![CDATA[Lasserre]]></name>
    <trkseg>
      <trkpt lat="43.61258" lon="1.20103">
        <ele>172</ele>
        <time>2016-06-04T07:36:39Z</time>
      </trkpt>
      <trkpt lat="43.61255" lon="1.2011">
        <ele>173</ele>
        <time>2016-06-04T07:36:44Z</time>
      </trkpt>
      <trkpt lat="43.61251" lon="1.20116">
        <ele>172</ele>
        <time>2016-06-04T07:36:47Z</time>
      </trkpt>
      <trkpt lat="43.61249" lon="1.20124">
        <ele>171</ele>
        <time>2016-06-04T07:36:50Z</time>
      </trkpt>
      <trkpt lat="43.61247" lon="1.20129">
        <ele>171</ele>
        <time>2016-06-04T07:36:52Z</time>
      </trkpt>
      <trkpt lat="43.61243" lon="1.20133">
        <ele>169</ele>
        <time>2016-06-04T07:36:56Z</time>
      </trkpt>
      <trkpt lat="43.6124" lon="1.20139">
        <ele>168</ele>
        <time>2016-06-04T07:36:59Z</time>
      </trkpt>
      <trkpt lat="43.61237" lon="1.20144">
        <ele>167</ele>
        <time>2016-06-04T07:37:04Z</time>
      </trkpt>
      <trkpt lat="43.61233" lon="1.20149">
        <ele>166</ele>
        <time>2016-06-04T07:37:08Z</time>
      </trkpt>
      <trkpt lat="43.61228" lon="1.20154">
        <ele>166</ele>
        <time>2016-06-04T07:37:12Z</time>
      </trkpt>
      <trkpt lat="43.61224" lon="1.20158">
        <ele>165</ele>
        <time>2016-06-04T07:37:16Z</time>
      </trkpt>
      <trkpt lat="43.6122" lon="1.20162">
        <ele>165</ele>
        <time>2016-06-04T07:37:18Z</time>
      </trkpt>
      <trkpt lat="43.61216" lon="1.20166">
        <ele>164</ele>
        <time>2016-06-04T07:37:21Z</time>
      </trkpt>
      <trkpt lat="43.6121" lon="1.2017">
        <ele>163</ele>
        <time>2016-06-04T07:37:26Z</time>
      </trkpt>
      <trkpt lat="43.61206" lon="1.20175">
        <ele>161</ele>
        <time>2016-06-04T07:37:29Z</time>
      </trkpt>
      <trkpt lat="43.61202" lon="1.20179">
        <ele>160</ele>
        <time>2016-06-04T07:37:31Z</time>
      </trkpt>
      <trkpt lat="43.61199" lon="1.20183">
        <ele>158</ele>
        <time>2016-06-04T07:37:34Z</time>
      </trkpt>
      <trkpt lat="43.61195" lon="1.20185">
        <ele>157</ele>
        <time>2016-06-04T07:37:37Z</time>
      </trkpt>
      <trkpt lat="43.61189" lon="1.2019">
        <ele>155</ele>
        <time>2016-06-04T07:37:41Z</time>
      </trkpt>
      <trkpt lat="43.61185" lon="1.20198">
        <ele>154</ele>
        <time>2016-06-04T07:37:44Z</time>
      </trkpt>
      <trkpt lat="43.61181" lon="1.20202">
        <ele>153</ele>
        <time>2016-06-04T07:37:48Z</time>
      </trkpt>
      <trkpt lat="43.61177" lon="1.20208">
        <ele>153</ele>
        <time>2016-06-04T07:37:52Z</time>
      </trkpt>
      <trkpt lat="43.61174" lon="1.20217">
        <ele>152</ele>
        <time>2016-06-04T07:37:55Z</time>
      </trkpt>
      <trkpt lat="43.61173" lon="1.20229">
        <ele>152</ele>
        <time>2016-06-04T07:37:58Z</time>
      </trkpt>
      <trkpt lat="43.61172" lon="1.20236">
        <ele>152</ele>
        <time>2016-06-04T07:38:01Z</time>
      </trkpt>
      <trkpt lat="43.61171" lon="1.20247">
        <ele>152</ele>
        <time>2016-06-04T07:38:06Z</time>
      </trkpt>
      <trkpt lat="43.61168" lon="1.20254">
        <ele>152</ele>
        <time>2016-06-04T07:38:12Z</time>
      </trkpt>
      <trkpt lat="43.61163" lon="1.20245">
        <ele>153</ele>
        <time>2016-06-04T07:38:18Z</time>
      </trkpt>
      <trkpt lat="43.61162" lon="1.20239">
        <ele>153</ele>
        <time>2016-06-04T07:38:20Z</time>
      </trkpt>
      <trkpt lat="43.61157" lon="1.20232">
        <ele>154</ele>
        <time>2016-06-04T07:38:24Z</time>
      </trkpt>
      <trkpt lat="43.61154" lon="1.20225">
        <ele>155</ele>
        <time>2016-06-04T07:38:28Z</time>
      </trkpt>
      <trkpt lat="43.61147" lon="1.20225">
        <ele>155</ele>
        <time>2016-06-04T07:38:34Z</time>
      </trkpt>
      <trkpt lat="43.61141" lon="1.20223">
        <ele>156</ele>
        <time>2016-06-04T07:38:38Z</time>
      </trkpt>
      <trkpt lat="43.61134" lon="1.20223">
        <ele>157</ele>
        <time>2016-06-04T07:38:42Z</time>
      </trkpt>
      <trkpt lat="43.61131" lon="1.20217">
        <ele>157</ele>
        <time>2016-06-04T07:38:46Z</time>
      </trkpt>
      <trkpt lat="43.61125" lon="1.20214">
        <ele>158</ele>
        <time>2016-06-04T07:38:50Z</time>
      </trkpt>
      <trkpt lat="43.6112" lon="1.20206">
        <ele>158</ele>
        <time>2016-06-04T07:38:54Z</time>
      </trkpt>
      <trkpt lat="43.611" lon="1.20135">
        <ele>169</ele>
        <time>2016-06-04T07:39:01Z</time>
      </trkpt>
      <trkpt lat="43.61096" lon="1.20131">
        <ele>172</ele>
        <time>2016-06-04T07:39:04Z</time>
      </trkpt>
      <trkpt lat="43.6109" lon="1.20125">
        <ele>172</ele>
        <time>2016-06-04T07:39:10Z</time>
      </trkpt>
      <trkpt lat="43.61089" lon="1.20118">
        <ele>173</ele>
        <time>2016-06-04T07:39:18Z</time>
      </trkpt>
      <trkpt lat="43.61086" lon="1.20116">
        <ele>174</ele>
        <time>2016-06-04T07:39:20Z</time>
      </trkpt>
      <trkpt lat="43.61079" lon="1.20113">
        <ele>175</ele>
        <time>2016-06-04T07:39:24Z</time>
      </trkpt>
      <trkpt lat="43.61074" lon="1.20108">
        <ele>176</ele>
        <time>2016-06-04T07:39:28Z</time>
      </trkpt>
      <trkpt lat="43.6107" lon="1.20107">
        <ele>177</ele>
        <time>2016-06-04T07:39:31Z</time>
      </trkpt>
      <trkpt lat="43.61068" lon="1.20106">
        <ele>179</ele>
        <time>2016-06-04T07:39:32Z</time>
      </trkpt>
      <trkpt lat="43.61066" lon="1.20104">
        <ele>180</ele>
        <time>2016-06-04T07:39:34Z</time>
      </trkpt>
      <trkpt lat="43.61062" lon="1.20099">
        <ele>181</ele>
        <time>2016-06-04T07:39:38Z</time>
      </trkpt>
      <trkpt lat="43.6106" lon="1.20096">
        <ele>181</ele>
        <time>2016-06-04T07:39:40Z</time>
      </trkpt>
      <trkpt lat="43.61058" lon="1.20093">
        <ele>181</ele>
        <time>2016-06-04T07:39:43Z</time>
      </trkpt>
      <trkpt lat="43.61057" lon="1.20092">
        <ele>181</ele>
        <time>2016-06-04T07:39:44Z</time>
      </trkpt>
      <trkpt lat="43.61054" lon="1.2009">
        <ele>181</ele>
        <time>2016-06-04T07:39:46Z</time>
      </trkpt>
      <trkpt lat="43.61038" lon="1.20081">
        <ele>182</ele>
        <time>2016-06-04T07:39:56Z</time>
      </trkpt>
      <trkpt lat="43.61037" lon="1.20076">
        <ele>183</ele>
        <time>2016-06-04T07:39:59Z</time>
      </trkpt>
      <trkpt lat="43.61036" lon="1.20075">
        <ele>183</ele>
        <time>2016-06-04T07:40:00Z</time>
      </trkpt>
      <trkpt lat="43.61034" lon="1.20074">
        <ele>183</ele>
        <time>2016-06-04T07:40:01Z</time>
      </trkpt>
      <trkpt lat="43.61026" lon="1.20066">
        <ele>184</ele>
        <time>2016-06-04T07:40:06Z</time>
      </trkpt>
      <trkpt lat="43.61021" lon="1.20062">
        <ele>185</ele>
        <time>2016-06-04T07:40:10Z</time>
      </trkpt>
      <trkpt lat="43.61018" lon="1.20059">
        <ele>186</ele>
        <time>2016-06-04T07:40:13Z</time>
      </trkpt>
      <trkpt lat="43.61015" lon="1.20056">
        <ele>187</ele>
        <time>2016-06-04T07:40:16Z</time>
      </trkpt>
      <trkpt lat="43.61014" lon="1.20053">
        <ele>187</ele>
        <time>2016-06-04T07:40:18Z</time>
      </trkpt>
      <trkpt lat="43.61011" lon="1.20048">
        <ele>188</ele>
        <time>2016-06-04T07:40:22Z</time>
      </trkpt>
      <trkpt lat="43.61007" lon="1.20042">
        <ele>188</ele>
        <time>2016-06-04T07:40:26Z</time>
      </trkpt>
      <trkpt lat="43.61005" lon="1.20035">
        <ele>188</ele>
        <time>2016-06-04T07:40:31Z</time>
      </trkpt>
      <trkpt lat="43.61001" lon="1.20032">
        <ele>189</ele>
        <time>2016-06-04T07:40:34Z</time>
      </trkpt>
      <trkpt lat="43.60995" lon="1.20028">
        <ele>189</ele>
        <time>2016-06-04T07:40:37Z</time>
      </trkpt>
      <trkpt lat="43.60988" lon="1.20026">
        <ele>189</ele>
        <time>2016-06-04T07:40:40Z</time>
      </trkpt>
      <trkpt lat="43.60985" lon="1.20023">
        <ele>189</ele>
        <time>2016-06-04T07:40:42Z</time>
      </trkpt>
      <trkpt lat="43.60959" lon="1.20018">
        <ele>189</ele>
        <time>2016-06-04T07:40:54Z</time>
      </trkpt>
      <trkpt lat="43.60955" lon="1.20017">
        <ele>189</ele>
        <time>2016-06-04T07:40:56Z</time>
      </trkpt>
      <trkpt lat="43.60948" lon="1.20015">
        <ele>189</ele>
        <time>2016-06-04T07:41:00Z</time>
      </trkpt>
      <trkpt lat="43.60945" lon="1.20015">
        <ele>190</ele>
        <time>2016-06-04T07:41:02Z</time>
      </trkpt>
      <trkpt lat="43.60938" lon="1.20013">
        <ele>190</ele>
        <time>2016-06-04T07:41:06Z</time>
      </trkpt>
      <trkpt lat="43.60938" lon="1.20012">
        <ele>190</ele>
        <time>2016-06-04T07:41:07Z</time>
      </trkpt>
      <trkpt lat="43.60936" lon="1.20011">
        <ele>190</ele>
        <time>2016-06-04T07:41:08Z</time>
      </trkpt>
      <trkpt lat="43.60935" lon="1.20008">
        <ele>190</ele>
        <time>2016-06-04T07:41:10Z</time>
      </trkpt>
      <trkpt lat="43.60931" lon="1.20004">
        <ele>191</ele>
        <time>2016-06-04T07:41:14Z</time>
      </trkpt>
      <trkpt lat="43.6093" lon="1.20003">
        <ele>191</ele>
        <time>2016-06-04T07:41:15Z</time>
      </trkpt>
      <trkpt lat="43.6093" lon="1.20003">
        <ele>191</ele>
        <time>2016-06-04T07:41:16Z</time>
      </trkpt>
      <trkpt lat="43.60927" lon="1.19998">
        <ele>191</ele>
        <time>2016-06-04T07:41:20Z</time>
      </trkpt>
      <trkpt lat="43.60923" lon="1.19992">
        <ele>191</ele>
        <time>2016-06-04T07:41:24Z</time>
      </trkpt>
      <trkpt lat="43.60907" lon="1.19989">
        <ele>192</ele>
        <time>2016-06-04T07:41:30Z</time>
      </trkpt>
      <trkpt lat="43.60904" lon="1.19982">
        <ele>192</ele>
        <time>2016-06-04T07:41:36Z</time>
      </trkpt>
      <trkpt lat="43.60902" lon="1.19978">
        <ele>193</ele>
        <time>2016-06-04T07:41:38Z</time>
      </trkpt>
      <trkpt lat="43.60898" lon="1.19975">
        <ele>193</ele>
        <time>2016-06-04T07:41:42Z</time>
      </trkpt>
      <trkpt lat="43.60889" lon="1.19969">
        <ele>193</ele>
        <time>2016-06-04T07:41:48Z</time>
      </trkpt>
      <trkpt lat="43.60886" lon="1.19968">
        <ele>194</ele>
        <time>2016-06-04T07:41:49Z</time>
      </trkpt>
      <trkpt lat="43.60885" lon="1.19968">
        <ele>194</ele>
        <time>2016-06-04T07:41:50Z</time>
      </trkpt>
      <trkpt lat="43.60877" lon="1.19963">
        <ele>194</ele>
        <time>2016-06-04T07:41:54Z</time>
      </trkpt>
      <trkpt lat="43.60873" lon="1.19962">
        <ele>194</ele>
        <time>2016-06-04T07:41:56Z</time>
      </trkpt>
      <trkpt lat="43.60869" lon="1.1996">
        <ele>195</ele>
        <time>2016-06-04T07:41:58Z</time>
      </trkpt>
      <trkpt lat="43.60864" lon="1.19958">
        <ele>195</ele>
        <time>2016-06-04T07:42:02Z</time>
      </trkpt>
      <trkpt lat="43.6086" lon="1.19956">
        <ele>195</ele>
        <time>2016-06-04T07:42:04Z</time>
      </trkpt>
      <trkpt lat="43.60854" lon="1.19952">
        <ele>196</ele>
        <time>2016-06-04T07:42:08Z</time>
      </trkpt>
      <trkpt lat="43.60849" lon="1.19948">
        <ele>196</ele>
        <time>2016-06-04T07:42:12Z</time>
      </trkpt>
      <trkpt lat="43.60845" lon="1.19947">
        <ele>197</ele>
        <time>2016-06-04T07:42:14Z</time>
      </trkpt>
      <trkpt lat="43.60841" lon="1.19943">
        <ele>197</ele>
        <time>2016-06-04T07:42:18Z</time>
      </trkpt>
      <trkpt lat="43.60838" lon="1.1994">
        <ele>198</ele>
        <time>2016-06-04T07:42:20Z</time>
      </trkpt>
      <trkpt lat="43.60834" lon="1.19938">
        <ele>198</ele>
        <time>2016-06-04T07:42:22Z</time>
      </trkpt>
      <trkpt lat="43.60829" lon="1.19933">
        <ele>198</ele>
        <time>2016-06-04T07:42:26Z</time>
      </trkpt>
      <trkpt lat="43.60827" lon="1.19931">
        <ele>199</ele>
        <time>2016-06-04T07:42:28Z</time>
      </trkpt>
      <trkpt lat="43.60826" lon="1.19927">
        <ele>199</ele>
        <time>2016-06-04T07:42:31Z</time>
      </trkpt>
      <trkpt lat="43.60823" lon="1.19923">
        <ele>199</ele>
        <time>2016-06-04T07:42:35Z</time>
      </trkpt>
      <trkpt lat="43.60819" lon="1.19919">
        <ele>200</ele>
        <time>2016-06-04T07:42:38Z</time>
      </trkpt>
      <trkpt lat="43.60814" lon="1.19914">
        <ele>200</ele>
        <time>2016-06-04T07:42:42Z</time>
      </trkpt>
      <trkpt lat="43.60812" lon="1.1991">
        <ele>200</ele>
        <time>2016-06-04T07:42:44Z</time>
      </trkpt>
      <trkpt lat="43.60811" lon="1.19908">
        <ele>201</ele>
        <time>2016-06-04T07:42:46Z</time>
      </trkpt>
      <trkpt lat="43.60805" lon="1.19904">
        <ele>201</ele>
        <time>2016-06-04T07:42:48Z</time>
      </trkpt>
      <trkpt lat="43.60795" lon="1.19899">
        <ele>201</ele>
        <time>2016-06-04T07:42:53Z</time>
      </trkpt>
      <trkpt lat="43.60793" lon="1.19898">
        <ele>202</ele>
        <time>2016-06-04T07:42:54Z</time>
      </trkpt>
      <trkpt lat="43.60786" lon="1.19894">
        <ele>202</ele>
        <time>2016-06-04T07:42:58Z</time>
      </trkpt>
      <trkpt lat="43.60771" lon="1.19894">
        <ele>202</ele>
        <time>2016-06-04T07:43:02Z</time>
      </trkpt>
      <trkpt lat="43.60757" lon="1.19887">
        <ele>202</ele>
        <time>2016-06-04T07:43:08Z</time>
      </trkpt>
      <trkpt lat="43.60754" lon="1.19884">
        <ele>202</ele>
        <time>2016-06-04T07:43:10Z</time>
      </trkpt>
      <trkpt lat="43.60749" lon="1.1988">
        <ele>202</ele>
        <time>2016-06-04T07:43:14Z</time>
      </trkpt>
      <trkpt lat="43.60744" lon="1.19875">
        <ele>203</ele>
        <time>2016-06-04T07:43:18Z</time>
      </trkpt>
      <trkpt lat="43.60742" lon="1.19875">
        <ele>203</ele>
        <time>2016-06-04T07:43:19Z</time>
      </trkpt>
      <trkpt lat="43.60741" lon="1.19874">
        <ele>204</ele>
        <time>2016-06-04T07:43:20Z</time>
      </trkpt>
      <trkpt lat="43.60737" lon="1.19872">
        <ele>204</ele>
        <time>2016-06-04T07:43:22Z</time>
      </trkpt>
      <trkpt lat="43.60735" lon="1.1987">
        <ele>204</ele>
        <time>2016-06-04T07:43:24Z</time>
      </trkpt>
      <trkpt lat="43.6073" lon="1.19865">
        <ele>204</ele>
        <time>2016-06-04T07:43:28Z</time>
      </trkpt>
      <trkpt lat="43.60729" lon="1.19865">
        <ele>204</ele>
        <time>2016-06-04T07:43:29Z</time>
      </trkpt>
      <trkpt lat="43.60726" lon="1.19863">
        <ele>203</ele>
        <time>2016-06-04T07:43:31Z</time>
      </trkpt>
      <trkpt lat="43.60725" lon="1.19862">
        <ele>203</ele>
        <time>2016-06-04T07:43:32Z</time>
      </trkpt>
      <trkpt lat="43.60724" lon="1.19861">
        <ele>203</ele>
        <time>2016-06-04T07:43:33Z</time>
      </trkpt>
      <trkpt lat="43.60721" lon="1.19858">
        <ele>203</ele>
        <time>2016-06-04T07:43:36Z</time>
      </trkpt>
      <trkpt lat="43.60718" lon="1.19856">
        <ele>203</ele>
        <time>2016-06-04T07:43:38Z</time>
      </trkpt>
      <trkpt lat="43.60712" lon="1.19851">
        <ele>202</ele>
        <time>2016-06-04T07:43:42Z</time>
      </trkpt>
      <trkpt lat="43.60711" lon="1.1985">
        <ele>202</ele>
        <time>2016-06-04T07:43:43Z</time>
      </trkpt>
      <trkpt lat="43.6071" lon="1.19848">
        <ele>202</ele>
        <time>2016-06-04T07:43:44Z</time>
      </trkpt>
      <trkpt lat="43.60707" lon="1.19846">
        <ele>202</ele>
        <time>2016-06-04T07:43:46Z</time>
      </trkpt>
      <trkpt lat="43.60703" lon="1.19842">
        <ele>202</ele>
        <time>2016-06-04T07:43:48Z</time>
      </trkpt>
      <trkpt lat="43.60698" lon="1.19838">
        <ele>201</ele>
        <time>2016-06-04T07:43:52Z</time>
      </trkpt>
      <trkpt lat="43.60696" lon="1.19837">
        <ele>201</ele>
        <time>2016-06-04T07:43:54Z</time>
      </trkpt>
      <trkpt lat="43.60693" lon="1.19835">
        <ele>201</ele>
        <time>2016-06-04T07:43:56Z</time>
      </trkpt>
      <trkpt lat="43.60689" lon="1.19832">
        <ele>201</ele>
        <time>2016-06-04T07:43:59Z</time>
      </trkpt>
      <trkpt lat="43.60688" lon="1.19831">
        <ele>201</ele>
        <time>2016-06-04T07:44:00Z</time>
      </trkpt>
      <trkpt lat="43.60683" lon="1.19828">
        <ele>201</ele>
        <time>2016-06-04T07:44:04Z</time>
      </trkpt>
      <trkpt lat="43.6068" lon="1.19825">
        <ele>201</ele>
        <time>2016-06-04T07:44:06Z</time>
      </trkpt>
      <trkpt lat="43.60676" lon="1.19824">
        <ele>200</ele>
        <time>2016-06-04T07:44:08Z</time>
      </trkpt>
      <trkpt lat="43.6067" lon="1.1982">
        <ele>200</ele>
        <time>2016-06-04T07:44:12Z</time>
      </trkpt>
      <trkpt lat="43.60668" lon="1.19818">
        <ele>200</ele>
        <time>2016-06-04T07:44:14Z</time>
      </trkpt>
      <trkpt lat="43.60665" lon="1.19815">
        <ele>199</ele>
        <time>2016-06-04T07:44:16Z</time>
      </trkpt>
      <trkpt lat="43.60663" lon="1.19813">
        <ele>199</ele>
        <time>2016-06-04T07:44:18Z</time>
      </trkpt>
      <trkpt lat="43.6066" lon="1.1981">
        <ele>198</ele>
        <time>2016-06-04T07:44:20Z</time>
      </trkpt>
      <trkpt lat="43.60655" lon="1.19806">
        <ele>198</ele>
        <time>2016-06-04T07:44:24Z</time>
      </trkpt>
      <trkpt lat="43.60653" lon="1.19804">
        <ele>198</ele>
        <time>2016-06-04T07:44:26Z</time>
      </trkpt>
      <trkpt lat="43.6065" lon="1.19802">
        <ele>197</ele>
        <time>2016-06-04T07:44:28Z</time>
      </trkpt>
      <trkpt lat="43.60648" lon="1.19799">
        <ele>197</ele>
        <time>2016-06-04T07:44:30Z</time>
      </trkpt>
      <trkpt lat="43.60643" lon="1.19795">
        <ele>197</ele>
        <time>2016-06-04T07:44:34Z</time>
      </trkpt>
      <trkpt lat="43.6064" lon="1.19793">
        <ele>197</ele>
        <time>2016-06-04T07:44:36Z</time>
      </trkpt>
      <trkpt lat="43.60638" lon="1.1979">
        <ele>197</ele>
        <time>2016-06-04T07:44:38Z</time>
      </trkpt>
      <trkpt lat="43.60635" lon="1.19788">
        <ele>197</ele>
        <time>2016-06-04T07:44:40Z</time>
      </trkpt>
      <trkpt lat="43.60633" lon="1.19785">
        <ele>196</ele>
        <time>2016-06-04T07:44:42Z</time>
      </trkpt>
      <trkpt lat="43.60628" lon="1.19781">
        <ele>196</ele>
        <time>2016-06-04T07:44:46Z</time>
      </trkpt>
      <trkpt lat="43.60622" lon="1.19777">
        <ele>196</ele>
        <time>2016-06-04T07:44:50Z</time>
      </trkpt>
      <trkpt lat="43.6062" lon="1.19776">
        <ele>196</ele>
        <time>2016-06-04T07:44:52Z</time>
      </trkpt>
      <trkpt lat="43.60615" lon="1.19772">
        <ele>196</ele>
        <time>2016-06-04T07:44:56Z</time>
      </trkpt>
      <trkpt lat="43.60613" lon="1.1977">
        <ele>197</ele>
        <time>2016-06-04T07:44:58Z</time>
      </trkpt>
      <trkpt lat="43.60611" lon="1.19768">
        <ele>197</ele>
        <time>2016-06-04T07:45:00Z</time>
      </trkpt>
      <trkpt lat="43.60606" lon="1.19764">
        <ele>197</ele>
        <time>2016-06-04T07:45:04Z</time>
      </trkpt>
      <trkpt lat="43.60605" lon="1.19763">
        <ele>197</ele>
        <time>2016-06-04T07:45:05Z</time>
      </trkpt>
      <trkpt lat="43.606" lon="1.19758">
        <ele>197</ele>
        <time>2016-06-04T07:45:10Z</time>
      </trkpt>
      <trkpt lat="43.60597" lon="1.19753">
        <ele>197</ele>
        <time>2016-06-04T07:45:14Z</time>
      </trkpt>
      <trkpt lat="43.60597" lon="1.1975">
        <ele>197</ele>
        <time>2016-06-04T07:45:16Z</time>
      </trkpt>
      <trkpt lat="43.60598" lon="1.19752">
        <ele>197</ele>
        <time>2016-06-04T07:45:20Z</time>
      </trkpt>
      <trkpt lat="43.60599" lon="1.19752">
        <ele>196</ele>
        <time>2016-06-04T07:45:21Z</time>
      </trkpt>
      <trkpt lat="43.60594" lon="1.19745">
        <ele>196</ele>
        <time>2016-06-04T07:45:44Z</time>
      </trkpt>
      <trkpt lat="43.60593" lon="1.19745">
        <ele>195</ele>
        <time>2016-06-04T07:45:46Z</time>
      </trkpt>
      <trkpt lat="43.60594" lon="1.19745">
        <ele>195</ele>
        <time>2016-06-04T07:45:48Z</time>
      </trkpt>
      <trkpt lat="43.60593" lon="1.19745">
        <ele>194</ele>
        <time>2016-06-04T07:45:50Z</time>
      </trkpt>
      <trkpt lat="43.6059" lon="1.19742">
        <ele>193</ele>
        <time>2016-06-04T07:45:54Z</time>
      </trkpt>
      <trkpt lat="43.60586" lon="1.19739">
        <ele>193</ele>
        <time>2016-06-04T07:45:58Z</time>
      </trkpt>
      <trkpt lat="43.60584" lon="1.19738">
        <ele>193</ele>
        <time>2016-06-04T07:46:00Z</time>
      </trkpt>
      <trkpt lat="43.60582" lon="1.19736">
        <ele>193</ele>
        <time>2016-06-04T07:46:02Z</time>
      </trkpt>
      <trkpt lat="43.6058" lon="1.19733">
        <ele>193</ele>
        <time>2016-06-04T07:46:04Z</time>
      </trkpt>
      <trkpt lat="43.60576" lon="1.19729">
        <ele>193</ele>
        <time>2016-06-04T07:46:08Z</time>
      </trkpt>
      <trkpt lat="43.60571" lon="1.19725">
        <ele>193</ele>
        <time>2016-06-04T07:46:12Z</time>
      </trkpt>
      <trkpt lat="43.60569" lon="1.19724">
        <ele>193</ele>
        <time>2016-06-04T07:46:14Z</time>
      </trkpt>
      <trkpt lat="43.60566" lon="1.19722">
        <ele>193</ele>
        <time>2016-06-04T07:46:16Z</time>
      </trkpt>
      <trkpt lat="43.60564" lon="1.1972">
        <ele>193</ele>
        <time>2016-06-04T07:46:18Z</time>
      </trkpt>
      <trkpt lat="43.60561" lon="1.19719">
        <ele>193</ele>
        <time>2016-06-04T07:46:20Z</time>
      </trkpt>
      <trkpt lat="43.60556" lon="1.19715">
        <ele>193</ele>
        <time>2016-06-04T07:46:24Z</time>
      </trkpt>
      <trkpt lat="43.60554" lon="1.19713">
        <ele>194</ele>
        <time>2016-06-04T07:46:26Z</time>
      </trkpt>
      <trkpt lat="43.60552" lon="1.19711">
        <ele>194</ele>
        <time>2016-06-04T07:46:28Z</time>
      </trkpt>
      <trkpt lat="43.60549" lon="1.19709">
        <ele>195</ele>
        <time>2016-06-04T07:46:31Z</time>
      </trkpt>
      <trkpt lat="43.60546" lon="1.19707">
        <ele>195</ele>
        <time>2016-06-04T07:46:34Z</time>
      </trkpt>
      <trkpt lat="43.60544" lon="1.19706">
        <ele>195</ele>
        <time>2016-06-04T07:46:36Z</time>
      </trkpt>
      <trkpt lat="43.60542" lon="1.19705">
        <ele>196</ele>
        <time>2016-06-04T07:46:38Z</time>
      </trkpt>
      <trkpt lat="43.60539" lon="1.19704">
        <ele>196</ele>
        <time>2016-06-04T07:46:40Z</time>
      </trkpt>
      <trkpt lat="43.60537" lon="1.19703">
        <ele>197</ele>
        <time>2016-06-04T07:46:42Z</time>
      </trkpt>
      <trkpt lat="43.60534" lon="1.19702">
        <ele>197</ele>
        <time>2016-06-04T07:46:44Z</time>
      </trkpt>
      <trkpt lat="43.60532" lon="1.197">
        <ele>198</ele>
        <time>2016-06-04T07:46:46Z</time>
      </trkpt>
      <trkpt lat="43.60531" lon="1.19698">
        <ele>198</ele>
        <time>2016-06-04T07:46:52Z</time>
      </trkpt>
      <trkpt lat="43.60531" lon="1.19698">
        <ele>198</ele>
        <time>2016-06-04T07:47:18Z</time>
      </trkpt>
      <trkpt lat="43.60531" lon="1.19698">
        <ele>198</ele>
        <time>2016-06-04T07:47:20Z</time>
      </trkpt>
      <trkpt lat="43.60531" lon="1.19698">
        <ele>198</ele>
        <time>2016-06-04T07:47:48Z</time>
      </trkpt>
      <trkpt lat="43.60531" lon="1.19698">
        <ele>198</ele>
        <time>2016-06-04T07:47:50Z</time>
      </trkpt>
      <trkpt lat="43.60526" lon="1.19685">
        <ele>197</ele>
        <time>2016-06-04T07:47:54Z</time>
      </trkpt>
      <trkpt lat="43.60526" lon="1.19685">
        <ele>197</ele>
        <time>2016-06-04T07:47:56Z</time>
      </trkpt>
      <trkpt lat="43.60526" lon="1.19685">
        <ele>196</ele>
        <time>2016-06-04T07:48:18Z</time>
      </trkpt>
      <trkpt lat="43.60526" lon="1.19685">
        <ele>196</ele>
        <time>2016-06-04T07:48:20Z</time>
      </trkpt>
      <trkpt lat="43.60526" lon="1.19685">
        <ele>196</ele>
        <time>2016-06-04T07:48:48Z</time>
      </trkpt>
      <trkpt lat="43.60526" lon="1.19685">
        <ele>196</ele>
        <time>2016-06-04T07:48:50Z</time>
      </trkpt>
      <trkpt lat="43.60526" lon="1.19685">
        <ele>196</ele>
        <time>2016-06-04T07:49:18Z</time>
      </trkpt>
      <trkpt lat="43.60526" lon="1.19685">
        <ele>196</ele>
        <time>2016-06-04T07:49:20Z</time>
      </trkpt>
      <trkpt lat="43.60526" lon="1.19685">
        <ele>196</ele>
        <time>2016-06-04T07:49:50Z</time>
      </trkpt>
      <trkpt lat="43.60524" lon="1.19689">
        <ele>195</ele>
        <time>2016-06-04T07:49:52Z</time>
      </trkpt>
      <trkpt lat="43.60523" lon="1.19688">
        <ele>195</ele>
        <time>2016-06-04T07:49:54Z</time>
      </trkpt>
      <trkpt lat="43.60523" lon="1.19688">
        <ele>194</ele>
        <time>2016-06-04T07:49:55Z</time>
      </trkpt>
      <trkpt lat="43.60523" lon="1.19688">
        <ele>194</ele>
        <time>2016-06-04T07:49:56Z</time>
      </trkpt>
      <trkpt lat="43.60521" lon="1.19687">
        <ele>194</ele>
        <time>2016-06-04T07:49:58Z</time>
      </trkpt>
      <trkpt lat="43.60519" lon="1.19686">
        <ele>194</ele>
        <time>2016-06-04T07:50:00Z</time>
      </trkpt>
      <trkpt lat="43.60516" lon="1.19687">
        <ele>194</ele>
        <time>2016-06-04T07:50:02Z</time>
      </trkpt>
      <trkpt lat="43.60513" lon="1.19689">
        <ele>194</ele>
        <time>2016-06-04T07:50:04Z</time>
      </trkpt>
      <trkpt lat="43.60512" lon="1.19688">
        <ele>194</ele>
        <time>2016-06-04T07:50:06Z</time>
      </trkpt>
      <trkpt lat="43.6051" lon="1.19687">
        <ele>194</ele>
        <time>2016-06-04T07:50:08Z</time>
      </trkpt>
      <trkpt lat="43.60508" lon="1.19685">
        <ele>194</ele>
        <time>2016-06-04T07:50:10Z</time>
      </trkpt>
      <trkpt lat="43.60507" lon="1.19684">
        <ele>194</ele>
        <time>2016-06-04T07:50:12Z</time>
      </trkpt>
      <trkpt lat="43.60506" lon="1.19683">
        <ele>194</ele>
        <time>2016-06-04T07:50:14Z</time>
      </trkpt>
      <trkpt lat="43.60504" lon="1.19679">
        <ele>194</ele>
        <time>2016-06-04T07:50:16Z</time>
      </trkpt>
      <trkpt lat="43.60504" lon="1.19676">
        <ele>194</ele>
        <time>2016-06-04T07:50:18Z</time>
      </trkpt>
      <trkpt lat="43.60503" lon="1.19672">
        <ele>194</ele>
        <time>2016-06-04T07:50:20Z</time>
      </trkpt>
      <trkpt lat="43.60502" lon="1.19667">
        <ele>194</ele>
        <time>2016-06-04T07:50:22Z</time>
      </trkpt>
      <trkpt lat="43.60503" lon="1.19663">
        <ele>194</ele>
        <time>2016-06-04T07:50:24Z</time>
      </trkpt>
      <trkpt lat="43.60503" lon="1.19659">
        <ele>194</ele>
        <time>2016-06-04T07:50:26Z</time>
      </trkpt>
      <trkpt lat="43.60504" lon="1.19655">
        <ele>194</ele>
        <time>2016-06-04T07:50:28Z</time>
      </trkpt>
      <trkpt lat="43.60504" lon="1.19652">
        <ele>194</ele>
        <time>2016-06-04T07:50:30Z</time>
      </trkpt>
      <trkpt lat="43.60505" lon="1.1965">
        <ele>194</ele>
        <time>2016-06-04T07:50:31Z</time>
      </trkpt>
      <trkpt lat="43.60505" lon="1.19649">
        <ele>194</ele>
        <time>2016-06-04T07:50:32Z</time>
      </trkpt>
      <trkpt lat="43.60505" lon="1.19644">
        <ele>194</ele>
        <time>2016-06-04T07:50:34Z</time>
      </trkpt>
      <trkpt lat="43.60505" lon="1.19642">
        <ele>194</ele>
        <time>2016-06-04T07:50:35Z</time>
      </trkpt>
      <trkpt lat="43.60504" lon="1.19638">
        <ele>194</ele>
        <time>2016-06-04T07:50:37Z</time>
      </trkpt>
      <trkpt lat="43.60504" lon="1.19637">
        <ele>194</ele>
        <time>2016-06-04T07:50:38Z</time>
      </trkpt>
      <trkpt lat="43.60505" lon="1.19634">
        <ele>195</ele>
        <time>2016-06-04T07:50:40Z</time>
      </trkpt>
      <trkpt lat="43.60506" lon="1.19631">
        <ele>195</ele>
        <time>2016-06-04T07:50:42Z</time>
      </trkpt>
      <trkpt lat="43.60507" lon="1.19627">
        <ele>195</ele>
        <time>2016-06-04T07:50:44Z</time>
      </trkpt>
      <trkpt lat="43.60508" lon="1.19624">
        <ele>195</ele>
        <time>2016-06-04T07:50:46Z</time>
      </trkpt>
      <trkpt lat="43.6051" lon="1.19621">
        <ele>195</ele>
        <time>2016-06-04T07:50:48Z</time>
      </trkpt>
      <trkpt lat="43.60512" lon="1.19617">
        <ele>195</ele>
        <time>2016-06-04T07:50:50Z</time>
      </trkpt>
      <trkpt lat="43.60513" lon="1.19613">
        <ele>195</ele>
        <time>2016-06-04T07:50:52Z</time>
      </trkpt>
      <trkpt lat="43.60515" lon="1.19609">
        <ele>195</ele>
        <time>2016-06-04T07:50:54Z</time>
      </trkpt>
      <trkpt lat="43.60517" lon="1.19606">
        <ele>195</ele>
        <time>2016-06-04T07:50:56Z</time>
      </trkpt>
      <trkpt lat="43.60517" lon="1.19604">
        <ele>195</ele>
        <time>2016-06-04T07:50:58Z</time>
      </trkpt>
      <trkpt lat="43.60518" lon="1.19601">
        <ele>196</ele>
        <time>2016-06-04T07:51:00Z</time>
      </trkpt>
      <trkpt lat="43.60519" lon="1.19599">
        <ele>196</ele>
        <time>2016-06-04T07:51:02Z</time>
      </trkpt>
      <trkpt lat="43.6052" lon="1.19596">
        <ele>196</ele>
        <time>2016-06-04T07:51:04Z</time>
      </trkpt>
      <trkpt lat="43.6052" lon="1.19592">
        <ele>196</ele>
        <time>2016-06-04T07:51:05Z</time>
      </trkpt>
      <trkpt lat="43.60521" lon="1.19588">
        <ele>196</ele>
        <time>2016-06-04T07:51:07Z</time>
      </trkpt>
      <trkpt lat="43.60522" lon="1.19586">
        <ele>196</ele>
        <time>2016-06-04T07:51:08Z</time>
      </trkpt>
      <trkpt lat="43.60524" lon="1.19584">
        <ele>196</ele>
        <time>2016-06-04T07:51:10Z</time>
      </trkpt>
      <trkpt lat="43.60525" lon="1.19583">
        <ele>197</ele>
        <time>2016-06-04T07:51:12Z</time>
      </trkpt>
      <trkpt lat="43.60527" lon="1.1958">
        <ele>197</ele>
        <time>2016-06-04T07:51:14Z</time>
      </trkpt>
      <trkpt lat="43.60527" lon="1.19577">
        <ele>197</ele>
        <time>2016-06-04T07:51:16Z</time>
      </trkpt>
      <trkpt lat="43.60528" lon="1.19576">
        <ele>197</ele>
        <time>2016-06-04T07:51:18Z</time>
      </trkpt>
      <trkpt lat="43.60528" lon="1.19573">
        <ele>197</ele>
        <time>2016-06-04T07:51:20Z</time>
      </trkpt>
      <trkpt lat="43.60531" lon="1.19571">
        <ele>198</ele>
        <time>2016-06-04T07:51:22Z</time>
      </trkpt>
      <trkpt lat="43.60532" lon="1.19568">
        <ele>198</ele>
        <time>2016-06-04T07:51:24Z</time>
      </trkpt>
      <trkpt lat="43.60534" lon="1.19566">
        <ele>198</ele>
        <time>2016-06-04T07:51:26Z</time>
      </trkpt>
      <trkpt lat="43.60535" lon="1.19562">
        <ele>198</ele>
        <time>2016-06-04T07:51:28Z</time>
      </trkpt>
      <trkpt lat="43.60536" lon="1.1956">
        <ele>198</ele>
        <time>2016-06-04T07:51:30Z</time>
      </trkpt>
      <trkpt lat="43.60537" lon="1.19558">
        <ele>199</ele>
        <time>2016-06-04T07:51:31Z</time>
      </trkpt>
      <trkpt lat="43.60539" lon="1.19557">
        <ele>199</ele>
        <time>2016-06-04T07:51:32Z</time>
      </trkpt>
      <trkpt lat="43.6054" lon="1.19554">
        <ele>199</ele>
        <time>2016-06-04T07:51:34Z</time>
      </trkpt>
      <trkpt lat="43.60541" lon="1.19552">
        <ele>199</ele>
        <time>2016-06-04T07:51:35Z</time>
      </trkpt>
      <trkpt lat="43.60542" lon="1.19538">
        <ele>200</ele>
        <time>2016-06-04T07:51:39Z</time>
      </trkpt>
      <trkpt lat="43.60545" lon="1.19534">
        <ele>200</ele>
        <time>2016-06-04T07:51:41Z</time>
      </trkpt>
      <trkpt lat="43.60547" lon="1.19533">
        <ele>200</ele>
        <time>2016-06-04T07:51:43Z</time>
      </trkpt>
      <trkpt lat="43.60548" lon="1.19531">
        <ele>200</ele>
        <time>2016-06-04T07:51:44Z</time>
      </trkpt>
      <trkpt lat="43.60551" lon="1.19529">
        <ele>200</ele>
        <time>2016-06-04T07:51:46Z</time>
      </trkpt>
      <trkpt lat="43.60555" lon="1.19528">
        <ele>201</ele>
        <time>2016-06-04T07:51:48Z</time>
      </trkpt>
      <trkpt lat="43.60555" lon="1.19526">
        <ele>201</ele>
        <time>2016-06-04T07:51:50Z</time>
      </trkpt>
      <trkpt lat="43.60555" lon="1.19524">
        <ele>201</ele>
        <time>2016-06-04T07:51:52Z</time>
      </trkpt>
      <trkpt lat="43.60554" lon="1.19523">
        <ele>201</ele>
        <time>2016-06-04T07:51:54Z</time>
      </trkpt>
      <trkpt lat="43.60554" lon="1.19522">
        <ele>201</ele>
        <time>2016-06-04T07:51:55Z</time>
      </trkpt>
      <trkpt lat="43.60554" lon="1.19521">
        <ele>201</ele>
        <time>2016-06-04T07:51:56Z</time>
      </trkpt>
      <trkpt lat="43.60553" lon="1.1952">
        <ele>202</ele>
        <time>2016-06-04T07:51:58Z</time>
      </trkpt>
      <trkpt lat="43.60552" lon="1.19518">
        <ele>202</ele>
        <time>2016-06-04T07:52:00Z</time>
      </trkpt>
      <trkpt lat="43.6055" lon="1.19516">
        <ele>202</ele>
        <time>2016-06-04T07:52:02Z</time>
      </trkpt>
      <trkpt lat="43.60548" lon="1.19514">
        <ele>202</ele>
        <time>2016-06-04T07:52:04Z</time>
      </trkpt>
      <trkpt lat="43.60545" lon="1.19513">
        <ele>203</ele>
        <time>2016-06-04T07:52:06Z</time>
      </trkpt>
      <trkpt lat="43.60543" lon="1.1951">
        <ele>203</ele>
        <time>2016-06-04T07:52:08Z</time>
      </trkpt>
      <trkpt lat="43.60542" lon="1.19497">
        <ele>203</ele>
        <time>2016-06-04T07:52:12Z</time>
      </trkpt>
      <trkpt lat="43.60539" lon="1.19496">
        <ele>204</ele>
        <time>2016-06-04T07:52:14Z</time>
      </trkpt>
      <trkpt lat="43.60536" lon="1.19495">
        <ele>204</ele>
        <time>2016-06-04T07:52:16Z</time>
      </trkpt>
      <trkpt lat="43.60533" lon="1.19493">
        <ele>204</ele>
        <time>2016-06-04T07:52:18Z</time>
      </trkpt>
      <trkpt lat="43.60529" lon="1.19491">
        <ele>204</ele>
        <time>2016-06-04T07:52:20Z</time>
      </trkpt>
      <trkpt lat="43.60527" lon="1.1949">
        <ele>204</ele>
        <time>2016-06-04T07:52:22Z</time>
      </trkpt>
      <trkpt lat="43.60526" lon="1.19489">
        <ele>205</ele>
        <time>2016-06-04T07:52:23Z</time>
      </trkpt>
      <trkpt lat="43.60523" lon="1.19488">
        <ele>205</ele>
        <time>2016-06-04T07:52:25Z</time>
      </trkpt>
      <trkpt lat="43.60521" lon="1.19487">
        <ele>205</ele>
        <time>2016-06-04T07:52:26Z</time>
      </trkpt>
      <trkpt lat="43.60519" lon="1.19486">
        <ele>205</ele>
        <time>2016-06-04T07:52:28Z</time>
      </trkpt>
      <trkpt lat="43.60516" lon="1.19484">
        <ele>206</ele>
        <time>2016-06-04T07:52:30Z</time>
      </trkpt>
      <trkpt lat="43.60514" lon="1.19484">
        <ele>206</ele>
        <time>2016-06-04T07:52:32Z</time>
      </trkpt>
      <trkpt lat="43.60513" lon="1.19483">
        <ele>206</ele>
        <time>2016-06-04T07:52:34Z</time>
      </trkpt>
      <trkpt lat="43.6051" lon="1.19482">
        <ele>207</ele>
        <time>2016-06-04T07:52:36Z</time>
      </trkpt>
      <trkpt lat="43.60506" lon="1.19479">
        <ele>207</ele>
        <time>2016-06-04T07:52:38Z</time>
      </trkpt>
      <trkpt lat="43.60503" lon="1.19478">
        <ele>207</ele>
        <time>2016-06-04T07:52:40Z</time>
      </trkpt>
      <trkpt lat="43.60501" lon="1.19477">
        <ele>208</ele>
        <time>2016-06-04T07:52:42Z</time>
      </trkpt>
      <trkpt lat="43.605" lon="1.19476">
        <ele>208</ele>
        <time>2016-06-04T07:52:43Z</time>
      </trkpt>
      <trkpt lat="43.60499" lon="1.19474">
        <ele>208</ele>
        <time>2016-06-04T07:52:44Z</time>
      </trkpt>
      <trkpt lat="43.60496" lon="1.19473">
        <ele>209</ele>
        <time>2016-06-04T07:52:46Z</time>
      </trkpt>
      <trkpt lat="43.60494" lon="1.19472">
        <ele>209</ele>
        <time>2016-06-04T07:52:48Z</time>
      </trkpt>
      <trkpt lat="43.60492" lon="1.19471">
        <ele>209</ele>
        <time>2016-06-04T07:52:50Z</time>
      </trkpt>
      <trkpt lat="43.6049" lon="1.19469">
        <ele>210</ele>
        <time>2016-06-04T07:52:52Z</time>
      </trkpt>
      <trkpt lat="43.60487" lon="1.19468">
        <ele>210</ele>
        <time>2016-06-04T07:52:54Z</time>
      </trkpt>
      <trkpt lat="43.60486" lon="1.19468">
        <ele>210</ele>
        <time>2016-06-04T07:52:55Z</time>
      </trkpt>
      <trkpt lat="43.60486" lon="1.19467">
        <ele>211</ele>
        <time>2016-06-04T07:52:56Z</time>
      </trkpt>
      <trkpt lat="43.60483" lon="1.19466">
        <ele>211</ele>
        <time>2016-06-04T07:52:58Z</time>
      </trkpt>
      <trkpt lat="43.60481" lon="1.19465">
        <ele>212</ele>
        <time>2016-06-04T07:53:00Z</time>
      </trkpt>
      <trkpt lat="43.60478" lon="1.19465">
        <ele>212</ele>
        <time>2016-06-04T07:53:02Z</time>
      </trkpt>
      <trkpt lat="43.60475" lon="1.19465">
        <ele>213</ele>
        <time>2016-06-04T07:53:04Z</time>
      </trkpt>
      <trkpt lat="43.60474" lon="1.19465">
        <ele>213</ele>
        <time>2016-06-04T07:53:05Z</time>
      </trkpt>
      <trkpt lat="43.60471" lon="1.19463">
        <ele>214</ele>
        <time>2016-06-04T07:53:07Z</time>
      </trkpt>
      <trkpt lat="43.6047" lon="1.19461">
        <ele>214</ele>
        <time>2016-06-04T07:53:08Z</time>
      </trkpt>
      <trkpt lat="43.60462" lon="1.19455">
        <ele>215</ele>
        <time>2016-06-04T07:53:13Z</time>
      </trkpt>
      <trkpt lat="43.60461" lon="1.19454">
        <ele>215</ele>
        <time>2016-06-04T07:53:14Z</time>
      </trkpt>
      <trkpt lat="43.60459" lon="1.19452">
        <ele>216</ele>
        <time>2016-06-04T07:53:16Z</time>
      </trkpt>
      <trkpt lat="43.60459" lon="1.19443">
        <ele>216</ele>
        <time>2016-06-04T07:53:18Z</time>
      </trkpt>
      <trkpt lat="43.60458" lon="1.19441">
        <ele>216</ele>
        <time>2016-06-04T07:53:19Z</time>
      </trkpt>
      <trkpt lat="43.60457" lon="1.1944">
        <ele>217</ele>
        <time>2016-06-04T07:53:20Z</time>
      </trkpt>
      <trkpt lat="43.60455" lon="1.19436">
        <ele>217</ele>
        <time>2016-06-04T07:53:22Z</time>
      </trkpt>
      <trkpt lat="43.60453" lon="1.19435">
        <ele>217</ele>
        <time>2016-06-04T07:53:24Z</time>
      </trkpt>
      <trkpt lat="43.6045" lon="1.19435">
        <ele>218</ele>
        <time>2016-06-04T07:53:26Z</time>
      </trkpt>
      <trkpt lat="43.60447" lon="1.19434">
        <ele>218</ele>
        <time>2016-06-04T07:53:28Z</time>
      </trkpt>
      <trkpt lat="43.60445" lon="1.19434">
        <ele>218</ele>
        <time>2016-06-04T07:53:29Z</time>
      </trkpt>
      <trkpt lat="43.60444" lon="1.19433">
        <ele>218</ele>
        <time>2016-06-04T07:53:31Z</time>
      </trkpt>
      <trkpt lat="43.60442" lon="1.19432">
        <ele>219</ele>
        <time>2016-06-04T07:53:32Z</time>
      </trkpt>
      <trkpt lat="43.6044" lon="1.19433">
        <ele>219</ele>
        <time>2016-06-04T07:53:34Z</time>
      </trkpt>
      <trkpt lat="43.60439" lon="1.19433">
        <ele>219</ele>
        <time>2016-06-04T07:53:35Z</time>
      </trkpt>
      <trkpt lat="43.60437" lon="1.1943">
        <ele>219</ele>
        <time>2016-06-04T07:53:37Z</time>
      </trkpt>
      <trkpt lat="43.60436" lon="1.19429">
        <ele>219</ele>
        <time>2016-06-04T07:53:38Z</time>
      </trkpt>
      <trkpt lat="43.60434" lon="1.19426">
        <ele>220</ele>
        <time>2016-06-04T07:53:40Z</time>
      </trkpt>
      <trkpt lat="43.60431" lon="1.19421">
        <ele>220</ele>
        <time>2016-06-04T07:53:42Z</time>
      </trkpt>
      <trkpt lat="43.60424" lon="1.19413">
        <ele>220</ele>
        <time>2016-06-04T07:53:46Z</time>
      </trkpt>
      <trkpt lat="43.60425" lon="1.19395">
        <ele>220</ele>
        <time>2016-06-04T07:53:50Z</time>
      </trkpt>
      <trkpt lat="43.60423" lon="1.19394">
        <ele>220</ele>
        <time>2016-06-04T07:53:52Z</time>
      </trkpt>
      <trkpt lat="43.6042" lon="1.19395">
        <ele>220</ele>
        <time>2016-06-04T07:53:54Z</time>
      </trkpt>
      <trkpt lat="43.60418" lon="1.19395">
        <ele>220</ele>
        <time>2016-06-04T07:53:55Z</time>
      </trkpt>
      <trkpt lat="43.60416" lon="1.19396">
        <ele>220</ele>
        <time>2016-06-04T07:53:56Z</time>
      </trkpt>
      <trkpt lat="43.60413" lon="1.19397">
        <ele>221</ele>
        <time>2016-06-04T07:53:58Z</time>
      </trkpt>
      <trkpt lat="43.60412" lon="1.19398">
        <ele>221</ele>
        <time>2016-06-04T07:53:59Z</time>
      </trkpt>
      <trkpt lat="43.60409" lon="1.19399">
        <ele>221</ele>
        <time>2016-06-04T07:54:01Z</time>
      </trkpt>
      <trkpt lat="43.60408" lon="1.19399">
        <ele>221</ele>
        <time>2016-06-04T07:54:02Z</time>
      </trkpt>
      <trkpt lat="43.60404" lon="1.19398">
        <ele>221</ele>
        <time>2016-06-04T07:54:04Z</time>
      </trkpt>
      <trkpt lat="43.604" lon="1.19399">
        <ele>222</ele>
        <time>2016-06-04T07:54:06Z</time>
      </trkpt>
      <trkpt lat="43.60398" lon="1.19398">
        <ele>222</ele>
        <time>2016-06-04T07:54:08Z</time>
      </trkpt>
      <trkpt lat="43.60395" lon="1.19398">
        <ele>222</ele>
        <time>2016-06-04T07:54:10Z</time>
      </trkpt>
      <trkpt lat="43.60389" lon="1.19396">
        <ele>223</ele>
        <time>2016-06-04T07:54:14Z</time>
      </trkpt>
      <trkpt lat="43.60385" lon="1.19395">
        <ele>223</ele>
        <time>2016-06-04T07:54:16Z</time>
      </trkpt>
      <trkpt lat="43.60383" lon="1.19395">
        <ele>224</ele>
        <time>2016-06-04T07:54:18Z</time>
      </trkpt>
      <trkpt lat="43.6038" lon="1.19393">
        <ele>224</ele>
        <time>2016-06-04T07:54:20Z</time>
      </trkpt>
      <trkpt lat="43.60377" lon="1.19392">
        <ele>224</ele>
        <time>2016-06-04T07:54:22Z</time>
      </trkpt>
      <trkpt lat="43.60375" lon="1.19389">
        <ele>225</ele>
        <time>2016-06-04T07:54:24Z</time>
      </trkpt>
      <trkpt lat="43.60372" lon="1.19386">
        <ele>225</ele>
        <time>2016-06-04T07:54:26Z</time>
      </trkpt>
      <trkpt lat="43.6037" lon="1.19385">
        <ele>226</ele>
        <time>2016-06-04T07:54:28Z</time>
      </trkpt>
      <trkpt lat="43.6036" lon="1.19379">
        <ele>227</ele>
        <time>2016-06-04T07:54:34Z</time>
      </trkpt>
      <trkpt lat="43.60358" lon="1.19378">
        <ele>228</ele>
        <time>2016-06-04T07:54:35Z</time>
      </trkpt>
      <trkpt lat="43.60357" lon="1.19377">
        <ele>228</ele>
        <time>2016-06-04T07:54:37Z</time>
      </trkpt>
      <trkpt lat="43.60356" lon="1.19376">
        <ele>228</ele>
        <time>2016-06-04T07:54:38Z</time>
      </trkpt>
      <trkpt lat="43.60354" lon="1.19376">
        <ele>229</ele>
        <time>2016-06-04T07:54:40Z</time>
      </trkpt>
      <trkpt lat="43.60351" lon="1.19376">
        <ele>229</ele>
        <time>2016-06-04T07:54:42Z</time>
      </trkpt>
      <trkpt lat="43.6035" lon="1.19376">
        <ele>229</ele>
        <time>2016-06-04T07:54:43Z</time>
      </trkpt>
      <trkpt lat="43.60349" lon="1.19376">
        <ele>230</ele>
        <time>2016-06-04T07:54:44Z</time>
      </trkpt>
      <trkpt lat="43.60347" lon="1.19375">
        <ele>230</ele>
        <time>2016-06-04T07:54:46Z</time>
      </trkpt>
      <trkpt lat="43.60345" lon="1.19376">
        <ele>230</ele>
        <time>2016-06-04T07:54:48Z</time>
      </trkpt>
      <trkpt lat="43.60342" lon="1.19374">
        <ele>231</ele>
        <time>2016-06-04T07:54:50Z</time>
      </trkpt>
      <trkpt lat="43.60333" lon="1.19362">
        <ele>231</ele>
        <time>2016-06-04T07:54:56Z</time>
      </trkpt>
      <trkpt lat="43.60331" lon="1.19359">
        <ele>230</ele>
        <time>2016-06-04T07:54:58Z</time>
      </trkpt>
      <trkpt lat="43.60328" lon="1.19358">
        <ele>230</ele>
        <time>2016-06-04T07:55:00Z</time>
      </trkpt>
      <trkpt lat="43.60324" lon="1.19354">
        <ele>230</ele>
        <time>2016-06-04T07:55:02Z</time>
      </trkpt>
      <trkpt lat="43.60322" lon="1.1935">
        <ele>230</ele>
        <time>2016-06-04T07:55:04Z</time>
      </trkpt>
      <trkpt lat="43.6032" lon="1.19349">
        <ele>230</ele>
        <time>2016-06-04T07:55:06Z</time>
      </trkpt>
      <trkpt lat="43.60317" lon="1.19347">
        <ele>230</ele>
        <time>2016-06-04T07:55:08Z</time>
      </trkpt>
      <trkpt lat="43.60302" lon="1.1934">
        <ele>230</ele>
        <time>2016-06-04T07:55:16Z</time>
      </trkpt>
      <trkpt lat="43.60294" lon="1.19338">
        <ele>230</ele>
        <time>2016-06-04T07:55:20Z</time>
      </trkpt>
      <trkpt lat="43.60291" lon="1.19335">
        <ele>230</ele>
        <time>2016-06-04T07:55:22Z</time>
      </trkpt>
      <trkpt lat="43.60288" lon="1.19331">
        <ele>230</ele>
        <time>2016-06-04T07:55:24Z</time>
      </trkpt>
      <trkpt lat="43.60285" lon="1.19329">
        <ele>230</ele>
        <time>2016-06-04T07:55:26Z</time>
      </trkpt>
      <trkpt lat="43.60283" lon="1.19323">
        <ele>230</ele>
        <time>2016-06-04T07:55:28Z</time>
      </trkpt>
      <trkpt lat="43.60281" lon="1.19322">
        <ele>230</ele>
        <time>2016-06-04T07:55:29Z</time>
      </trkpt>
      <trkpt lat="43.60278" lon="1.19321">
        <ele>230</ele>
        <time>2016-06-04T07:55:31Z</time>
      </trkpt>
      <trkpt lat="43.60273" lon="1.19318">
        <ele>230</ele>
        <time>2016-06-04T07:55:34Z</time>
      </trkpt>
      <trkpt lat="43.6027" lon="1.19316">
        <ele>230</ele>
        <time>2016-06-04T07:55:36Z</time>
      </trkpt>
      <trkpt lat="43.60267" lon="1.19316">
        <ele>230</ele>
        <time>2016-06-04T07:55:38Z</time>
      </trkpt>
      <trkpt lat="43.60264" lon="1.19315">
        <ele>230</ele>
        <time>2016-06-04T07:55:40Z</time>
      </trkpt>
      <trkpt lat="43.60262" lon="1.19312">
        <ele>230</ele>
        <time>2016-06-04T07:55:42Z</time>
      </trkpt>
      <trkpt lat="43.60261" lon="1.19311">
        <ele>230</ele>
        <time>2016-06-04T07:55:43Z</time>
      </trkpt>
      <trkpt lat="43.60257" lon="1.19309">
        <ele>230</ele>
        <time>2016-06-04T07:55:45Z</time>
      </trkpt>
      <trkpt lat="43.60253" lon="1.19306">
        <ele>230</ele>
        <time>2016-06-04T07:55:48Z</time>
      </trkpt>
      <trkpt lat="43.60251" lon="1.19305">
        <ele>230</ele>
        <time>2016-06-04T07:55:50Z</time>
      </trkpt>
      <trkpt lat="43.60251" lon="1.19305">
        <ele>230</ele>
        <time>2016-06-04T07:55:51Z</time>
      </trkpt>
      <trkpt lat="43.60249" lon="1.19304">
        <ele>230</ele>
        <time>2016-06-04T07:55:53Z</time>
      </trkpt>
      <trkpt lat="43.60246" lon="1.19303">
        <ele>230</ele>
        <time>2016-06-04T07:55:55Z</time>
      </trkpt>
      <trkpt lat="43.60245" lon="1.19302">
        <ele>230</ele>
        <time>2016-06-04T07:55:56Z</time>
      </trkpt>
      <trkpt lat="43.60243" lon="1.19301">
        <ele>230</ele>
        <time>2016-06-04T07:55:58Z</time>
      </trkpt>
      <trkpt lat="43.60241" lon="1.193">
        <ele>230</ele>
        <time>2016-06-04T07:55:59Z</time>
      </trkpt>
      <trkpt lat="43.60239" lon="1.19298">
        <ele>230</ele>
        <time>2016-06-04T07:56:01Z</time>
      </trkpt>
      <trkpt lat="43.60238" lon="1.19297">
        <ele>230</ele>
        <time>2016-06-04T07:56:02Z</time>
      </trkpt>
      <trkpt lat="43.60235" lon="1.19296">
        <ele>230</ele>
        <time>2016-06-04T07:56:04Z</time>
      </trkpt>
      <trkpt lat="43.60234" lon="1.19294">
        <ele>230</ele>
        <time>2016-06-04T07:56:06Z</time>
      </trkpt>
      <trkpt lat="43.60229" lon="1.19289">
        <ele>230</ele>
        <time>2016-06-04T07:56:08Z</time>
      </trkpt>
      <trkpt lat="43.60227" lon="1.19288">
        <ele>230</ele>
        <time>2016-06-04T07:56:10Z</time>
      </trkpt>
      <trkpt lat="43.60226" lon="1.19288">
        <ele>230</ele>
        <time>2016-06-04T07:56:12Z</time>
      </trkpt>
      <trkpt lat="43.60224" lon="1.19284">
        <ele>230</ele>
        <time>2016-06-04T07:56:14Z</time>
      </trkpt>
      <trkpt lat="43.60222" lon="1.1928">
        <ele>230</ele>
        <time>2016-06-04T07:56:16Z</time>
      </trkpt>
      <trkpt lat="43.60222" lon="1.19278">
        <ele>230</ele>
        <time>2016-06-04T07:56:18Z</time>
      </trkpt>
      <trkpt lat="43.6022" lon="1.19274">
        <ele>230</ele>
        <time>2016-06-04T07:56:20Z</time>
      </trkpt>
      <trkpt lat="43.6022" lon="1.19272">
        <ele>230</ele>
        <time>2016-06-04T07:56:22Z</time>
      </trkpt>
      <trkpt lat="43.60218" lon="1.1927">
        <ele>231</ele>
        <time>2016-06-04T07:56:24Z</time>
      </trkpt>
      <trkpt lat="43.60216" lon="1.19267">
        <ele>231</ele>
        <time>2016-06-04T07:56:26Z</time>
      </trkpt>
      <trkpt lat="43.60214" lon="1.19263">
        <ele>231</ele>
        <time>2016-06-04T07:56:28Z</time>
      </trkpt>
      <trkpt lat="43.60211" lon="1.19261">
        <ele>231</ele>
        <time>2016-06-04T07:56:30Z</time>
      </trkpt>
      <trkpt lat="43.6021" lon="1.1926">
        <ele>231</ele>
        <time>2016-06-04T07:56:31Z</time>
      </trkpt>
      <trkpt lat="43.60207" lon="1.19256">
        <ele>231</ele>
        <time>2016-06-04T07:56:33Z</time>
      </trkpt>
      <trkpt lat="43.60206" lon="1.19255">
        <ele>232</ele>
        <time>2016-06-04T07:56:34Z</time>
      </trkpt>
      <trkpt lat="43.60204" lon="1.19253">
        <ele>232</ele>
        <time>2016-06-04T07:56:36Z</time>
      </trkpt>
      <trkpt lat="43.60202" lon="1.19252">
        <ele>232</ele>
        <time>2016-06-04T07:56:37Z</time>
      </trkpt>
      <trkpt lat="43.60201" lon="1.1925">
        <ele>232</ele>
        <time>2016-06-04T07:56:38Z</time>
      </trkpt>
      <trkpt lat="43.60194" lon="1.19245">
        <ele>232</ele>
        <time>2016-06-04T07:56:42Z</time>
      </trkpt>
      <trkpt lat="43.60191" lon="1.19243">
        <ele>233</ele>
        <time>2016-06-04T07:56:44Z</time>
      </trkpt>
      <trkpt lat="43.6019" lon="1.19241">
        <ele>233</ele>
        <time>2016-06-04T07:56:45Z</time>
      </trkpt>
      <trkpt lat="43.60188" lon="1.1924">
        <ele>233</ele>
        <time>2016-06-04T07:56:47Z</time>
      </trkpt>
      <trkpt lat="43.60186" lon="1.19238">
        <ele>234</ele>
        <time>2016-06-04T07:56:49Z</time>
      </trkpt>
      <trkpt lat="43.60185" lon="1.19237">
        <ele>234</ele>
        <time>2016-06-04T07:56:50Z</time>
      </trkpt>
      <trkpt lat="43.60184" lon="1.19236">
        <ele>234</ele>
        <time>2016-06-04T07:56:52Z</time>
      </trkpt>
      <trkpt lat="43.60183" lon="1.19233">
        <ele>235</ele>
        <time>2016-06-04T07:56:54Z</time>
      </trkpt>
      <trkpt lat="43.60182" lon="1.19231">
        <ele>235</ele>
        <time>2016-06-04T07:56:56Z</time>
      </trkpt>
      <trkpt lat="43.6018" lon="1.19229">
        <ele>235</ele>
        <time>2016-06-04T07:56:58Z</time>
      </trkpt>
      <trkpt lat="43.60178" lon="1.19226">
        <ele>235</ele>
        <time>2016-06-04T07:57:00Z</time>
      </trkpt>
      <trkpt lat="43.60177" lon="1.19224">
        <ele>235</ele>
        <time>2016-06-04T07:57:02Z</time>
      </trkpt>
      <trkpt lat="43.60175" lon="1.19222">
        <ele>236</ele>
        <time>2016-06-04T07:57:04Z</time>
      </trkpt>
      <trkpt lat="43.60172" lon="1.19221">
        <ele>236</ele>
        <time>2016-06-04T07:57:06Z</time>
      </trkpt>
      <trkpt lat="43.60169" lon="1.19218">
        <ele>237</ele>
        <time>2016-06-04T07:57:08Z</time>
      </trkpt>
      <trkpt lat="43.60166" lon="1.19215">
        <ele>237</ele>
        <time>2016-06-04T07:57:10Z</time>
      </trkpt>
      <trkpt lat="43.60164" lon="1.19213">
        <ele>237</ele>
        <time>2016-06-04T07:57:12Z</time>
      </trkpt>
      <trkpt lat="43.6016" lon="1.19211">
        <ele>238</ele>
        <time>2016-06-04T07:57:14Z</time>
      </trkpt>
      <trkpt lat="43.6015" lon="1.19207">
        <ele>239</ele>
        <time>2016-06-04T07:57:20Z</time>
      </trkpt>
      <trkpt lat="43.60144" lon="1.19202">
        <ele>240</ele>
        <time>2016-06-04T07:57:24Z</time>
      </trkpt>
      <trkpt lat="43.60141" lon="1.19199">
        <ele>240</ele>
        <time>2016-06-04T07:57:26Z</time>
      </trkpt>
      <trkpt lat="43.60139" lon="1.19192">
        <ele>241</ele>
        <time>2016-06-04T07:57:28Z</time>
      </trkpt>
      <trkpt lat="43.60136" lon="1.19187">
        <ele>241</ele>
        <time>2016-06-04T07:57:30Z</time>
      </trkpt>
      <trkpt lat="43.60133" lon="1.19183">
        <ele>241</ele>
        <time>2016-06-04T07:57:32Z</time>
      </trkpt>
      <trkpt lat="43.60132" lon="1.19179">
        <ele>241</ele>
        <time>2016-06-04T07:57:34Z</time>
      </trkpt>
      <trkpt lat="43.6013" lon="1.19175">
        <ele>241</ele>
        <time>2016-06-04T07:57:36Z</time>
      </trkpt>
      <trkpt lat="43.60127" lon="1.1917">
        <ele>241</ele>
        <time>2016-06-04T07:57:38Z</time>
      </trkpt>
      <trkpt lat="43.60125" lon="1.19165">
        <ele>241</ele>
        <time>2016-06-04T07:57:40Z</time>
      </trkpt>
      <trkpt lat="43.60123" lon="1.19161">
        <ele>241</ele>
        <time>2016-06-04T07:57:42Z</time>
      </trkpt>
      <trkpt lat="43.60122" lon="1.19158">
        <ele>241</ele>
        <time>2016-06-04T07:57:43Z</time>
      </trkpt>
      <trkpt lat="43.60121" lon="1.19156">
        <ele>241</ele>
        <time>2016-06-04T07:57:44Z</time>
      </trkpt>
      <trkpt lat="43.6012" lon="1.19153">
        <ele>241</ele>
        <time>2016-06-04T07:57:46Z</time>
      </trkpt>
      <trkpt lat="43.60118" lon="1.19151">
        <ele>241</ele>
        <time>2016-06-04T07:57:48Z</time>
      </trkpt>
      <trkpt lat="43.60117" lon="1.19149">
        <ele>241</ele>
        <time>2016-06-04T07:57:49Z</time>
      </trkpt>
      <trkpt lat="43.60112" lon="1.19143">
        <ele>241</ele>
        <time>2016-06-04T07:57:52Z</time>
      </trkpt>
      <trkpt lat="43.6011" lon="1.19139">
        <ele>241</ele>
        <time>2016-06-04T07:57:54Z</time>
      </trkpt>
      <trkpt lat="43.60107" lon="1.19135">
        <ele>241</ele>
        <time>2016-06-04T07:57:56Z</time>
      </trkpt>
      <trkpt lat="43.60104" lon="1.19133">
        <ele>241</ele>
        <time>2016-06-04T07:57:58Z</time>
      </trkpt>
      <trkpt lat="43.60101" lon="1.1913">
        <ele>241</ele>
        <time>2016-06-04T07:58:00Z</time>
      </trkpt>
      <trkpt lat="43.601" lon="1.1913">
        <ele>241</ele>
        <time>2016-06-04T07:58:01Z</time>
      </trkpt>
      <trkpt lat="43.60099" lon="1.19128">
        <ele>241</ele>
        <time>2016-06-04T07:58:02Z</time>
      </trkpt>
      <trkpt lat="43.60097" lon="1.19124">
        <ele>241</ele>
        <time>2016-06-04T07:58:04Z</time>
      </trkpt>
      <trkpt lat="43.60094" lon="1.1912">
        <ele>241</ele>
        <time>2016-06-04T07:58:06Z</time>
      </trkpt>
      <trkpt lat="43.60093" lon="1.19118">
        <ele>241</ele>
        <time>2016-06-04T07:58:07Z</time>
      </trkpt>
      <trkpt lat="43.60091" lon="1.19116">
        <ele>241</ele>
        <time>2016-06-04T07:58:08Z</time>
      </trkpt>
      <trkpt lat="43.60089" lon="1.19114">
        <ele>241</ele>
        <time>2016-06-04T07:58:10Z</time>
      </trkpt>
      <trkpt lat="43.60087" lon="1.19113">
        <ele>241</ele>
        <time>2016-06-04T07:58:12Z</time>
      </trkpt>
      <trkpt lat="43.60086" lon="1.19113">
        <ele>241</ele>
        <time>2016-06-04T07:58:13Z</time>
      </trkpt>
      <trkpt lat="43.60085" lon="1.191">
        <ele>241</ele>
        <time>2016-06-04T07:58:16Z</time>
      </trkpt>
      <trkpt lat="43.60082" lon="1.191">
        <ele>241</ele>
        <time>2016-06-04T07:58:18Z</time>
      </trkpt>
      <trkpt lat="43.60077" lon="1.19095">
        <ele>240</ele>
        <time>2016-06-04T07:58:22Z</time>
      </trkpt>
      <trkpt lat="43.60081" lon="1.19084">
        <ele>240</ele>
        <time>2016-06-04T07:58:26Z</time>
      </trkpt>
      <trkpt lat="43.60082" lon="1.1908">
        <ele>240</ele>
        <time>2016-06-04T07:58:28Z</time>
      </trkpt>
      <trkpt lat="43.60082" lon="1.19076">
        <ele>240</ele>
        <time>2016-06-04T07:58:30Z</time>
      </trkpt>
      <trkpt lat="43.60081" lon="1.19075">
        <ele>239</ele>
        <time>2016-06-04T07:58:31Z</time>
      </trkpt>
      <trkpt lat="43.6008" lon="1.19076">
        <ele>239</ele>
        <time>2016-06-04T07:58:33Z</time>
      </trkpt>
      <trkpt lat="43.60079" lon="1.19076">
        <ele>239</ele>
        <time>2016-06-04T07:58:34Z</time>
      </trkpt>
      <trkpt lat="43.60078" lon="1.19075">
        <ele>239</ele>
        <time>2016-06-04T07:58:36Z</time>
      </trkpt>
      <trkpt lat="43.60077" lon="1.19076">
        <ele>240</ele>
        <time>2016-06-04T07:58:37Z</time>
      </trkpt>
      <trkpt lat="43.60076" lon="1.19077">
        <ele>240</ele>
        <time>2016-06-04T07:58:38Z</time>
      </trkpt>
      <trkpt lat="43.60075" lon="1.19078">
        <ele>240</ele>
        <time>2016-06-04T07:58:40Z</time>
      </trkpt>
      <trkpt lat="43.60074" lon="1.1908">
        <ele>240</ele>
        <time>2016-06-04T07:58:42Z</time>
      </trkpt>
      <trkpt lat="43.60071" lon="1.1908">
        <ele>240</ele>
        <time>2016-06-04T07:58:43Z</time>
      </trkpt>
      <trkpt lat="43.6007" lon="1.19081">
        <ele>240</ele>
        <time>2016-06-04T07:58:45Z</time>
      </trkpt>
      <trkpt lat="43.6007" lon="1.19082">
        <ele>240</ele>
        <time>2016-06-04T07:58:46Z</time>
      </trkpt>
      <trkpt lat="43.60069" lon="1.19083">
        <ele>240</ele>
        <time>2016-06-04T07:58:48Z</time>
      </trkpt>
      <trkpt lat="43.60067" lon="1.19083">
        <ele>240</ele>
        <time>2016-06-04T07:58:49Z</time>
      </trkpt>
      <trkpt lat="43.60067" lon="1.19083">
        <ele>240</ele>
        <time>2016-06-04T07:58:50Z</time>
      </trkpt>
      <trkpt lat="43.60063" lon="1.19085">
        <ele>240</ele>
        <time>2016-06-04T07:58:52Z</time>
      </trkpt>
      <trkpt lat="43.60061" lon="1.19086">
        <ele>240</ele>
        <time>2016-06-04T07:58:54Z</time>
      </trkpt>
      <trkpt lat="43.6006" lon="1.19086">
        <ele>240</ele>
        <time>2016-06-04T07:58:55Z</time>
      </trkpt>
      <trkpt lat="43.60059" lon="1.19087">
        <ele>240</ele>
        <time>2016-06-04T07:58:56Z</time>
      </trkpt>
      <trkpt lat="43.60051" lon="1.1909">
        <ele>240</ele>
        <time>2016-06-04T07:59:01Z</time>
      </trkpt>
      <trkpt lat="43.6005" lon="1.19091">
        <ele>240</ele>
        <time>2016-06-04T07:59:02Z</time>
      </trkpt>
      <trkpt lat="43.60043" lon="1.19092">
        <ele>240</ele>
        <time>2016-06-04T07:59:04Z</time>
      </trkpt>
      <trkpt lat="43.60038" lon="1.19094">
        <ele>239</ele>
        <time>2016-06-04T07:59:07Z</time>
      </trkpt>
      <trkpt lat="43.60031" lon="1.19095">
        <ele>239</ele>
        <time>2016-06-04T07:59:10Z</time>
      </trkpt>
      <trkpt lat="43.6001" lon="1.19102">
        <ele>239</ele>
        <time>2016-06-04T07:59:16Z</time>
      </trkpt>
      <trkpt lat="43.60008" lon="1.19101">
        <ele>238</ele>
        <time>2016-06-04T07:59:18Z</time>
      </trkpt>
      <trkpt lat="43.60004" lon="1.19099">
        <ele>238</ele>
        <time>2016-06-04T07:59:19Z</time>
      </trkpt>
      <trkpt lat="43.59998" lon="1.19096">
        <ele>238</ele>
        <time>2016-06-04T07:59:21Z</time>
      </trkpt>
      <trkpt lat="43.59997" lon="1.19096">
        <ele>238</ele>
        <time>2016-06-04T07:59:22Z</time>
      </trkpt>
      <trkpt lat="43.59995" lon="1.19098">
        <ele>238</ele>
        <time>2016-06-04T07:59:24Z</time>
      </trkpt>
      <trkpt lat="43.59992" lon="1.19099">
        <ele>237</ele>
        <time>2016-06-04T07:59:26Z</time>
      </trkpt>
      <trkpt lat="43.59986" lon="1.19098">
        <ele>237</ele>
        <time>2016-06-04T07:59:30Z</time>
      </trkpt>
      <trkpt lat="43.59979" lon="1.19097">
        <ele>236</ele>
        <time>2016-06-04T07:59:34Z</time>
      </trkpt>
      <trkpt lat="43.59976" lon="1.19098">
        <ele>235</ele>
        <time>2016-06-04T07:59:36Z</time>
      </trkpt>
      <trkpt lat="43.59974" lon="1.19095">
        <ele>235</ele>
        <time>2016-06-04T07:59:38Z</time>
      </trkpt>
      <trkpt lat="43.59971" lon="1.19095">
        <ele>234</ele>
        <time>2016-06-04T07:59:40Z</time>
      </trkpt>
      <trkpt lat="43.59967" lon="1.19093">
        <ele>234</ele>
        <time>2016-06-04T07:59:42Z</time>
      </trkpt>
      <trkpt lat="43.59962" lon="1.19091">
        <ele>233</ele>
        <time>2016-06-04T07:59:44Z</time>
      </trkpt>
      <trkpt lat="43.5996" lon="1.19089">
        <ele>233</ele>
        <time>2016-06-04T07:59:46Z</time>
      </trkpt>
      <trkpt lat="43.59958" lon="1.19088">
        <ele>232</ele>
        <time>2016-06-04T07:59:48Z</time>
      </trkpt>
      <trkpt lat="43.59956" lon="1.19085">
        <ele>231</ele>
        <time>2016-06-04T07:59:50Z</time>
      </trkpt>
      <trkpt lat="43.59953" lon="1.19085">
        <ele>231</ele>
        <time>2016-06-04T07:59:52Z</time>
      </trkpt>
      <trkpt lat="43.59951" lon="1.19084">
        <ele>231</ele>
        <time>2016-06-04T07:59:54Z</time>
      </trkpt>
      <trkpt lat="43.59948" lon="1.19084">
        <ele>231</ele>
        <time>2016-06-04T07:59:56Z</time>
      </trkpt>
      <trkpt lat="43.59945" lon="1.19083">
        <ele>231</ele>
        <time>2016-06-04T07:59:58Z</time>
      </trkpt>
      <trkpt lat="43.59942" lon="1.19082">
        <ele>230</ele>
        <time>2016-06-04T08:00:00Z</time>
      </trkpt>
      <trkpt lat="43.59939" lon="1.19081">
        <ele>230</ele>
        <time>2016-06-04T08:00:02Z</time>
      </trkpt>
      <trkpt lat="43.59937" lon="1.19082">
        <ele>230</ele>
        <time>2016-06-04T08:00:04Z</time>
      </trkpt>
      <trkpt lat="43.59935" lon="1.19081">
        <ele>230</ele>
        <time>2016-06-04T08:00:06Z</time>
      </trkpt>
      <trkpt lat="43.59933" lon="1.19081">
        <ele>230</ele>
        <time>2016-06-04T08:00:07Z</time>
      </trkpt>
      <trkpt lat="43.59924" lon="1.1908">
        <ele>229</ele>
        <time>2016-06-04T08:00:12Z</time>
      </trkpt>
      <trkpt lat="43.59921" lon="1.1908">
        <ele>229</ele>
        <time>2016-06-04T08:00:14Z</time>
      </trkpt>
      <trkpt lat="43.59918" lon="1.19081">
        <ele>229</ele>
        <time>2016-06-04T08:00:16Z</time>
      </trkpt>
      <trkpt lat="43.59905" lon="1.19086">
        <ele>228</ele>
        <time>2016-06-04T08:00:22Z</time>
      </trkpt>
      <trkpt lat="43.59902" lon="1.19088">
        <ele>228</ele>
        <time>2016-06-04T08:00:24Z</time>
      </trkpt>
      <trkpt lat="43.59885" lon="1.19092">
        <ele>226</ele>
        <time>2016-06-04T08:00:32Z</time>
      </trkpt>
      <trkpt lat="43.59883" lon="1.19091">
        <ele>226</ele>
        <time>2016-06-04T08:00:34Z</time>
      </trkpt>
      <trkpt lat="43.59882" lon="1.1909">
        <ele>226</ele>
        <time>2016-06-04T08:00:36Z</time>
      </trkpt>
      <trkpt lat="43.59882" lon="1.1909">
        <ele>226</ele>
        <time>2016-06-04T08:00:37Z</time>
      </trkpt>
      <trkpt lat="43.59882" lon="1.19089">
        <ele>226</ele>
        <time>2016-06-04T08:00:38Z</time>
      </trkpt>
      <trkpt lat="43.59882" lon="1.19088">
        <ele>226</ele>
        <time>2016-06-04T08:00:40Z</time>
      </trkpt>
      <trkpt lat="43.59882" lon="1.19086">
        <ele>226</ele>
        <time>2016-06-04T08:00:42Z</time>
      </trkpt>
      <trkpt lat="43.59883" lon="1.19085">
        <ele>226</ele>
        <time>2016-06-04T08:00:44Z</time>
      </trkpt>
      <trkpt lat="43.59882" lon="1.19084">
        <ele>226</ele>
        <time>2016-06-04T08:00:46Z</time>
      </trkpt>
      <trkpt lat="43.59882" lon="1.19081">
        <ele>226</ele>
        <time>2016-06-04T08:00:48Z</time>
      </trkpt>
      <trkpt lat="43.59882" lon="1.19078">
        <ele>226</ele>
        <time>2016-06-04T08:00:50Z</time>
      </trkpt>
      <trkpt lat="43.59882" lon="1.19075">
        <ele>226</ele>
        <time>2016-06-04T08:00:52Z</time>
      </trkpt>
      <trkpt lat="43.59882" lon="1.19071">
        <ele>226</ele>
        <time>2016-06-04T08:00:54Z</time>
      </trkpt>
      <trkpt lat="43.59883" lon="1.19066">
        <ele>225</ele>
        <time>2016-06-04T08:00:56Z</time>
      </trkpt>
      <trkpt lat="43.59883" lon="1.19064">
        <ele>225</ele>
        <time>2016-06-04T08:00:58Z</time>
      </trkpt>
      <trkpt lat="43.59884" lon="1.19062">
        <ele>225</ele>
        <time>2016-06-04T08:01:00Z</time>
      </trkpt>
      <trkpt lat="43.59884" lon="1.19058">
        <ele>225</ele>
        <time>2016-06-04T08:01:02Z</time>
      </trkpt>
      <trkpt lat="43.59884" lon="1.19056">
        <ele>225</ele>
        <time>2016-06-04T08:01:04Z</time>
      </trkpt>
      <trkpt lat="43.59884" lon="1.19053">
        <ele>225</ele>
        <time>2016-06-04T08:01:06Z</time>
      </trkpt>
      <trkpt lat="43.59884" lon="1.19053">
        <ele>225</ele>
        <time>2016-06-04T08:01:07Z</time>
      </trkpt>
      <trkpt lat="43.59885" lon="1.19052">
        <ele>225</ele>
        <time>2016-06-04T08:01:08Z</time>
      </trkpt>
      <trkpt lat="43.59886" lon="1.1905">
        <ele>225</ele>
        <time>2016-06-04T08:01:10Z</time>
      </trkpt>
      <trkpt lat="43.59888" lon="1.19048">
        <ele>225</ele>
        <time>2016-06-04T08:01:12Z</time>
      </trkpt>
      <trkpt lat="43.5989" lon="1.19044">
        <ele>225</ele>
        <time>2016-06-04T08:01:14Z</time>
      </trkpt>
      <trkpt lat="43.59893" lon="1.1904">
        <ele>226</ele>
        <time>2016-06-04T08:01:16Z</time>
      </trkpt>
      <trkpt lat="43.59892" lon="1.19034">
        <ele>226</ele>
        <time>2016-06-04T08:01:18Z</time>
      </trkpt>
      <trkpt lat="43.59889" lon="1.19027">
        <ele>225</ele>
        <time>2016-06-04T08:01:20Z</time>
      </trkpt>
      <trkpt lat="43.59889" lon="1.19012">
        <ele>224</ele>
        <time>2016-06-04T08:01:24Z</time>
      </trkpt>
      <trkpt lat="43.59889" lon="1.19002">
        <ele>222</ele>
        <time>2016-06-04T08:01:26Z</time>
      </trkpt>
      <trkpt lat="43.59887" lon="1.18991">
        <ele>221</ele>
        <time>2016-06-04T08:01:28Z</time>
      </trkpt>
      <trkpt lat="43.59888" lon="1.18983">
        <ele>220</ele>
        <time>2016-06-04T08:01:30Z</time>
      </trkpt>
      <trkpt lat="43.5989" lon="1.18978">
        <ele>219</ele>
        <time>2016-06-04T08:01:32Z</time>
      </trkpt>
      <trkpt lat="43.59893" lon="1.18973">
        <ele>217</ele>
        <time>2016-06-04T08:01:34Z</time>
      </trkpt>
      <trkpt lat="43.59895" lon="1.18969">
        <ele>217</ele>
        <time>2016-06-04T08:01:36Z</time>
      </trkpt>
      <trkpt lat="43.59898" lon="1.18964">
        <ele>216</ele>
        <time>2016-06-04T08:01:38Z</time>
      </trkpt>
      <trkpt lat="43.59901" lon="1.1896">
        <ele>215</ele>
        <time>2016-06-04T08:01:40Z</time>
      </trkpt>
      <trkpt lat="43.59901" lon="1.18958">
        <ele>215</ele>
        <time>2016-06-04T08:01:41Z</time>
      </trkpt>
      <trkpt lat="43.59904" lon="1.18954">
        <ele>214</ele>
        <time>2016-06-04T08:01:43Z</time>
      </trkpt>
      <trkpt lat="43.59905" lon="1.1895">
        <ele>214</ele>
        <time>2016-06-04T08:01:45Z</time>
      </trkpt>
      <trkpt lat="43.59907" lon="1.18945">
        <ele>213</ele>
        <time>2016-06-04T08:01:47Z</time>
      </trkpt>
      <trkpt lat="43.59909" lon="1.18941">
        <ele>213</ele>
        <time>2016-06-04T08:01:49Z</time>
      </trkpt>
      <trkpt lat="43.59909" lon="1.18939">
        <ele>212</ele>
        <time>2016-06-04T08:01:50Z</time>
      </trkpt>
      <trkpt lat="43.59911" lon="1.18935">
        <ele>212</ele>
        <time>2016-06-04T08:01:52Z</time>
      </trkpt>
      <trkpt lat="43.59913" lon="1.18932">
        <ele>211</ele>
        <time>2016-06-04T08:01:54Z</time>
      </trkpt>
      <trkpt lat="43.59915" lon="1.18928">
        <ele>211</ele>
        <time>2016-06-04T08:01:56Z</time>
      </trkpt>
      <trkpt lat="43.59917" lon="1.18925">
        <ele>211</ele>
        <time>2016-06-04T08:01:57Z</time>
      </trkpt>
      <trkpt lat="43.59919" lon="1.18921">
        <ele>210</ele>
        <time>2016-06-04T08:01:59Z</time>
      </trkpt>
      <trkpt lat="43.59921" lon="1.18917">
        <ele>210</ele>
        <time>2016-06-04T08:02:01Z</time>
      </trkpt>
      <trkpt lat="43.59922" lon="1.18915">
        <ele>209</ele>
        <time>2016-06-04T08:02:02Z</time>
      </trkpt>
      <trkpt lat="43.59923" lon="1.18913">
        <ele>209</ele>
        <time>2016-06-04T08:02:03Z</time>
      </trkpt>
      <trkpt lat="43.59925" lon="1.18909">
        <ele>208</ele>
        <time>2016-06-04T08:02:05Z</time>
      </trkpt>
      <trkpt lat="43.59927" lon="1.18906">
        <ele>208</ele>
        <time>2016-06-04T08:02:07Z</time>
      </trkpt>
      <trkpt lat="43.59928" lon="1.18904">
        <ele>207</ele>
        <time>2016-06-04T08:02:08Z</time>
      </trkpt>
      <trkpt lat="43.5993" lon="1.189">
        <ele>207</ele>
        <time>2016-06-04T08:02:10Z</time>
      </trkpt>
      <trkpt lat="43.59932" lon="1.18896">
        <ele>207</ele>
        <time>2016-06-04T08:02:12Z</time>
      </trkpt>
      <trkpt lat="43.59932" lon="1.18894">
        <ele>206</ele>
        <time>2016-06-04T08:02:13Z</time>
      </trkpt>
      <trkpt lat="43.59933" lon="1.18892">
        <ele>206</ele>
        <time>2016-06-04T08:02:14Z</time>
      </trkpt>
      <trkpt lat="43.59935" lon="1.18889">
        <ele>205</ele>
        <time>2016-06-04T08:02:16Z</time>
      </trkpt>
      <trkpt lat="43.59936" lon="1.18884">
        <ele>205</ele>
        <time>2016-06-04T08:02:18Z</time>
      </trkpt>
      <trkpt lat="43.59937" lon="1.18882">
        <ele>205</ele>
        <time>2016-06-04T08:02:19Z</time>
      </trkpt>
      <trkpt lat="43.59937" lon="1.1888">
        <ele>204</ele>
        <time>2016-06-04T08:02:20Z</time>
      </trkpt>
      <trkpt lat="43.59939" lon="1.18876">
        <ele>204</ele>
        <time>2016-06-04T08:02:22Z</time>
      </trkpt>
      <trkpt lat="43.5994" lon="1.18872">
        <ele>204</ele>
        <time>2016-06-04T08:02:24Z</time>
      </trkpt>
      <trkpt lat="43.59942" lon="1.18871">
        <ele>203</ele>
        <time>2016-06-04T08:02:25Z</time>
      </trkpt>
      <trkpt lat="43.59942" lon="1.18868">
        <ele>203</ele>
        <time>2016-06-04T08:02:26Z</time>
      </trkpt>
      <trkpt lat="43.59944" lon="1.18865">
        <ele>203</ele>
        <time>2016-06-04T08:02:28Z</time>
      </trkpt>
      <trkpt lat="43.59946" lon="1.18861">
        <ele>203</ele>
        <time>2016-06-04T08:02:30Z</time>
      </trkpt>
      <trkpt lat="43.59949" lon="1.18857">
        <ele>202</ele>
        <time>2016-06-04T08:02:32Z</time>
      </trkpt>
      <trkpt lat="43.59951" lon="1.18853">
        <ele>202</ele>
        <time>2016-06-04T08:02:34Z</time>
      </trkpt>
      <trkpt lat="43.59953" lon="1.18849">
        <ele>202</ele>
        <time>2016-06-04T08:02:36Z</time>
      </trkpt>
      <trkpt lat="43.59954" lon="1.18847">
        <ele>201</ele>
        <time>2016-06-04T08:02:37Z</time>
      </trkpt>
      <trkpt lat="43.59955" lon="1.18845">
        <ele>201</ele>
        <time>2016-06-04T08:02:38Z</time>
      </trkpt>
      <trkpt lat="43.59957" lon="1.18841">
        <ele>201</ele>
        <time>2016-06-04T08:02:40Z</time>
      </trkpt>
      <trkpt lat="43.59958" lon="1.18837">
        <ele>200</ele>
        <time>2016-06-04T08:02:42Z</time>
      </trkpt>
      <trkpt lat="43.59959" lon="1.18835">
        <ele>200</ele>
        <time>2016-06-04T08:02:43Z</time>
      </trkpt>
      <trkpt lat="43.59959" lon="1.18833">
        <ele>200</ele>
        <time>2016-06-04T08:02:44Z</time>
      </trkpt>
      <trkpt lat="43.59961" lon="1.1883">
        <ele>200</ele>
        <time>2016-06-04T08:02:46Z</time>
      </trkpt>
      <trkpt lat="43.59963" lon="1.18826">
        <ele>200</ele>
        <time>2016-06-04T08:02:48Z</time>
      </trkpt>
      <trkpt lat="43.59964" lon="1.18822">
        <ele>199</ele>
        <time>2016-06-04T08:02:50Z</time>
      </trkpt>
      <trkpt lat="43.59965" lon="1.1882">
        <ele>199</ele>
        <time>2016-06-04T08:02:51Z</time>
      </trkpt>
      <trkpt lat="43.59967" lon="1.18817">
        <ele>199</ele>
        <time>2016-06-04T08:02:53Z</time>
      </trkpt>
      <trkpt lat="43.59967" lon="1.18815">
        <ele>199</ele>
        <time>2016-06-04T08:02:54Z</time>
      </trkpt>
      <trkpt lat="43.59969" lon="1.18811">
        <ele>199</ele>
        <time>2016-06-04T08:02:56Z</time>
      </trkpt>
      <trkpt lat="43.59971" lon="1.18807">
        <ele>199</ele>
        <time>2016-06-04T08:02:58Z</time>
      </trkpt>
      <trkpt lat="43.59973" lon="1.18803">
        <ele>198</ele>
        <time>2016-06-04T08:03:00Z</time>
      </trkpt>
      <trkpt lat="43.59975" lon="1.18798">
        <ele>198</ele>
        <time>2016-06-04T08:03:02Z</time>
      </trkpt>
      <trkpt lat="43.59977" lon="1.18795">
        <ele>198</ele>
        <time>2016-06-04T08:03:04Z</time>
      </trkpt>
      <trkpt lat="43.59978" lon="1.1879">
        <ele>197</ele>
        <time>2016-06-04T08:03:06Z</time>
      </trkpt>
      <trkpt lat="43.59979" lon="1.18788">
        <ele>197</ele>
        <time>2016-06-04T08:03:07Z</time>
      </trkpt>
      <trkpt lat="43.5998" lon="1.18786">
        <ele>197</ele>
        <time>2016-06-04T08:03:08Z</time>
      </trkpt>
      <trkpt lat="43.59982" lon="1.18782">
        <ele>197</ele>
        <time>2016-06-04T08:03:10Z</time>
      </trkpt>
      <trkpt lat="43.59985" lon="1.18778">
        <ele>196</ele>
        <time>2016-06-04T08:03:12Z</time>
      </trkpt>
      <trkpt lat="43.59987" lon="1.18775">
        <ele>196</ele>
        <time>2016-06-04T08:03:14Z</time>
      </trkpt>
      <trkpt lat="43.59988" lon="1.18771">
        <ele>196</ele>
        <time>2016-06-04T08:03:16Z</time>
      </trkpt>
      <trkpt lat="43.59989" lon="1.18769">
        <ele>196</ele>
        <time>2016-06-04T08:03:17Z</time>
      </trkpt>
      <trkpt lat="43.5999" lon="1.18768">
        <ele>196</ele>
        <time>2016-06-04T08:03:18Z</time>
      </trkpt>
      <trkpt lat="43.59992" lon="1.18765">
        <ele>195</ele>
        <time>2016-06-04T08:03:20Z</time>
      </trkpt>
      <trkpt lat="43.59993" lon="1.18761">
        <ele>195</ele>
        <time>2016-06-04T08:03:22Z</time>
      </trkpt>
      <trkpt lat="43.59995" lon="1.18758">
        <ele>195</ele>
        <time>2016-06-04T08:03:24Z</time>
      </trkpt>
      <trkpt lat="43.59997" lon="1.18754">
        <ele>195</ele>
        <time>2016-06-04T08:03:26Z</time>
      </trkpt>
      <trkpt lat="43.59998" lon="1.18751">
        <ele>195</ele>
        <time>2016-06-04T08:03:28Z</time>
      </trkpt>
      <trkpt lat="43.59999" lon="1.18748">
        <ele>195</ele>
        <time>2016-06-04T08:03:30Z</time>
      </trkpt>
      <trkpt lat="43.59998" lon="1.18749">
        <ele>195</ele>
        <time>2016-06-04T08:03:31Z</time>
      </trkpt>
      <trkpt lat="43.59997" lon="1.18751">
        <ele>195</ele>
        <time>2016-06-04T08:03:33Z</time>
      </trkpt>
      <trkpt lat="43.59996" lon="1.18751">
        <ele>195</ele>
        <time>2016-06-04T08:03:36Z</time>
      </trkpt>
      <trkpt lat="43.59996" lon="1.18751">
        <ele>195</ele>
        <time>2016-06-04T08:03:38Z</time>
      </trkpt>
      <trkpt lat="43.59996" lon="1.18751">
        <ele>195</ele>
        <time>2016-06-04T08:04:02Z</time>
      </trkpt>
      <trkpt lat="43.59996" lon="1.18751">
        <ele>195</ele>
        <time>2016-06-04T08:04:04Z</time>
      </trkpt>
      <trkpt lat="43.59996" lon="1.18751">
        <ele>195</ele>
        <time>2016-06-04T08:04:33Z</time>
      </trkpt>
      <trkpt lat="43.59996" lon="1.18751">
        <ele>195</ele>
        <time>2016-06-04T08:04:34Z</time>
      </trkpt>
      <trkpt lat="43.59996" lon="1.18751">
        <ele>195</ele>
        <time>2016-06-04T08:04:48Z</time>
      </trkpt>
      <trkpt lat="43.59996" lon="1.18751">
        <ele>195</ele>
        <time>2016-06-04T08:04:50Z</time>
      </trkpt>
      <trkpt lat="43.59996" lon="1.18751">
        <ele>195</ele>
        <time>2016-06-04T08:05:19Z</time>
      </trkpt>
      <trkpt lat="43.59996" lon="1.18751">
        <ele>195</ele>
        <time>2016-06-04T08:05:20Z</time>
      </trkpt>
      <trkpt lat="43.59997" lon="1.18738">
        <ele>189</ele>
        <time>2016-06-04T08:06:18Z</time>
      </trkpt>
      <trkpt lat="43.59997" lon="1.18738">
        <ele>190</ele>
        <time>2016-06-04T08:06:20Z</time>
      </trkpt>
      <trkpt lat="43.59997" lon="1.18738">
        <ele>190</ele>
        <time>2016-06-04T08:06:48Z</time>
      </trkpt>
      <trkpt lat="43.59997" lon="1.18738">
        <ele>190</ele>
        <time>2016-06-04T08:06:50Z</time>
      </trkpt>
      <trkpt lat="43.59997" lon="1.18738">
        <ele>190</ele>
        <time>2016-06-04T08:07:19Z</time>
      </trkpt>
      <trkpt lat="43.59997" lon="1.18738">
        <ele>190</ele>
        <time>2016-06-04T08:07:20Z</time>
      </trkpt>
      <trkpt lat="43.59998" lon="1.18745">
        <ele>190</ele>
        <time>2016-06-04T08:07:46Z</time>
      </trkpt>
      <trkpt lat="43.6" lon="1.18746">
        <ele>190</ele>
        <time>2016-06-04T08:07:48Z</time>
      </trkpt>
      <trkpt lat="43.6" lon="1.18746">
        <ele>191</ele>
        <time>2016-06-04T08:07:50Z</time>
      </trkpt>
      <trkpt lat="43.60001" lon="1.18746">
        <ele>191</ele>
        <time>2016-06-04T08:07:52Z</time>
      </trkpt>
      <trkpt lat="43.60002" lon="1.18745">
        <ele>191</ele>
        <time>2016-06-04T08:08:02Z</time>
      </trkpt>
      <trkpt lat="43.60001" lon="1.18744">
        <ele>191</ele>
        <time>2016-06-04T08:08:04Z</time>
      </trkpt>
      <trkpt lat="43.60001" lon="1.18743">
        <ele>191</ele>
        <time>2016-06-04T08:08:05Z</time>
      </trkpt>
      <trkpt lat="43.60001" lon="1.18743">
        <ele>191</ele>
        <time>2016-06-04T08:08:07Z</time>
      </trkpt>
      <trkpt lat="43.60001" lon="1.18742">
        <ele>191</ele>
        <time>2016-06-04T08:08:08Z</time>
      </trkpt>
      <trkpt lat="43.60001" lon="1.18742">
        <ele>191</ele>
        <time>2016-06-04T08:08:10Z</time>
      </trkpt>
      <trkpt lat="43.60001" lon="1.18742">
        <ele>191</ele>
        <time>2016-06-04T08:08:33Z</time>
      </trkpt>
      <trkpt lat="43.59993" lon="1.18743">
        <ele>191</ele>
        <time>2016-06-04T08:08:37Z</time>
      </trkpt>
      <trkpt lat="43.6" lon="1.1874">
        <ele>191</ele>
        <time>2016-06-04T08:08:39Z</time>
      </trkpt>
      <trkpt lat="43.59999" lon="1.1874">
        <ele>191</ele>
        <time>2016-06-04T08:08:41Z</time>
      </trkpt>
      <trkpt lat="43.59999" lon="1.18739">
        <ele>191</ele>
        <time>2016-06-04T08:08:43Z</time>
      </trkpt>
      <trkpt lat="43.59999" lon="1.18739">
        <ele>190</ele>
        <time>2016-06-04T08:09:04Z</time>
      </trkpt>
      <trkpt lat="43.60012" lon="1.18737">
        <ele>190</ele>
        <time>2016-06-04T08:09:07Z</time>
      </trkpt>
      <trkpt lat="43.60008" lon="1.18738">
        <ele>190</ele>
        <time>2016-06-04T08:09:09Z</time>
      </trkpt>
      <trkpt lat="43.60008" lon="1.18737">
        <ele>190</ele>
        <time>2016-06-04T08:09:10Z</time>
      </trkpt>
      <trkpt lat="43.60008" lon="1.18737">
        <ele>190</ele>
        <time>2016-06-04T08:09:11Z</time>
      </trkpt>
      <trkpt lat="43.60008" lon="1.18737">
        <ele>191</ele>
        <time>2016-06-04T08:09:13Z</time>
      </trkpt>
      <trkpt lat="43.60008" lon="1.18738">
        <ele>191</ele>
        <time>2016-06-04T08:09:14Z</time>
      </trkpt>
      <trkpt lat="43.60008" lon="1.18738">
        <ele>192</ele>
        <time>2016-06-04T08:09:33Z</time>
      </trkpt>
      <trkpt lat="43.60008" lon="1.18738">
        <ele>192</ele>
        <time>2016-06-04T08:09:35Z</time>
      </trkpt>
      <trkpt lat="43.60008" lon="1.18738">
        <ele>192</ele>
        <time>2016-06-04T08:10:03Z</time>
      </trkpt>
      <trkpt lat="43.60008" lon="1.18738">
        <ele>192</ele>
        <time>2016-06-04T08:10:05Z</time>
      </trkpt>
      <trkpt lat="43.6" lon="1.18741">
        <ele>192</ele>
        <time>2016-06-04T08:10:22Z</time>
      </trkpt>
      <trkpt lat="43.59999" lon="1.18741">
        <ele>192</ele>
        <time>2016-06-04T08:10:24Z</time>
      </trkpt>
      <trkpt lat="43.59998" lon="1.18741">
        <ele>191</ele>
        <time>2016-06-04T08:10:26Z</time>
      </trkpt>
      <trkpt lat="43.59996" lon="1.18741">
        <ele>191</ele>
        <time>2016-06-04T08:10:39Z</time>
      </trkpt>
      <trkpt lat="43.59995" lon="1.1874">
        <ele>191</ele>
        <time>2016-06-04T08:10:40Z</time>
      </trkpt>
      <trkpt lat="43.59993" lon="1.18738">
        <ele>191</ele>
        <time>2016-06-04T08:10:42Z</time>
      </trkpt>
      <trkpt lat="43.5999" lon="1.18736">
        <ele>191</ele>
        <time>2016-06-04T08:10:44Z</time>
      </trkpt>
      <trkpt lat="43.59987" lon="1.18734">
        <ele>191</ele>
        <time>2016-06-04T08:10:46Z</time>
      </trkpt>
      <trkpt lat="43.59985" lon="1.18733">
        <ele>191</ele>
        <time>2016-06-04T08:10:48Z</time>
      </trkpt>
      <trkpt lat="43.59983" lon="1.18732">
        <ele>191</ele>
        <time>2016-06-04T08:10:50Z</time>
      </trkpt>
      <trkpt lat="43.5998" lon="1.1873">
        <ele>191</ele>
        <time>2016-06-04T08:10:52Z</time>
      </trkpt>
      <trkpt lat="43.59977" lon="1.18728">
        <ele>192</ele>
        <time>2016-06-04T08:10:54Z</time>
      </trkpt>
      <trkpt lat="43.59975" lon="1.18726">
        <ele>192</ele>
        <time>2016-06-04T08:10:56Z</time>
      </trkpt>
      <trkpt lat="43.59973" lon="1.18725">
        <ele>192</ele>
        <time>2016-06-04T08:10:57Z</time>
      </trkpt>
      <trkpt lat="43.59971" lon="1.18723">
        <ele>192</ele>
        <time>2016-06-04T08:10:59Z</time>
      </trkpt>
      <trkpt lat="43.59969" lon="1.18721">
        <ele>192</ele>
        <time>2016-06-04T08:11:01Z</time>
      </trkpt>
      <trkpt lat="43.59967" lon="1.1872">
        <ele>192</ele>
        <time>2016-06-04T08:11:02Z</time>
      </trkpt>
      <trkpt lat="43.59965" lon="1.18718">
        <ele>192</ele>
        <time>2016-06-04T08:11:04Z</time>
      </trkpt>
      <trkpt lat="43.59962" lon="1.18715">
        <ele>192</ele>
        <time>2016-06-04T08:11:06Z</time>
      </trkpt>
      <trkpt lat="43.59959" lon="1.18713">
        <ele>193</ele>
        <time>2016-06-04T08:11:08Z</time>
      </trkpt>
      <trkpt lat="43.59956" lon="1.1871">
        <ele>193</ele>
        <time>2016-06-04T08:11:10Z</time>
      </trkpt>
      <trkpt lat="43.59953" lon="1.18708">
        <ele>193</ele>
        <time>2016-06-04T08:11:12Z</time>
      </trkpt>
      <trkpt lat="43.59951" lon="1.18706">
        <ele>193</ele>
        <time>2016-06-04T08:11:14Z</time>
      </trkpt>
      <trkpt lat="43.59948" lon="1.18705">
        <ele>193</ele>
        <time>2016-06-04T08:11:16Z</time>
      </trkpt>
      <trkpt lat="43.59946" lon="1.18702">
        <ele>193</ele>
        <time>2016-06-04T08:11:18Z</time>
      </trkpt>
      <trkpt lat="43.59943" lon="1.187">
        <ele>193</ele>
        <time>2016-06-04T08:11:20Z</time>
      </trkpt>
      <trkpt lat="43.59942" lon="1.18699">
        <ele>193</ele>
        <time>2016-06-04T08:11:21Z</time>
      </trkpt>
      <trkpt lat="43.59939" lon="1.18696">
        <ele>193</ele>
        <time>2016-06-04T08:11:23Z</time>
      </trkpt>
      <trkpt lat="43.59935" lon="1.18693">
        <ele>193</ele>
        <time>2016-06-04T08:11:25Z</time>
      </trkpt>
      <trkpt lat="43.59934" lon="1.18692">
        <ele>193</ele>
        <time>2016-06-04T08:11:26Z</time>
      </trkpt>
      <trkpt lat="43.59931" lon="1.18689">
        <ele>193</ele>
        <time>2016-06-04T08:11:28Z</time>
      </trkpt>
      <trkpt lat="43.59928" lon="1.18687">
        <ele>193</ele>
        <time>2016-06-04T08:11:30Z</time>
      </trkpt>
      <trkpt lat="43.59927" lon="1.18686">
        <ele>193</ele>
        <time>2016-06-04T08:11:31Z</time>
      </trkpt>
      <trkpt lat="43.59926" lon="1.18684">
        <ele>193</ele>
        <time>2016-06-04T08:11:32Z</time>
      </trkpt>
      <trkpt lat="43.59923" lon="1.18682">
        <ele>193</ele>
        <time>2016-06-04T08:11:34Z</time>
      </trkpt>
      <trkpt lat="43.59921" lon="1.18681">
        <ele>193</ele>
        <time>2016-06-04T08:11:35Z</time>
      </trkpt>
      <trkpt lat="43.59918" lon="1.18679">
        <ele>193</ele>
        <time>2016-06-04T08:11:37Z</time>
      </trkpt>
      <trkpt lat="43.59917" lon="1.18678">
        <ele>193</ele>
        <time>2016-06-04T08:11:38Z</time>
      </trkpt>
      <trkpt lat="43.59914" lon="1.18676">
        <ele>193</ele>
        <time>2016-06-04T08:11:40Z</time>
      </trkpt>
      <trkpt lat="43.59912" lon="1.18674">
        <ele>193</ele>
        <time>2016-06-04T08:11:42Z</time>
      </trkpt>
      <trkpt lat="43.59911" lon="1.18672">
        <ele>193</ele>
        <time>2016-06-04T08:11:43Z</time>
      </trkpt>
      <trkpt lat="43.59906" lon="1.18671">
        <ele>194</ele>
        <time>2016-06-04T08:11:46Z</time>
      </trkpt>
      <trkpt lat="43.59903" lon="1.18669">
        <ele>194</ele>
        <time>2016-06-04T08:11:48Z</time>
      </trkpt>
      <trkpt lat="43.59901" lon="1.18667">
        <ele>194</ele>
        <time>2016-06-04T08:11:50Z</time>
      </trkpt>
      <trkpt lat="43.59895" lon="1.18665">
        <ele>195</ele>
        <time>2016-06-04T08:11:54Z</time>
      </trkpt>
      <trkpt lat="43.59893" lon="1.18664">
        <ele>195</ele>
        <time>2016-06-04T08:11:56Z</time>
      </trkpt>
      <trkpt lat="43.5989" lon="1.18663">
        <ele>195</ele>
        <time>2016-06-04T08:11:58Z</time>
      </trkpt>
      <trkpt lat="43.59888" lon="1.18662">
        <ele>196</ele>
        <time>2016-06-04T08:12:00Z</time>
      </trkpt>
      <trkpt lat="43.59885" lon="1.18662">
        <ele>196</ele>
        <time>2016-06-04T08:12:02Z</time>
      </trkpt>
      <trkpt lat="43.59884" lon="1.18661">
        <ele>197</ele>
        <time>2016-06-04T08:12:04Z</time>
      </trkpt>
      <trkpt lat="43.59882" lon="1.1866">
        <ele>198</ele>
        <time>2016-06-04T08:12:06Z</time>
      </trkpt>
      <trkpt lat="43.5988" lon="1.18659">
        <ele>198</ele>
        <time>2016-06-04T08:12:08Z</time>
      </trkpt>
      <trkpt lat="43.59878" lon="1.18658">
        <ele>199</ele>
        <time>2016-06-04T08:12:10Z</time>
      </trkpt>
      <trkpt lat="43.59876" lon="1.18658">
        <ele>200</ele>
        <time>2016-06-04T08:12:12Z</time>
      </trkpt>
      <trkpt lat="43.59873" lon="1.18657">
        <ele>200</ele>
        <time>2016-06-04T08:12:14Z</time>
      </trkpt>
      <trkpt lat="43.59871" lon="1.18657">
        <ele>201</ele>
        <time>2016-06-04T08:12:16Z</time>
      </trkpt>
      <trkpt lat="43.59868" lon="1.18654">
        <ele>202</ele>
        <time>2016-06-04T08:12:18Z</time>
      </trkpt>
      <trkpt lat="43.59864" lon="1.18653">
        <ele>202</ele>
        <time>2016-06-04T08:12:20Z</time>
      </trkpt>
      <trkpt lat="43.59861" lon="1.18652">
        <ele>203</ele>
        <time>2016-06-04T08:12:22Z</time>
      </trkpt>
      <trkpt lat="43.59859" lon="1.1865">
        <ele>204</ele>
        <time>2016-06-04T08:12:24Z</time>
      </trkpt>
      <trkpt lat="43.59856" lon="1.18649">
        <ele>205</ele>
        <time>2016-06-04T08:12:26Z</time>
      </trkpt>
      <trkpt lat="43.59853" lon="1.18648">
        <ele>205</ele>
        <time>2016-06-04T08:12:28Z</time>
      </trkpt>
      <trkpt lat="43.5985" lon="1.18647">
        <ele>206</ele>
        <time>2016-06-04T08:12:30Z</time>
      </trkpt>
      <trkpt lat="43.59849" lon="1.18646">
        <ele>207</ele>
        <time>2016-06-04T08:12:32Z</time>
      </trkpt>
      <trkpt lat="43.59848" lon="1.18645">
        <ele>207</ele>
        <time>2016-06-04T08:12:34Z</time>
      </trkpt>
      <trkpt lat="43.59847" lon="1.18643">
        <ele>208</ele>
        <time>2016-06-04T08:12:36Z</time>
      </trkpt>
      <trkpt lat="43.59844" lon="1.18642">
        <ele>209</ele>
        <time>2016-06-04T08:12:38Z</time>
      </trkpt>
      <trkpt lat="43.59842" lon="1.18641">
        <ele>210</ele>
        <time>2016-06-04T08:12:40Z</time>
      </trkpt>
      <trkpt lat="43.59839" lon="1.1864">
        <ele>210</ele>
        <time>2016-06-04T08:12:42Z</time>
      </trkpt>
      <trkpt lat="43.59836" lon="1.18639">
        <ele>211</ele>
        <time>2016-06-04T08:12:44Z</time>
      </trkpt>
      <trkpt lat="43.59833" lon="1.18638">
        <ele>212</ele>
        <time>2016-06-04T08:12:46Z</time>
      </trkpt>
      <trkpt lat="43.59831" lon="1.18624">
        <ele>213</ele>
        <time>2016-06-04T08:12:50Z</time>
      </trkpt>
      <trkpt lat="43.59827" lon="1.18623">
        <ele>214</ele>
        <time>2016-06-04T08:12:52Z</time>
      </trkpt>
      <trkpt lat="43.59815" lon="1.18619">
        <ele>217</ele>
        <time>2016-06-04T08:12:59Z</time>
      </trkpt>
      <trkpt lat="43.5981" lon="1.18618">
        <ele>218</ele>
        <time>2016-06-04T08:13:02Z</time>
      </trkpt>
      <trkpt lat="43.59807" lon="1.18615">
        <ele>219</ele>
        <time>2016-06-04T08:13:04Z</time>
      </trkpt>
      <trkpt lat="43.59805" lon="1.18612">
        <ele>220</ele>
        <time>2016-06-04T08:13:06Z</time>
      </trkpt>
      <trkpt lat="43.59798" lon="1.18609">
        <ele>221</ele>
        <time>2016-06-04T08:13:10Z</time>
      </trkpt>
      <trkpt lat="43.59779" lon="1.18599">
        <ele>225</ele>
        <time>2016-06-04T08:13:20Z</time>
      </trkpt>
      <trkpt lat="43.59778" lon="1.18597">
        <ele>226</ele>
        <time>2016-06-04T08:13:22Z</time>
      </trkpt>
      <trkpt lat="43.59776" lon="1.18597">
        <ele>227</ele>
        <time>2016-06-04T08:13:24Z</time>
      </trkpt>
      <trkpt lat="43.59773" lon="1.18596">
        <ele>228</ele>
        <time>2016-06-04T08:13:26Z</time>
      </trkpt>
      <trkpt lat="43.59769" lon="1.18594">
        <ele>228</ele>
        <time>2016-06-04T08:13:28Z</time>
      </trkpt>
      <trkpt lat="43.59766" lon="1.18592">
        <ele>229</ele>
        <time>2016-06-04T08:13:30Z</time>
      </trkpt>
      <trkpt lat="43.59763" lon="1.18591">
        <ele>229</ele>
        <time>2016-06-04T08:13:32Z</time>
      </trkpt>
      <trkpt lat="43.59761" lon="1.1859">
        <ele>230</ele>
        <time>2016-06-04T08:13:34Z</time>
      </trkpt>
      <trkpt lat="43.59758" lon="1.18588">
        <ele>231</ele>
        <time>2016-06-04T08:13:36Z</time>
      </trkpt>
      <trkpt lat="43.59756" lon="1.18586">
        <ele>231</ele>
        <time>2016-06-04T08:13:38Z</time>
      </trkpt>
      <trkpt lat="43.59753" lon="1.18584">
        <ele>232</ele>
        <time>2016-06-04T08:13:40Z</time>
      </trkpt>
      <trkpt lat="43.5975" lon="1.18582">
        <ele>232</ele>
        <time>2016-06-04T08:13:42Z</time>
      </trkpt>
      <trkpt lat="43.59749" lon="1.1858">
        <ele>233</ele>
        <time>2016-06-04T08:13:44Z</time>
      </trkpt>
      <trkpt lat="43.59746" lon="1.18578">
        <ele>234</ele>
        <time>2016-06-04T08:13:46Z</time>
      </trkpt>
      <trkpt lat="43.59744" lon="1.18576">
        <ele>235</ele>
        <time>2016-06-04T08:13:48Z</time>
      </trkpt>
      <trkpt lat="43.59741" lon="1.18573">
        <ele>236</ele>
        <time>2016-06-04T08:13:50Z</time>
      </trkpt>
      <trkpt lat="43.5974" lon="1.18568">
        <ele>236</ele>
        <time>2016-06-04T08:13:52Z</time>
      </trkpt>
      <trkpt lat="43.59739" lon="1.18563">
        <ele>237</ele>
        <time>2016-06-04T08:13:54Z</time>
      </trkpt>
      <trkpt lat="43.59737" lon="1.18562">
        <ele>238</ele>
        <time>2016-06-04T08:13:56Z</time>
      </trkpt>
      <trkpt lat="43.59736" lon="1.18559">
        <ele>239</ele>
        <time>2016-06-04T08:13:58Z</time>
      </trkpt>
      <trkpt lat="43.59734" lon="1.18556">
        <ele>240</ele>
        <time>2016-06-04T08:14:00Z</time>
      </trkpt>
      <trkpt lat="43.59732" lon="1.18555">
        <ele>241</ele>
        <time>2016-06-04T08:14:02Z</time>
      </trkpt>
      <trkpt lat="43.5973" lon="1.18552">
        <ele>243</ele>
        <time>2016-06-04T08:14:04Z</time>
      </trkpt>
      <trkpt lat="43.59728" lon="1.18547">
        <ele>244</ele>
        <time>2016-06-04T08:14:06Z</time>
      </trkpt>
      <trkpt lat="43.59725" lon="1.18546">
        <ele>245</ele>
        <time>2016-06-04T08:14:08Z</time>
      </trkpt>
      <trkpt lat="43.59723" lon="1.18546">
        <ele>246</ele>
        <time>2016-06-04T08:14:10Z</time>
      </trkpt>
      <trkpt lat="43.59717" lon="1.18544">
        <ele>248</ele>
        <time>2016-06-04T08:14:13Z</time>
      </trkpt>
      <trkpt lat="43.59715" lon="1.18543">
        <ele>248</ele>
        <time>2016-06-04T08:14:14Z</time>
      </trkpt>
      <trkpt lat="43.59712" lon="1.1854">
        <ele>249</ele>
        <time>2016-06-04T08:14:16Z</time>
      </trkpt>
      <trkpt lat="43.59712" lon="1.18536">
        <ele>249</ele>
        <time>2016-06-04T08:14:18Z</time>
      </trkpt>
      <trkpt lat="43.5971" lon="1.18533">
        <ele>249</ele>
        <time>2016-06-04T08:14:20Z</time>
      </trkpt>
      <trkpt lat="43.5971" lon="1.1853">
        <ele>250</ele>
        <time>2016-06-04T08:14:22Z</time>
      </trkpt>
      <trkpt lat="43.59709" lon="1.18526">
        <ele>251</ele>
        <time>2016-06-04T08:14:24Z</time>
      </trkpt>
      <trkpt lat="43.5971" lon="1.18522">
        <ele>251</ele>
        <time>2016-06-04T08:14:26Z</time>
      </trkpt>
      <trkpt lat="43.59709" lon="1.18518">
        <ele>252</ele>
        <time>2016-06-04T08:14:28Z</time>
      </trkpt>
      <trkpt lat="43.59708" lon="1.18514">
        <ele>253</ele>
        <time>2016-06-04T08:14:30Z</time>
      </trkpt>
      <trkpt lat="43.59706" lon="1.18509">
        <ele>254</ele>
        <time>2016-06-04T08:14:32Z</time>
      </trkpt>
      <trkpt lat="43.59704" lon="1.18506">
        <ele>254</ele>
        <time>2016-06-04T08:14:34Z</time>
      </trkpt>
      <trkpt lat="43.59703" lon="1.18502">
        <ele>255</ele>
        <time>2016-06-04T08:14:36Z</time>
      </trkpt>
      <trkpt lat="43.59703" lon="1.18498">
        <ele>256</ele>
        <time>2016-06-04T08:14:38Z</time>
      </trkpt>
      <trkpt lat="43.59703" lon="1.18495">
        <ele>256</ele>
        <time>2016-06-04T08:14:40Z</time>
      </trkpt>
      <trkpt lat="43.59704" lon="1.1849">
        <ele>257</ele>
        <time>2016-06-04T08:14:42Z</time>
      </trkpt>
      <trkpt lat="43.59705" lon="1.18489">
        <ele>258</ele>
        <time>2016-06-04T08:14:43Z</time>
      </trkpt>
      <trkpt lat="43.59705" lon="1.18487">
        <ele>258</ele>
        <time>2016-06-04T08:14:44Z</time>
      </trkpt>
      <trkpt lat="43.59705" lon="1.18482">
        <ele>259</ele>
        <time>2016-06-04T08:14:46Z</time>
      </trkpt>
      <trkpt lat="43.59705" lon="1.18479">
        <ele>260</ele>
        <time>2016-06-04T08:14:48Z</time>
      </trkpt>
      <trkpt lat="43.59705" lon="1.18475">
        <ele>260</ele>
        <time>2016-06-04T08:14:50Z</time>
      </trkpt>
      <trkpt lat="43.59707" lon="1.18472">
        <ele>261</ele>
        <time>2016-06-04T08:14:52Z</time>
      </trkpt>
      <trkpt lat="43.59707" lon="1.1847">
        <ele>261</ele>
        <time>2016-06-04T08:14:54Z</time>
      </trkpt>
      <trkpt lat="43.59707" lon="1.18466">
        <ele>262</ele>
        <time>2016-06-04T08:14:56Z</time>
      </trkpt>
      <trkpt lat="43.59705" lon="1.18462">
        <ele>262</ele>
        <time>2016-06-04T08:14:58Z</time>
      </trkpt>
      <trkpt lat="43.59707" lon="1.18457">
        <ele>263</ele>
        <time>2016-06-04T08:15:00Z</time>
      </trkpt>
      <trkpt lat="43.59705" lon="1.18454">
        <ele>263</ele>
        <time>2016-06-04T08:15:02Z</time>
      </trkpt>
      <trkpt lat="43.59705" lon="1.1845">
        <ele>263</ele>
        <time>2016-06-04T08:15:04Z</time>
      </trkpt>
      <trkpt lat="43.59705" lon="1.18445">
        <ele>264</ele>
        <time>2016-06-04T08:15:06Z</time>
      </trkpt>
      <trkpt lat="43.59707" lon="1.18441">
        <ele>264</ele>
        <time>2016-06-04T08:15:08Z</time>
      </trkpt>
      <trkpt lat="43.59708" lon="1.18438">
        <ele>264</ele>
        <time>2016-06-04T08:15:10Z</time>
      </trkpt>
      <trkpt lat="43.59709" lon="1.18434">
        <ele>265</ele>
        <time>2016-06-04T08:15:12Z</time>
      </trkpt>
      <trkpt lat="43.5971" lon="1.18431">
        <ele>265</ele>
        <time>2016-06-04T08:15:14Z</time>
      </trkpt>
      <trkpt lat="43.5971" lon="1.18428">
        <ele>265</ele>
        <time>2016-06-04T08:15:16Z</time>
      </trkpt>
      <trkpt lat="43.59703" lon="1.18405">
        <ele>262</ele>
        <time>2016-06-04T08:15:22Z</time>
      </trkpt>
      <trkpt lat="43.59705" lon="1.18401">
        <ele>260</ele>
        <time>2016-06-04T08:15:24Z</time>
      </trkpt>
      <trkpt lat="43.59707" lon="1.18397">
        <ele>258</ele>
        <time>2016-06-04T08:15:26Z</time>
      </trkpt>
      <trkpt lat="43.59708" lon="1.18394">
        <ele>257</ele>
        <time>2016-06-04T08:15:28Z</time>
      </trkpt>
      <trkpt lat="43.59707" lon="1.18389">
        <ele>256</ele>
        <time>2016-06-04T08:15:30Z</time>
      </trkpt>
      <trkpt lat="43.59707" lon="1.18385">
        <ele>255</ele>
        <time>2016-06-04T08:15:32Z</time>
      </trkpt>
      <trkpt lat="43.59708" lon="1.18381">
        <ele>255</ele>
        <time>2016-06-04T08:15:34Z</time>
      </trkpt>
      <trkpt lat="43.5971" lon="1.18375">
        <ele>254</ele>
        <time>2016-06-04T08:15:36Z</time>
      </trkpt>
      <trkpt lat="43.5971" lon="1.18373">
        <ele>254</ele>
        <time>2016-06-04T08:15:38Z</time>
      </trkpt>
      <trkpt lat="43.59713" lon="1.18368">
        <ele>254</ele>
        <time>2016-06-04T08:15:40Z</time>
      </trkpt>
      <trkpt lat="43.59713" lon="1.18366">
        <ele>253</ele>
        <time>2016-06-04T08:15:42Z</time>
      </trkpt>
      <trkpt lat="43.59714" lon="1.18362">
        <ele>253</ele>
        <time>2016-06-04T08:15:44Z</time>
      </trkpt>
      <trkpt lat="43.59715" lon="1.18361">
        <ele>253</ele>
        <time>2016-06-04T08:15:46Z</time>
      </trkpt>
      <trkpt lat="43.59718" lon="1.18358">
        <ele>253</ele>
        <time>2016-06-04T08:15:48Z</time>
      </trkpt>
      <trkpt lat="43.59717" lon="1.18356">
        <ele>253</ele>
        <time>2016-06-04T08:15:49Z</time>
      </trkpt>
      <trkpt lat="43.5972" lon="1.18354">
        <ele>253</ele>
        <time>2016-06-04T08:15:51Z</time>
      </trkpt>
      <trkpt lat="43.5972" lon="1.18352">
        <ele>253</ele>
        <time>2016-06-04T08:15:52Z</time>
      </trkpt>
      <trkpt lat="43.5972" lon="1.18346">
        <ele>253</ele>
        <time>2016-06-04T08:15:54Z</time>
      </trkpt>
      <trkpt lat="43.59723" lon="1.18343">
        <ele>253</ele>
        <time>2016-06-04T08:15:56Z</time>
      </trkpt>
      <trkpt lat="43.59728" lon="1.18339">
        <ele>253</ele>
        <time>2016-06-04T08:15:58Z</time>
      </trkpt>
      <trkpt lat="43.5973" lon="1.18337">
        <ele>253</ele>
        <time>2016-06-04T08:16:00Z</time>
      </trkpt>
      <trkpt lat="43.59731" lon="1.18334">
        <ele>253</ele>
        <time>2016-06-04T08:16:02Z</time>
      </trkpt>
      <trkpt lat="43.59731" lon="1.1833">
        <ele>253</ele>
        <time>2016-06-04T08:16:04Z</time>
      </trkpt>
      <trkpt lat="43.59732" lon="1.18327">
        <ele>253</ele>
        <time>2016-06-04T08:16:06Z</time>
      </trkpt>
      <trkpt lat="43.59732" lon="1.18323">
        <ele>254</ele>
        <time>2016-06-04T08:16:08Z</time>
      </trkpt>
      <trkpt lat="43.59733" lon="1.18319">
        <ele>254</ele>
        <time>2016-06-04T08:16:10Z</time>
      </trkpt>
      <trkpt lat="43.59736" lon="1.18315">
        <ele>255</ele>
        <time>2016-06-04T08:16:12Z</time>
      </trkpt>
      <trkpt lat="43.59737" lon="1.18311">
        <ele>255</ele>
        <time>2016-06-04T08:16:14Z</time>
      </trkpt>
      <trkpt lat="43.59739" lon="1.18309">
        <ele>256</ele>
        <time>2016-06-04T08:16:15Z</time>
      </trkpt>
      <trkpt lat="43.59742" lon="1.18302">
        <ele>256</ele>
        <time>2016-06-04T08:16:19Z</time>
      </trkpt>
      <trkpt lat="43.59742" lon="1.183">
        <ele>256</ele>
        <time>2016-06-04T08:16:20Z</time>
      </trkpt>
      <trkpt lat="43.59742" lon="1.18297">
        <ele>256</ele>
        <time>2016-06-04T08:16:22Z</time>
      </trkpt>
      <trkpt lat="43.59745" lon="1.18294">
        <ele>256</ele>
        <time>2016-06-04T08:16:24Z</time>
      </trkpt>
      <trkpt lat="43.59747" lon="1.18289">
        <ele>256</ele>
        <time>2016-06-04T08:16:26Z</time>
      </trkpt>
      <trkpt lat="43.59747" lon="1.18286">
        <ele>257</ele>
        <time>2016-06-04T08:16:28Z</time>
      </trkpt>
      <trkpt lat="43.59748" lon="1.18282">
        <ele>257</ele>
        <time>2016-06-04T08:16:30Z</time>
      </trkpt>
      <trkpt lat="43.59748" lon="1.18277">
        <ele>258</ele>
        <time>2016-06-04T08:16:32Z</time>
      </trkpt>
      <trkpt lat="43.5975" lon="1.18273">
        <ele>258</ele>
        <time>2016-06-04T08:16:34Z</time>
      </trkpt>
      <trkpt lat="43.59752" lon="1.1827">
        <ele>259</ele>
        <time>2016-06-04T08:16:36Z</time>
      </trkpt>
      <trkpt lat="43.59752" lon="1.18267">
        <ele>259</ele>
        <time>2016-06-04T08:16:37Z</time>
      </trkpt>
      <trkpt lat="43.59752" lon="1.18265">
        <ele>259</ele>
        <time>2016-06-04T08:16:38Z</time>
      </trkpt>
      <trkpt lat="43.59753" lon="1.18258">
        <ele>260</ele>
        <time>2016-06-04T08:16:40Z</time>
      </trkpt>
      <trkpt lat="43.59755" lon="1.18255">
        <ele>260</ele>
        <time>2016-06-04T08:16:42Z</time>
      </trkpt>
      <trkpt lat="43.59757" lon="1.1825">
        <ele>260</ele>
        <time>2016-06-04T08:16:44Z</time>
      </trkpt>
      <trkpt lat="43.59758" lon="1.18246">
        <ele>260</ele>
        <time>2016-06-04T08:16:46Z</time>
      </trkpt>
      <trkpt lat="43.59759" lon="1.18241">
        <ele>261</ele>
        <time>2016-06-04T08:16:48Z</time>
      </trkpt>
      <trkpt lat="43.59758" lon="1.18237">
        <ele>261</ele>
        <time>2016-06-04T08:16:50Z</time>
      </trkpt>
      <trkpt lat="43.59758" lon="1.18234">
        <ele>261</ele>
        <time>2016-06-04T08:16:52Z</time>
      </trkpt>
      <trkpt lat="43.59757" lon="1.1823">
        <ele>261</ele>
        <time>2016-06-04T08:16:54Z</time>
      </trkpt>
      <trkpt lat="43.59755" lon="1.18226">
        <ele>262</ele>
        <time>2016-06-04T08:16:56Z</time>
      </trkpt>
      <trkpt lat="43.59755" lon="1.18222">
        <ele>262</ele>
        <time>2016-06-04T08:16:58Z</time>
      </trkpt>
      <trkpt lat="43.59755" lon="1.1822">
        <ele>262</ele>
        <time>2016-06-04T08:16:59Z</time>
      </trkpt>
      <trkpt lat="43.59755" lon="1.18217">
        <ele>263</ele>
        <time>2016-06-04T08:17:01Z</time>
      </trkpt>
      <trkpt lat="43.59755" lon="1.18214">
        <ele>263</ele>
        <time>2016-06-04T08:17:02Z</time>
      </trkpt>
      <trkpt lat="43.59755" lon="1.18212">
        <ele>263</ele>
        <time>2016-06-04T08:17:03Z</time>
      </trkpt>
      <trkpt lat="43.59755" lon="1.18208">
        <ele>264</ele>
        <time>2016-06-04T08:17:05Z</time>
      </trkpt>
      <trkpt lat="43.59755" lon="1.18203">
        <ele>264</ele>
        <time>2016-06-04T08:17:07Z</time>
      </trkpt>
      <trkpt lat="43.59755" lon="1.18201">
        <ele>264</ele>
        <time>2016-06-04T08:17:08Z</time>
      </trkpt>
      <trkpt lat="43.59754" lon="1.18197">
        <ele>265</ele>
        <time>2016-06-04T08:17:10Z</time>
      </trkpt>
      <trkpt lat="43.59753" lon="1.18193">
        <ele>265</ele>
        <time>2016-06-04T08:17:12Z</time>
      </trkpt>
      <trkpt lat="43.59753" lon="1.18189">
        <ele>266</ele>
        <time>2016-06-04T08:17:14Z</time>
      </trkpt>
      <trkpt lat="43.59753" lon="1.18187">
        <ele>266</ele>
        <time>2016-06-04T08:17:15Z</time>
      </trkpt>
      <trkpt lat="43.59754" lon="1.18182">
        <ele>266</ele>
        <time>2016-06-04T08:17:17Z</time>
      </trkpt>
      <trkpt lat="43.59753" lon="1.18178">
        <ele>267</ele>
        <time>2016-06-04T08:17:19Z</time>
      </trkpt>
      <trkpt lat="43.59753" lon="1.18177">
        <ele>267</ele>
        <time>2016-06-04T08:17:20Z</time>
      </trkpt>
      <trkpt lat="43.59753" lon="1.18174">
        <ele>267</ele>
        <time>2016-06-04T08:17:22Z</time>
      </trkpt>
      <trkpt lat="43.59752" lon="1.18171">
        <ele>268</ele>
        <time>2016-06-04T08:17:24Z</time>
      </trkpt>
      <trkpt lat="43.59751" lon="1.18168">
        <ele>268</ele>
        <time>2016-06-04T08:17:26Z</time>
      </trkpt>
      <trkpt lat="43.5975" lon="1.18166">
        <ele>269</ele>
        <time>2016-06-04T08:17:28Z</time>
      </trkpt>
      <trkpt lat="43.5975" lon="1.18165">
        <ele>269</ele>
        <time>2016-06-04T08:17:29Z</time>
      </trkpt>
      <trkpt lat="43.59749" lon="1.18164">
        <ele>270</ele>
        <time>2016-06-04T08:17:30Z</time>
      </trkpt>
      <trkpt lat="43.59749" lon="1.18163">
        <ele>270</ele>
        <time>2016-06-04T08:17:31Z</time>
      </trkpt>
      <trkpt lat="43.59748" lon="1.18161">
        <ele>270</ele>
        <time>2016-06-04T08:17:32Z</time>
      </trkpt>
      <trkpt lat="43.59746" lon="1.18155">
        <ele>270</ele>
        <time>2016-06-04T08:17:34Z</time>
      </trkpt>
      <trkpt lat="43.59745" lon="1.18149">
        <ele>270</ele>
        <time>2016-06-04T08:17:36Z</time>
      </trkpt>
      <trkpt lat="43.59744" lon="1.18143">
        <ele>270</ele>
        <time>2016-06-04T08:17:38Z</time>
      </trkpt>
      <trkpt lat="43.59744" lon="1.18134">
        <ele>270</ele>
        <time>2016-06-04T08:17:40Z</time>
      </trkpt>
      <trkpt lat="43.59744" lon="1.18128">
        <ele>270</ele>
        <time>2016-06-04T08:17:42Z</time>
      </trkpt>
      <trkpt lat="43.59743" lon="1.18125">
        <ele>270</ele>
        <time>2016-06-04T08:17:43Z</time>
      </trkpt>
      <trkpt lat="43.59743" lon="1.18123">
        <ele>270</ele>
        <time>2016-06-04T08:17:44Z</time>
      </trkpt>
      <trkpt lat="43.59742" lon="1.18118">
        <ele>270</ele>
        <time>2016-06-04T08:17:46Z</time>
      </trkpt>
      <trkpt lat="43.59742" lon="1.18114">
        <ele>271</ele>
        <time>2016-06-04T08:17:48Z</time>
      </trkpt>
      <trkpt lat="43.59742" lon="1.18108">
        <ele>271</ele>
        <time>2016-06-04T08:17:50Z</time>
      </trkpt>
      <trkpt lat="43.59742" lon="1.18103">
        <ele>271</ele>
        <time>2016-06-04T08:17:52Z</time>
      </trkpt>
      <trkpt lat="43.59741" lon="1.18099">
        <ele>271</ele>
        <time>2016-06-04T08:17:54Z</time>
      </trkpt>
      <trkpt lat="43.59741" lon="1.18092">
        <ele>272</ele>
        <time>2016-06-04T08:17:56Z</time>
      </trkpt>
      <trkpt lat="43.59741" lon="1.18087">
        <ele>272</ele>
        <time>2016-06-04T08:17:58Z</time>
      </trkpt>
      <trkpt lat="43.59741" lon="1.18082">
        <ele>272</ele>
        <time>2016-06-04T08:18:00Z</time>
      </trkpt>
      <trkpt lat="43.59741" lon="1.18078">
        <ele>273</ele>
        <time>2016-06-04T08:18:01Z</time>
      </trkpt>
      <trkpt lat="43.59741" lon="1.18076">
        <ele>273</ele>
        <time>2016-06-04T08:18:02Z</time>
      </trkpt>
      <trkpt lat="43.59742" lon="1.18071">
        <ele>273</ele>
        <time>2016-06-04T08:18:04Z</time>
      </trkpt>
      <trkpt lat="43.59743" lon="1.18065">
        <ele>273</ele>
        <time>2016-06-04T08:18:06Z</time>
      </trkpt>
      <trkpt lat="43.59742" lon="1.18061">
        <ele>274</ele>
        <time>2016-06-04T08:18:08Z</time>
      </trkpt>
      <trkpt lat="43.59741" lon="1.18025">
        <ele>273</ele>
        <time>2016-06-04T08:18:16Z</time>
      </trkpt>
      <trkpt lat="43.59741" lon="1.1802">
        <ele>273</ele>
        <time>2016-06-04T08:18:18Z</time>
      </trkpt>
      <trkpt lat="43.59742" lon="1.18012">
        <ele>274</ele>
        <time>2016-06-04T08:18:20Z</time>
      </trkpt>
      <trkpt lat="43.59742" lon="1.18008">
        <ele>274</ele>
        <time>2016-06-04T08:18:22Z</time>
      </trkpt>
      <trkpt lat="43.59742" lon="1.18004">
        <ele>274</ele>
        <time>2016-06-04T08:18:24Z</time>
      </trkpt>
      <trkpt lat="43.59741" lon="1.18001">
        <ele>274</ele>
        <time>2016-06-04T08:18:26Z</time>
      </trkpt>
      <trkpt lat="43.59741" lon="1.17998">
        <ele>275</ele>
        <time>2016-06-04T08:18:28Z</time>
      </trkpt>
      <trkpt lat="43.5974" lon="1.17994">
        <ele>275</ele>
        <time>2016-06-04T08:18:30Z</time>
      </trkpt>
      <trkpt lat="43.59741" lon="1.1799">
        <ele>276</ele>
        <time>2016-06-04T08:18:32Z</time>
      </trkpt>
      <trkpt lat="43.59741" lon="1.17986">
        <ele>276</ele>
        <time>2016-06-04T08:18:34Z</time>
      </trkpt>
      <trkpt lat="43.59739" lon="1.17982">
        <ele>276</ele>
        <time>2016-06-04T08:18:36Z</time>
      </trkpt>
      <trkpt lat="43.59738" lon="1.17978">
        <ele>276</ele>
        <time>2016-06-04T08:18:38Z</time>
      </trkpt>
      <trkpt lat="43.59738" lon="1.17974">
        <ele>276</ele>
        <time>2016-06-04T08:18:40Z</time>
      </trkpt>
      <trkpt lat="43.59737" lon="1.1797">
        <ele>276</ele>
        <time>2016-06-04T08:18:42Z</time>
      </trkpt>
      <trkpt lat="43.59737" lon="1.17965">
        <ele>276</ele>
        <time>2016-06-04T08:18:44Z</time>
      </trkpt>
      <trkpt lat="43.59736" lon="1.17961">
        <ele>276</ele>
        <time>2016-06-04T08:18:46Z</time>
      </trkpt>
      <trkpt lat="43.59736" lon="1.17958">
        <ele>277</ele>
        <time>2016-06-04T08:18:48Z</time>
      </trkpt>
      <trkpt lat="43.59736" lon="1.17955">
        <ele>277</ele>
        <time>2016-06-04T08:18:49Z</time>
      </trkpt>
      <trkpt lat="43.59735" lon="1.17952">
        <ele>277</ele>
        <time>2016-06-04T08:18:50Z</time>
      </trkpt>
      <trkpt lat="43.59734" lon="1.17946">
        <ele>277</ele>
        <time>2016-06-04T08:18:52Z</time>
      </trkpt>
      <trkpt lat="43.59733" lon="1.17942">
        <ele>277</ele>
        <time>2016-06-04T08:18:54Z</time>
      </trkpt>
      <trkpt lat="43.59732" lon="1.17937">
        <ele>277</ele>
        <time>2016-06-04T08:18:56Z</time>
      </trkpt>
      <trkpt lat="43.59732" lon="1.17932">
        <ele>277</ele>
        <time>2016-06-04T08:18:58Z</time>
      </trkpt>
      <trkpt lat="43.59731" lon="1.1793">
        <ele>278</ele>
        <time>2016-06-04T08:18:59Z</time>
      </trkpt>
      <trkpt lat="43.59731" lon="1.17924">
        <ele>278</ele>
        <time>2016-06-04T08:19:01Z</time>
      </trkpt>
      <trkpt lat="43.59731" lon="1.1792">
        <ele>278</ele>
        <time>2016-06-04T08:19:02Z</time>
      </trkpt>
      <trkpt lat="43.59732" lon="1.17902">
        <ele>278</ele>
        <time>2016-06-04T08:19:06Z</time>
      </trkpt>
      <trkpt lat="43.59731" lon="1.17897">
        <ele>279</ele>
        <time>2016-06-04T08:19:08Z</time>
      </trkpt>
      <trkpt lat="43.59731" lon="1.17894">
        <ele>279</ele>
        <time>2016-06-04T08:19:10Z</time>
      </trkpt>
      <trkpt lat="43.59731" lon="1.17892">
        <ele>279</ele>
        <time>2016-06-04T08:19:11Z</time>
      </trkpt>
      <trkpt lat="43.59731" lon="1.17886">
        <ele>280</ele>
        <time>2016-06-04T08:19:13Z</time>
      </trkpt>
      <trkpt lat="43.59732" lon="1.17882">
        <ele>280</ele>
        <time>2016-06-04T08:19:15Z</time>
      </trkpt>
      <trkpt lat="43.59731" lon="1.17877">
        <ele>280</ele>
        <time>2016-06-04T08:19:17Z</time>
      </trkpt>
      <trkpt lat="43.59729" lon="1.17872">
        <ele>281</ele>
        <time>2016-06-04T08:19:19Z</time>
      </trkpt>
      <trkpt lat="43.59729" lon="1.17869">
        <ele>281</ele>
        <time>2016-06-04T08:19:20Z</time>
      </trkpt>
      <trkpt lat="43.59729" lon="1.17863">
        <ele>282</ele>
        <time>2016-06-04T08:19:22Z</time>
      </trkpt>
      <trkpt lat="43.59731" lon="1.17859">
        <ele>282</ele>
        <time>2016-06-04T08:19:24Z</time>
      </trkpt>
      <trkpt lat="43.59731" lon="1.17854">
        <ele>282</ele>
        <time>2016-06-04T08:19:26Z</time>
      </trkpt>
      <trkpt lat="43.59731" lon="1.1785">
        <ele>282</ele>
        <time>2016-06-04T08:19:28Z</time>
      </trkpt>
      <trkpt lat="43.59731" lon="1.17846">
        <ele>282</ele>
        <time>2016-06-04T08:19:30Z</time>
      </trkpt>
      <trkpt lat="43.5973" lon="1.17842">
        <ele>282</ele>
        <time>2016-06-04T08:19:32Z</time>
      </trkpt>
      <trkpt lat="43.5973" lon="1.17838">
        <ele>282</ele>
        <time>2016-06-04T08:19:34Z</time>
      </trkpt>
      <trkpt lat="43.5973" lon="1.17836">
        <ele>283</ele>
        <time>2016-06-04T08:19:36Z</time>
      </trkpt>
      <trkpt lat="43.59731" lon="1.17831">
        <ele>283</ele>
        <time>2016-06-04T08:19:38Z</time>
      </trkpt>
      <trkpt lat="43.59729" lon="1.17817">
        <ele>283</ele>
        <time>2016-06-04T08:19:42Z</time>
      </trkpt>
      <trkpt lat="43.59729" lon="1.17812">
        <ele>283</ele>
        <time>2016-06-04T08:19:44Z</time>
      </trkpt>
      <trkpt lat="43.59729" lon="1.17808">
        <ele>283</ele>
        <time>2016-06-04T08:19:46Z</time>
      </trkpt>
      <trkpt lat="43.59729" lon="1.17802">
        <ele>283</ele>
        <time>2016-06-04T08:19:48Z</time>
      </trkpt>
      <trkpt lat="43.5973" lon="1.17799">
        <ele>283</ele>
        <time>2016-06-04T08:19:50Z</time>
      </trkpt>
      <trkpt lat="43.59729" lon="1.17794">
        <ele>284</ele>
        <time>2016-06-04T08:19:52Z</time>
      </trkpt>
      <trkpt lat="43.59729" lon="1.17788">
        <ele>284</ele>
        <time>2016-06-04T08:19:54Z</time>
      </trkpt>
      <trkpt lat="43.59729" lon="1.17783">
        <ele>284</ele>
        <time>2016-06-04T08:19:56Z</time>
      </trkpt>
      <trkpt lat="43.59729" lon="1.17779">
        <ele>285</ele>
        <time>2016-06-04T08:19:58Z</time>
      </trkpt>
      <trkpt lat="43.5973" lon="1.17774">
        <ele>285</ele>
        <time>2016-06-04T08:20:00Z</time>
      </trkpt>
      <trkpt lat="43.5973" lon="1.17772">
        <ele>286</ele>
        <time>2016-06-04T08:20:01Z</time>
      </trkpt>
      <trkpt lat="43.59731" lon="1.17767">
        <ele>286</ele>
        <time>2016-06-04T08:20:03Z</time>
      </trkpt>
      <trkpt lat="43.59731" lon="1.17762">
        <ele>286</ele>
        <time>2016-06-04T08:20:05Z</time>
      </trkpt>
      <trkpt lat="43.59732" lon="1.17759">
        <ele>287</ele>
        <time>2016-06-04T08:20:06Z</time>
      </trkpt>
      <trkpt lat="43.59732" lon="1.17752">
        <ele>287</ele>
        <time>2016-06-04T08:20:08Z</time>
      </trkpt>
      <trkpt lat="43.59732" lon="1.17746">
        <ele>288</ele>
        <time>2016-06-04T08:20:10Z</time>
      </trkpt>
      <trkpt lat="43.59733" lon="1.17738">
        <ele>288</ele>
        <time>2016-06-04T08:20:12Z</time>
      </trkpt>
      <trkpt lat="43.59733" lon="1.17732">
        <ele>289</ele>
        <time>2016-06-04T08:20:14Z</time>
      </trkpt>
      <trkpt lat="43.59733" lon="1.17727">
        <ele>289</ele>
        <time>2016-06-04T08:20:16Z</time>
      </trkpt>
      <trkpt lat="43.59734" lon="1.17723">
        <ele>290</ele>
        <time>2016-06-04T08:20:18Z</time>
      </trkpt>
      <trkpt lat="43.59736" lon="1.17715">
        <ele>290</ele>
        <time>2016-06-04T08:20:20Z</time>
      </trkpt>
      <trkpt lat="43.59736" lon="1.17709">
        <ele>290</ele>
        <time>2016-06-04T08:20:22Z</time>
      </trkpt>
      <trkpt lat="43.59737" lon="1.17704">
        <ele>290</ele>
        <time>2016-06-04T08:20:24Z</time>
      </trkpt>
      <trkpt lat="43.59739" lon="1.17699">
        <ele>289</ele>
        <time>2016-06-04T08:20:26Z</time>
      </trkpt>
      <trkpt lat="43.5974" lon="1.17694">
        <ele>289</ele>
        <time>2016-06-04T08:20:28Z</time>
      </trkpt>
      <trkpt lat="43.59742" lon="1.17689">
        <ele>289</ele>
        <time>2016-06-04T08:20:30Z</time>
      </trkpt>
      <trkpt lat="43.59744" lon="1.17685">
        <ele>288</ele>
        <time>2016-06-04T08:20:32Z</time>
      </trkpt>
      <trkpt lat="43.59739" lon="1.17659">
        <ele>284</ele>
        <time>2016-06-04T08:20:36Z</time>
      </trkpt>
      <trkpt lat="43.59734" lon="1.17632">
        <ele>274</ele>
        <time>2016-06-04T08:20:42Z</time>
      </trkpt>
      <trkpt lat="43.5975" lon="1.17611">
        <ele>263</ele>
        <time>2016-06-04T08:20:52Z</time>
      </trkpt>
      <trkpt lat="43.59752" lon="1.17606">
        <ele>262</ele>
        <time>2016-06-04T08:20:54Z</time>
      </trkpt>
      <trkpt lat="43.59753" lon="1.17602">
        <ele>261</ele>
        <time>2016-06-04T08:20:56Z</time>
      </trkpt>
      <trkpt lat="43.59754" lon="1.17598">
        <ele>261</ele>
        <time>2016-06-04T08:20:58Z</time>
      </trkpt>
      <trkpt lat="43.59754" lon="1.17593">
        <ele>260</ele>
        <time>2016-06-04T08:21:00Z</time>
      </trkpt>
      <trkpt lat="43.59755" lon="1.17589">
        <ele>260</ele>
        <time>2016-06-04T08:21:02Z</time>
      </trkpt>
      <trkpt lat="43.59755" lon="1.17586">
        <ele>259</ele>
        <time>2016-06-04T08:21:03Z</time>
      </trkpt>
      <trkpt lat="43.59757" lon="1.17581">
        <ele>259</ele>
        <time>2016-06-04T08:21:05Z</time>
      </trkpt>
      <trkpt lat="43.59758" lon="1.17576">
        <ele>258</ele>
        <time>2016-06-04T08:21:07Z</time>
      </trkpt>
      <trkpt lat="43.59759" lon="1.17574">
        <ele>257</ele>
        <time>2016-06-04T08:21:08Z</time>
      </trkpt>
      <trkpt lat="43.59761" lon="1.1757">
        <ele>257</ele>
        <time>2016-06-04T08:21:10Z</time>
      </trkpt>
      <trkpt lat="43.59762" lon="1.17566">
        <ele>256</ele>
        <time>2016-06-04T08:21:12Z</time>
      </trkpt>
      <trkpt lat="43.59763" lon="1.17562">
        <ele>255</ele>
        <time>2016-06-04T08:21:14Z</time>
      </trkpt>
      <trkpt lat="43.59764" lon="1.17557">
        <ele>254</ele>
        <time>2016-06-04T08:21:16Z</time>
      </trkpt>
      <trkpt lat="43.59765" lon="1.17553">
        <ele>254</ele>
        <time>2016-06-04T08:21:18Z</time>
      </trkpt>
      <trkpt lat="43.59766" lon="1.1755">
        <ele>253</ele>
        <time>2016-06-04T08:21:19Z</time>
      </trkpt>
      <trkpt lat="43.59766" lon="1.17548">
        <ele>252</ele>
        <time>2016-06-04T08:21:20Z</time>
      </trkpt>
      <trkpt lat="43.59768" lon="1.17544">
        <ele>252</ele>
        <time>2016-06-04T08:21:22Z</time>
      </trkpt>
      <trkpt lat="43.59769" lon="1.1754">
        <ele>251</ele>
        <time>2016-06-04T08:21:24Z</time>
      </trkpt>
      <trkpt lat="43.59771" lon="1.17536">
        <ele>251</ele>
        <time>2016-06-04T08:21:26Z</time>
      </trkpt>
      <trkpt lat="43.59774" lon="1.17532">
        <ele>250</ele>
        <time>2016-06-04T08:21:28Z</time>
      </trkpt>
      <trkpt lat="43.59775" lon="1.17528">
        <ele>249</ele>
        <time>2016-06-04T08:21:30Z</time>
      </trkpt>
      <trkpt lat="43.59777" lon="1.17523">
        <ele>248</ele>
        <time>2016-06-04T08:21:32Z</time>
      </trkpt>
      <trkpt lat="43.59779" lon="1.17518">
        <ele>248</ele>
        <time>2016-06-04T08:21:34Z</time>
      </trkpt>
      <trkpt lat="43.5978" lon="1.17514">
        <ele>247</ele>
        <time>2016-06-04T08:21:36Z</time>
      </trkpt>
      <trkpt lat="43.59781" lon="1.17512">
        <ele>246</ele>
        <time>2016-06-04T08:21:37Z</time>
      </trkpt>
      <trkpt lat="43.59781" lon="1.1751">
        <ele>245</ele>
        <time>2016-06-04T08:21:38Z</time>
      </trkpt>
      <trkpt lat="43.59783" lon="1.17506">
        <ele>245</ele>
        <time>2016-06-04T08:21:40Z</time>
      </trkpt>
      <trkpt lat="43.59786" lon="1.17501">
        <ele>245</ele>
        <time>2016-06-04T08:21:42Z</time>
      </trkpt>
      <trkpt lat="43.59787" lon="1.17498">
        <ele>244</ele>
        <time>2016-06-04T08:21:44Z</time>
      </trkpt>
      <trkpt lat="43.59788" lon="1.17494">
        <ele>244</ele>
        <time>2016-06-04T08:21:46Z</time>
      </trkpt>
      <trkpt lat="43.59789" lon="1.1749">
        <ele>244</ele>
        <time>2016-06-04T08:21:48Z</time>
      </trkpt>
      <trkpt lat="43.59789" lon="1.17487">
        <ele>243</ele>
        <time>2016-06-04T08:21:50Z</time>
      </trkpt>
      <trkpt lat="43.59789" lon="1.17484">
        <ele>243</ele>
        <time>2016-06-04T08:21:52Z</time>
      </trkpt>
      <trkpt lat="43.59789" lon="1.17484">
        <ele>243</ele>
        <time>2016-06-04T08:21:54Z</time>
      </trkpt>
      <trkpt lat="43.59789" lon="1.17482">
        <ele>243</ele>
        <time>2016-06-04T08:21:56Z</time>
      </trkpt>
      <trkpt lat="43.59789" lon="1.17479">
        <ele>243</ele>
        <time>2016-06-04T08:21:58Z</time>
      </trkpt>
      <trkpt lat="43.59786" lon="1.17467">
        <ele>242</ele>
        <time>2016-06-04T08:22:14Z</time>
      </trkpt>
      <trkpt lat="43.59786" lon="1.17467">
        <ele>241</ele>
        <time>2016-06-04T08:22:18Z</time>
      </trkpt>
      <trkpt lat="43.59787" lon="1.17464">
        <ele>240</ele>
        <time>2016-06-04T08:22:22Z</time>
      </trkpt>
      <trkpt lat="43.59787" lon="1.17463">
        <ele>239</ele>
        <time>2016-06-04T08:22:24Z</time>
      </trkpt>
      <trkpt lat="43.59788" lon="1.17461">
        <ele>238</ele>
        <time>2016-06-04T08:22:26Z</time>
      </trkpt>
      <trkpt lat="43.59788" lon="1.1746">
        <ele>238</ele>
        <time>2016-06-04T08:22:28Z</time>
      </trkpt>
      <trkpt lat="43.59789" lon="1.17459">
        <ele>238</ele>
        <time>2016-06-04T08:22:30Z</time>
      </trkpt>
      <trkpt lat="43.59789" lon="1.17459">
        <ele>238</ele>
        <time>2016-06-04T08:22:32Z</time>
      </trkpt>
      <trkpt lat="43.59789" lon="1.17459">
        <ele>238</ele>
        <time>2016-06-04T08:22:34Z</time>
      </trkpt>
      <trkpt lat="43.59789" lon="1.17459">
        <ele>237</ele>
        <time>2016-06-04T08:22:48Z</time>
      </trkpt>
      <trkpt lat="43.59789" lon="1.17459">
        <ele>237</ele>
        <time>2016-06-04T08:22:50Z</time>
      </trkpt>
      <trkpt lat="43.59789" lon="1.17459">
        <ele>237</ele>
        <time>2016-06-04T08:23:18Z</time>
      </trkpt>
      <trkpt lat="43.59789" lon="1.17459">
        <ele>237</ele>
        <time>2016-06-04T08:23:20Z</time>
      </trkpt>
      <trkpt lat="43.59784" lon="1.17453">
        <ele>238</ele>
        <time>2016-06-04T08:23:46Z</time>
      </trkpt>
      <trkpt lat="43.59784" lon="1.1745">
        <ele>238</ele>
        <time>2016-06-04T08:23:48Z</time>
      </trkpt>
      <trkpt lat="43.59784" lon="1.17449">
        <ele>238</ele>
        <time>2016-06-04T08:23:49Z</time>
      </trkpt>
      <trkpt lat="43.59785" lon="1.17449">
        <ele>239</ele>
        <time>2016-06-04T08:23:50Z</time>
      </trkpt>
      <trkpt lat="43.59785" lon="1.17448">
        <ele>239</ele>
        <time>2016-06-04T08:23:52Z</time>
      </trkpt>
      <trkpt lat="43.59785" lon="1.17446">
        <ele>239</ele>
        <time>2016-06-04T08:23:54Z</time>
      </trkpt>
      <trkpt lat="43.59786" lon="1.17445">
        <ele>239</ele>
        <time>2016-06-04T08:23:56Z</time>
      </trkpt>
      <trkpt lat="43.59786" lon="1.17445">
        <ele>239</ele>
        <time>2016-06-04T08:23:57Z</time>
      </trkpt>
      <trkpt lat="43.59789" lon="1.17445">
        <ele>238</ele>
        <time>2016-06-04T08:24:02Z</time>
      </trkpt>
      <trkpt lat="43.5979" lon="1.17446">
        <ele>238</ele>
        <time>2016-06-04T08:24:04Z</time>
      </trkpt>
      <trkpt lat="43.59792" lon="1.17448">
        <ele>238</ele>
        <time>2016-06-04T08:24:06Z</time>
      </trkpt>
      <trkpt lat="43.59792" lon="1.17449">
        <ele>238</ele>
        <time>2016-06-04T08:24:08Z</time>
      </trkpt>
      <trkpt lat="43.59793" lon="1.17449">
        <ele>238</ele>
        <time>2016-06-04T08:24:10Z</time>
      </trkpt>
      <trkpt lat="43.59793" lon="1.17451">
        <ele>237</ele>
        <time>2016-06-04T08:24:12Z</time>
      </trkpt>
      <trkpt lat="43.59792" lon="1.17451">
        <ele>237</ele>
        <time>2016-06-04T08:24:13Z</time>
      </trkpt>
      <trkpt lat="43.59792" lon="1.17451">
        <ele>237</ele>
        <time>2016-06-04T08:24:33Z</time>
      </trkpt>
      <trkpt lat="43.59792" lon="1.17451">
        <ele>237</ele>
        <time>2016-06-04T08:24:35Z</time>
      </trkpt>
      <trkpt lat="43.59789" lon="1.17462">
        <ele>237</ele>
        <time>2016-06-04T08:24:39Z</time>
      </trkpt>
      <trkpt lat="43.59789" lon="1.17463">
        <ele>237</ele>
        <time>2016-06-04T08:24:41Z</time>
      </trkpt>
      <trkpt lat="43.59788" lon="1.17463">
        <ele>236</ele>
        <time>2016-06-04T08:24:42Z</time>
      </trkpt>
      <trkpt lat="43.59788" lon="1.17463">
        <ele>236</ele>
        <time>2016-06-04T08:25:04Z</time>
      </trkpt>
      <trkpt lat="43.59788" lon="1.17463">
        <ele>236</ele>
        <time>2016-06-04T08:25:05Z</time>
      </trkpt>
      <trkpt lat="43.59788" lon="1.17463">
        <ele>236</ele>
        <time>2016-06-04T08:25:34Z</time>
      </trkpt>
      <trkpt lat="43.59788" lon="1.17463">
        <ele>236</ele>
        <time>2016-06-04T08:25:36Z</time>
      </trkpt>
      <trkpt lat="43.59788" lon="1.17463">
        <ele>236</ele>
        <time>2016-06-04T08:26:04Z</time>
      </trkpt>
      <trkpt lat="43.59788" lon="1.17463">
        <ele>236</ele>
        <time>2016-06-04T08:26:06Z</time>
      </trkpt>
      <trkpt lat="43.59789" lon="1.17461">
        <ele>236</ele>
        <time>2016-06-04T08:26:16Z</time>
      </trkpt>
      <trkpt lat="43.5979" lon="1.1746">
        <ele>235</ele>
        <time>2016-06-04T08:26:18Z</time>
      </trkpt>
      <trkpt lat="43.5979" lon="1.17459">
        <ele>235</ele>
        <time>2016-06-04T08:26:20Z</time>
      </trkpt>
      <trkpt lat="43.59789" lon="1.17457">
        <ele>234</ele>
        <time>2016-06-04T08:26:22Z</time>
      </trkpt>
      <trkpt lat="43.59789" lon="1.17455">
        <ele>233</ele>
        <time>2016-06-04T08:26:24Z</time>
      </trkpt>
      <trkpt lat="43.59789" lon="1.17454">
        <ele>233</ele>
        <time>2016-06-04T08:26:25Z</time>
      </trkpt>
      <trkpt lat="43.59788" lon="1.17452">
        <ele>233</ele>
        <time>2016-06-04T08:26:26Z</time>
      </trkpt>
      <trkpt lat="43.59786" lon="1.1745">
        <ele>233</ele>
        <time>2016-06-04T08:26:28Z</time>
      </trkpt>
      <trkpt lat="43.59786" lon="1.17446">
        <ele>233</ele>
        <time>2016-06-04T08:26:30Z</time>
      </trkpt>
      <trkpt lat="43.59787" lon="1.17443">
        <ele>233</ele>
        <time>2016-06-04T08:26:32Z</time>
      </trkpt>
      <trkpt lat="43.59787" lon="1.1744">
        <ele>233</ele>
        <time>2016-06-04T08:26:34Z</time>
      </trkpt>
      <trkpt lat="43.59788" lon="1.17438">
        <ele>233</ele>
        <time>2016-06-04T08:26:36Z</time>
      </trkpt>
      <trkpt lat="43.59788" lon="1.17435">
        <ele>234</ele>
        <time>2016-06-04T08:26:37Z</time>
      </trkpt>
      <trkpt lat="43.59788" lon="1.17434">
        <ele>234</ele>
        <time>2016-06-04T08:26:38Z</time>
      </trkpt>
      <trkpt lat="43.59789" lon="1.17431">
        <ele>234</ele>
        <time>2016-06-04T08:26:40Z</time>
      </trkpt>
      <trkpt lat="43.5979" lon="1.17427">
        <ele>234</ele>
        <time>2016-06-04T08:26:42Z</time>
      </trkpt>
      <trkpt lat="43.59793" lon="1.17423">
        <ele>234</ele>
        <time>2016-06-04T08:26:44Z</time>
      </trkpt>
      <trkpt lat="43.59794" lon="1.17421">
        <ele>234</ele>
        <time>2016-06-04T08:26:45Z</time>
      </trkpt>
      <trkpt lat="43.59797" lon="1.17417">
        <ele>234</ele>
        <time>2016-06-04T08:26:47Z</time>
      </trkpt>
      <trkpt lat="43.598" lon="1.17413">
        <ele>234</ele>
        <time>2016-06-04T08:26:49Z</time>
      </trkpt>
      <trkpt lat="43.59801" lon="1.17411">
        <ele>234</ele>
        <time>2016-06-04T08:26:50Z</time>
      </trkpt>
      <trkpt lat="43.59803" lon="1.17408">
        <ele>235</ele>
        <time>2016-06-04T08:26:52Z</time>
      </trkpt>
      <trkpt lat="43.59806" lon="1.17405">
        <ele>235</ele>
        <time>2016-06-04T08:26:54Z</time>
      </trkpt>
      <trkpt lat="43.59808" lon="1.17402">
        <ele>235</ele>
        <time>2016-06-04T08:26:56Z</time>
      </trkpt>
      <trkpt lat="43.59809" lon="1.17401">
        <ele>235</ele>
        <time>2016-06-04T08:26:58Z</time>
      </trkpt>
      <trkpt lat="43.5981" lon="1.17399">
        <ele>235</ele>
        <time>2016-06-04T08:27:00Z</time>
      </trkpt>
      <trkpt lat="43.59811" lon="1.17398">
        <ele>235</ele>
        <time>2016-06-04T08:27:02Z</time>
      </trkpt>
      <trkpt lat="43.59813" lon="1.17396">
        <ele>235</ele>
        <time>2016-06-04T08:27:04Z</time>
      </trkpt>
      <trkpt lat="43.59815" lon="1.17394">
        <ele>235</ele>
        <time>2016-06-04T08:27:06Z</time>
      </trkpt>
      <trkpt lat="43.59817" lon="1.17392">
        <ele>236</ele>
        <time>2016-06-04T08:27:08Z</time>
      </trkpt>
      <trkpt lat="43.5982" lon="1.17389">
        <ele>236</ele>
        <time>2016-06-04T08:27:10Z</time>
      </trkpt>
      <trkpt lat="43.59823" lon="1.17388">
        <ele>236</ele>
        <time>2016-06-04T08:27:12Z</time>
      </trkpt>
      <trkpt lat="43.59824" lon="1.17385">
        <ele>236</ele>
        <time>2016-06-04T08:27:14Z</time>
      </trkpt>
      <trkpt lat="43.59832" lon="1.17379">
        <ele>237</ele>
        <time>2016-06-04T08:27:19Z</time>
      </trkpt>
      <trkpt lat="43.59834" lon="1.17377">
        <ele>237</ele>
        <time>2016-06-04T08:27:20Z</time>
      </trkpt>
      <trkpt lat="43.59836" lon="1.17375">
        <ele>238</ele>
        <time>2016-06-04T08:27:22Z</time>
      </trkpt>
      <trkpt lat="43.59839" lon="1.17373">
        <ele>238</ele>
        <time>2016-06-04T08:27:24Z</time>
      </trkpt>
      <trkpt lat="43.59841" lon="1.1737">
        <ele>238</ele>
        <time>2016-06-04T08:27:26Z</time>
      </trkpt>
      <trkpt lat="43.59844" lon="1.17366">
        <ele>238</ele>
        <time>2016-06-04T08:27:28Z</time>
      </trkpt>
      <trkpt lat="43.59846" lon="1.17364">
        <ele>239</ele>
        <time>2016-06-04T08:27:30Z</time>
      </trkpt>
      <trkpt lat="43.59847" lon="1.17362">
        <ele>239</ele>
        <time>2016-06-04T08:27:31Z</time>
      </trkpt>
      <trkpt lat="43.59848" lon="1.17359">
        <ele>239</ele>
        <time>2016-06-04T08:27:33Z</time>
      </trkpt>
      <trkpt lat="43.5985" lon="1.17357">
        <ele>239</ele>
        <time>2016-06-04T08:27:35Z</time>
      </trkpt>
      <trkpt lat="43.59853" lon="1.17354">
        <ele>240</ele>
        <time>2016-06-04T08:27:37Z</time>
      </trkpt>
      <trkpt lat="43.59854" lon="1.17352">
        <ele>240</ele>
        <time>2016-06-04T08:27:38Z</time>
      </trkpt>
      <trkpt lat="43.59856" lon="1.17348">
        <ele>240</ele>
        <time>2016-06-04T08:27:40Z</time>
      </trkpt>
      <trkpt lat="43.59859" lon="1.17344">
        <ele>240</ele>
        <time>2016-06-04T08:27:42Z</time>
      </trkpt>
      <trkpt lat="43.59861" lon="1.17339">
        <ele>240</ele>
        <time>2016-06-04T08:27:44Z</time>
      </trkpt>
      <trkpt lat="43.59867" lon="1.1733">
        <ele>240</ele>
        <time>2016-06-04T08:27:46Z</time>
      </trkpt>
      <trkpt lat="43.59879" lon="1.17322">
        <ele>241</ele>
        <time>2016-06-04T08:27:52Z</time>
      </trkpt>
      <trkpt lat="43.59886" lon="1.17319">
        <ele>241</ele>
        <time>2016-06-04T08:27:56Z</time>
      </trkpt>
      <trkpt lat="43.5989" lon="1.17319">
        <ele>241</ele>
        <time>2016-06-04T08:27:58Z</time>
      </trkpt>
      <trkpt lat="43.59892" lon="1.17319">
        <ele>241</ele>
        <time>2016-06-04T08:28:00Z</time>
      </trkpt>
      <trkpt lat="43.59896" lon="1.17318">
        <ele>241</ele>
        <time>2016-06-04T08:28:02Z</time>
      </trkpt>
      <trkpt lat="43.59899" lon="1.17318">
        <ele>242</ele>
        <time>2016-06-04T08:28:04Z</time>
      </trkpt>
      <trkpt lat="43.59901" lon="1.17318">
        <ele>242</ele>
        <time>2016-06-04T08:28:06Z</time>
      </trkpt>
      <trkpt lat="43.59904" lon="1.17319">
        <ele>242</ele>
        <time>2016-06-04T08:28:08Z</time>
      </trkpt>
      <trkpt lat="43.59906" lon="1.17321">
        <ele>242</ele>
        <time>2016-06-04T08:28:10Z</time>
      </trkpt>
      <trkpt lat="43.59908" lon="1.17322">
        <ele>242</ele>
        <time>2016-06-04T08:28:12Z</time>
      </trkpt>
      <trkpt lat="43.5991" lon="1.17322">
        <ele>243</ele>
        <time>2016-06-04T08:28:14Z</time>
      </trkpt>
      <trkpt lat="43.59913" lon="1.17324">
        <ele>243</ele>
        <time>2016-06-04T08:28:16Z</time>
      </trkpt>
      <trkpt lat="43.59915" lon="1.17328">
        <ele>244</ele>
        <time>2016-06-04T08:28:18Z</time>
      </trkpt>
      <trkpt lat="43.59917" lon="1.17329">
        <ele>245</ele>
        <time>2016-06-04T08:28:20Z</time>
      </trkpt>
      <trkpt lat="43.59919" lon="1.17331">
        <ele>246</ele>
        <time>2016-06-04T08:28:22Z</time>
      </trkpt>
      <trkpt lat="43.59921" lon="1.17332">
        <ele>248</ele>
        <time>2016-06-04T08:28:24Z</time>
      </trkpt>
      <trkpt lat="43.59922" lon="1.17332">
        <ele>249</ele>
        <time>2016-06-04T08:28:25Z</time>
      </trkpt>
      <trkpt lat="43.59923" lon="1.17332">
        <ele>250</ele>
        <time>2016-06-04T08:28:26Z</time>
      </trkpt>
      <trkpt lat="43.59929" lon="1.17334">
        <ele>252</ele>
        <time>2016-06-04T08:28:30Z</time>
      </trkpt>
      <trkpt lat="43.59932" lon="1.17336">
        <ele>253</ele>
        <time>2016-06-04T08:28:32Z</time>
      </trkpt>
      <trkpt lat="43.59935" lon="1.17336">
        <ele>255</ele>
        <time>2016-06-04T08:28:34Z</time>
      </trkpt>
      <trkpt lat="43.59937" lon="1.17338">
        <ele>256</ele>
        <time>2016-06-04T08:28:36Z</time>
      </trkpt>
      <trkpt lat="43.59939" lon="1.17341">
        <ele>257</ele>
        <time>2016-06-04T08:28:38Z</time>
      </trkpt>
      <trkpt lat="43.59942" lon="1.17342">
        <ele>259</ele>
        <time>2016-06-04T08:28:40Z</time>
      </trkpt>
      <trkpt lat="43.59944" lon="1.17343">
        <ele>260</ele>
        <time>2016-06-04T08:28:42Z</time>
      </trkpt>
      <trkpt lat="43.59947" lon="1.17344">
        <ele>261</ele>
        <time>2016-06-04T08:28:44Z</time>
      </trkpt>
      <trkpt lat="43.59951" lon="1.17347">
        <ele>262</ele>
        <time>2016-06-04T08:28:46Z</time>
      </trkpt>
      <trkpt lat="43.59956" lon="1.17356">
        <ele>263</ele>
        <time>2016-06-04T08:28:48Z</time>
      </trkpt>
      <trkpt lat="43.59959" lon="1.17359">
        <ele>263</ele>
        <time>2016-06-04T08:28:50Z</time>
      </trkpt>
      <trkpt lat="43.59962" lon="1.17361">
        <ele>262</ele>
        <time>2016-06-04T08:28:52Z</time>
      </trkpt>
      <trkpt lat="43.59965" lon="1.17361">
        <ele>262</ele>
        <time>2016-06-04T08:28:54Z</time>
      </trkpt>
      <trkpt lat="43.59968" lon="1.17361">
        <ele>261</ele>
        <time>2016-06-04T08:28:56Z</time>
      </trkpt>
      <trkpt lat="43.5997" lon="1.17363">
        <ele>261</ele>
        <time>2016-06-04T08:28:58Z</time>
      </trkpt>
      <trkpt lat="43.59973" lon="1.17363">
        <ele>261</ele>
        <time>2016-06-04T08:29:00Z</time>
      </trkpt>
      <trkpt lat="43.59977" lon="1.17364">
        <ele>261</ele>
        <time>2016-06-04T08:29:02Z</time>
      </trkpt>
      <trkpt lat="43.5998" lon="1.17366">
        <ele>261</ele>
        <time>2016-06-04T08:29:04Z</time>
      </trkpt>
      <trkpt lat="43.59983" lon="1.17369">
        <ele>262</ele>
        <time>2016-06-04T08:29:06Z</time>
      </trkpt>
      <trkpt lat="43.59986" lon="1.17372">
        <ele>262</ele>
        <time>2016-06-04T08:29:08Z</time>
      </trkpt>
      <trkpt lat="43.59989" lon="1.17373">
        <ele>262</ele>
        <time>2016-06-04T08:29:10Z</time>
      </trkpt>
      <trkpt lat="43.59992" lon="1.17374">
        <ele>262</ele>
        <time>2016-06-04T08:29:12Z</time>
      </trkpt>
      <trkpt lat="43.59993" lon="1.17377">
        <ele>263</ele>
        <time>2016-06-04T08:29:14Z</time>
      </trkpt>
      <trkpt lat="43.59996" lon="1.17378">
        <ele>263</ele>
        <time>2016-06-04T08:29:16Z</time>
      </trkpt>
      <trkpt lat="43.59999" lon="1.1738">
        <ele>264</ele>
        <time>2016-06-04T08:29:18Z</time>
      </trkpt>
      <trkpt lat="43.6" lon="1.17385">
        <ele>264</ele>
        <time>2016-06-04T08:29:19Z</time>
      </trkpt>
      <trkpt lat="43.60003" lon="1.17387">
        <ele>265</ele>
        <time>2016-06-04T08:29:21Z</time>
      </trkpt>
      <trkpt lat="43.60011" lon="1.17394">
        <ele>267</ele>
        <time>2016-06-04T08:29:26Z</time>
      </trkpt>
      <trkpt lat="43.60014" lon="1.17397">
        <ele>268</ele>
        <time>2016-06-04T08:29:28Z</time>
      </trkpt>
      <trkpt lat="43.60017" lon="1.17398">
        <ele>269</ele>
        <time>2016-06-04T08:29:30Z</time>
      </trkpt>
      <trkpt lat="43.6002" lon="1.174">
        <ele>269</ele>
        <time>2016-06-04T08:29:32Z</time>
      </trkpt>
      <trkpt lat="43.60026" lon="1.17406">
        <ele>270</ele>
        <time>2016-06-04T08:29:36Z</time>
      </trkpt>
      <trkpt lat="43.60028" lon="1.1741">
        <ele>269</ele>
        <time>2016-06-04T08:29:38Z</time>
      </trkpt>
      <trkpt lat="43.6003" lon="1.17411">
        <ele>269</ele>
        <time>2016-06-04T08:29:40Z</time>
      </trkpt>
      <trkpt lat="43.60033" lon="1.17413">
        <ele>269</ele>
        <time>2016-06-04T08:29:42Z</time>
      </trkpt>
      <trkpt lat="43.60035" lon="1.17416">
        <ele>269</ele>
        <time>2016-06-04T08:29:44Z</time>
      </trkpt>
      <trkpt lat="43.60038" lon="1.17417">
        <ele>269</ele>
        <time>2016-06-04T08:29:46Z</time>
      </trkpt>
      <trkpt lat="43.6004" lon="1.17421">
        <ele>269</ele>
        <time>2016-06-04T08:29:48Z</time>
      </trkpt>
      <trkpt lat="43.60043" lon="1.17423">
        <ele>270</ele>
        <time>2016-06-04T08:29:50Z</time>
      </trkpt>
      <trkpt lat="43.60054" lon="1.17427">
        <ele>270</ele>
        <time>2016-06-04T08:29:56Z</time>
      </trkpt>
      <trkpt lat="43.60067" lon="1.17425">
        <ele>270</ele>
        <time>2016-06-04T08:30:02Z</time>
      </trkpt>
      <trkpt lat="43.60071" lon="1.17426">
        <ele>269</ele>
        <time>2016-06-04T08:30:04Z</time>
      </trkpt>
      <trkpt lat="43.60074" lon="1.1743">
        <ele>269</ele>
        <time>2016-06-04T08:30:06Z</time>
      </trkpt>
      <trkpt lat="43.60077" lon="1.17435">
        <ele>269</ele>
        <time>2016-06-04T08:30:08Z</time>
      </trkpt>
      <trkpt lat="43.6008" lon="1.17439">
        <ele>269</ele>
        <time>2016-06-04T08:30:10Z</time>
      </trkpt>
      <trkpt lat="43.60083" lon="1.1744">
        <ele>269</ele>
        <time>2016-06-04T08:30:12Z</time>
      </trkpt>
      <trkpt lat="43.60087" lon="1.17441">
        <ele>268</ele>
        <time>2016-06-04T08:30:14Z</time>
      </trkpt>
      <trkpt lat="43.6009" lon="1.17444">
        <ele>268</ele>
        <time>2016-06-04T08:30:16Z</time>
      </trkpt>
      <trkpt lat="43.60093" lon="1.1745">
        <ele>268</ele>
        <time>2016-06-04T08:30:18Z</time>
      </trkpt>
      <trkpt lat="43.60096" lon="1.17451">
        <ele>268</ele>
        <time>2016-06-04T08:30:20Z</time>
      </trkpt>
      <trkpt lat="43.601" lon="1.17474">
        <ele>268</ele>
        <time>2016-06-04T08:30:24Z</time>
      </trkpt>
      <trkpt lat="43.60103" lon="1.17476">
        <ele>268</ele>
        <time>2016-06-04T08:30:26Z</time>
      </trkpt>
      <trkpt lat="43.60104" lon="1.17482">
        <ele>267</ele>
        <time>2016-06-04T08:30:28Z</time>
      </trkpt>
      <trkpt lat="43.60107" lon="1.17483">
        <ele>267</ele>
        <time>2016-06-04T08:30:30Z</time>
      </trkpt>
      <trkpt lat="43.6011" lon="1.17483">
        <ele>267</ele>
        <time>2016-06-04T08:30:32Z</time>
      </trkpt>
      <trkpt lat="43.60113" lon="1.17484">
        <ele>267</ele>
        <time>2016-06-04T08:30:34Z</time>
      </trkpt>
      <trkpt lat="43.60114" lon="1.17485">
        <ele>267</ele>
        <time>2016-06-04T08:30:35Z</time>
      </trkpt>
      <trkpt lat="43.60116" lon="1.17487">
        <ele>268</ele>
        <time>2016-06-04T08:30:37Z</time>
      </trkpt>
      <trkpt lat="43.60117" lon="1.17488">
        <ele>268</ele>
        <time>2016-06-04T08:30:38Z</time>
      </trkpt>
      <trkpt lat="43.6012" lon="1.1749">
        <ele>269</ele>
        <time>2016-06-04T08:30:40Z</time>
      </trkpt>
      <trkpt lat="43.60123" lon="1.17493">
        <ele>269</ele>
        <time>2016-06-04T08:30:42Z</time>
      </trkpt>
      <trkpt lat="43.6013" lon="1.17496">
        <ele>268</ele>
        <time>2016-06-04T08:30:46Z</time>
      </trkpt>
      <trkpt lat="43.60131" lon="1.17496">
        <ele>268</ele>
        <time>2016-06-04T08:30:47Z</time>
      </trkpt>
      <trkpt lat="43.60134" lon="1.175">
        <ele>267</ele>
        <time>2016-06-04T08:30:49Z</time>
      </trkpt>
      <trkpt lat="43.60136" lon="1.17501">
        <ele>267</ele>
        <time>2016-06-04T08:30:50Z</time>
      </trkpt>
      <trkpt lat="43.60138" lon="1.17506">
        <ele>267</ele>
        <time>2016-06-04T08:30:52Z</time>
      </trkpt>
      <trkpt lat="43.60142" lon="1.1751">
        <ele>267</ele>
        <time>2016-06-04T08:30:54Z</time>
      </trkpt>
      <trkpt lat="43.60145" lon="1.17512">
        <ele>266</ele>
        <time>2016-06-04T08:30:56Z</time>
      </trkpt>
      <trkpt lat="43.60148" lon="1.17515">
        <ele>266</ele>
        <time>2016-06-04T08:30:58Z</time>
      </trkpt>
      <trkpt lat="43.6015" lon="1.17516">
        <ele>267</ele>
        <time>2016-06-04T08:31:00Z</time>
      </trkpt>
      <trkpt lat="43.60152" lon="1.17519">
        <ele>267</ele>
        <time>2016-06-04T08:31:02Z</time>
      </trkpt>
      <trkpt lat="43.60155" lon="1.1752">
        <ele>267</ele>
        <time>2016-06-04T08:31:04Z</time>
      </trkpt>
      <trkpt lat="43.60158" lon="1.17521">
        <ele>267</ele>
        <time>2016-06-04T08:31:06Z</time>
      </trkpt>
      <trkpt lat="43.6016" lon="1.17522">
        <ele>267</ele>
        <time>2016-06-04T08:31:08Z</time>
      </trkpt>
      <trkpt lat="43.60164" lon="1.17523">
        <ele>267</ele>
        <time>2016-06-04T08:31:10Z</time>
      </trkpt>
      <trkpt lat="43.6017" lon="1.17527">
        <ele>267</ele>
        <time>2016-06-04T08:31:14Z</time>
      </trkpt>
      <trkpt lat="43.60174" lon="1.17531">
        <ele>267</ele>
        <time>2016-06-04T08:31:16Z</time>
      </trkpt>
      <trkpt lat="43.60177" lon="1.17534">
        <ele>267</ele>
        <time>2016-06-04T08:31:18Z</time>
      </trkpt>
      <trkpt lat="43.60189" lon="1.17551">
        <ele>265</ele>
        <time>2016-06-04T08:31:26Z</time>
      </trkpt>
      <trkpt lat="43.60193" lon="1.17553">
        <ele>265</ele>
        <time>2016-06-04T08:31:28Z</time>
      </trkpt>
      <trkpt lat="43.60195" lon="1.17554">
        <ele>265</ele>
        <time>2016-06-04T08:31:30Z</time>
      </trkpt>
      <trkpt lat="43.60198" lon="1.17558">
        <ele>265</ele>
        <time>2016-06-04T08:31:32Z</time>
      </trkpt>
      <trkpt lat="43.60204" lon="1.17564">
        <ele>264</ele>
        <time>2016-06-04T08:31:36Z</time>
      </trkpt>
      <trkpt lat="43.60207" lon="1.17565">
        <ele>264</ele>
        <time>2016-06-04T08:31:38Z</time>
      </trkpt>
      <trkpt lat="43.60211" lon="1.17567">
        <ele>263</ele>
        <time>2016-06-04T08:31:40Z</time>
      </trkpt>
      <trkpt lat="43.60214" lon="1.17568">
        <ele>263</ele>
        <time>2016-06-04T08:31:42Z</time>
      </trkpt>
      <trkpt lat="43.60216" lon="1.17569">
        <ele>263</ele>
        <time>2016-06-04T08:31:44Z</time>
      </trkpt>
      <trkpt lat="43.60218" lon="1.17571">
        <ele>263</ele>
        <time>2016-06-04T08:31:46Z</time>
      </trkpt>
      <trkpt lat="43.60221" lon="1.17572">
        <ele>263</ele>
        <time>2016-06-04T08:31:48Z</time>
      </trkpt>
      <trkpt lat="43.60224" lon="1.17574">
        <ele>264</ele>
        <time>2016-06-04T08:31:50Z</time>
      </trkpt>
      <trkpt lat="43.60228" lon="1.17576">
        <ele>264</ele>
        <time>2016-06-04T08:31:52Z</time>
      </trkpt>
      <trkpt lat="43.60231" lon="1.17578">
        <ele>264</ele>
        <time>2016-06-04T08:31:54Z</time>
      </trkpt>
      <trkpt lat="43.60232" lon="1.1758">
        <ele>264</ele>
        <time>2016-06-04T08:31:55Z</time>
      </trkpt>
      <trkpt lat="43.60234" lon="1.17582">
        <ele>264</ele>
        <time>2016-06-04T08:31:56Z</time>
      </trkpt>
      <trkpt lat="43.60244" lon="1.17589">
        <ele>263</ele>
        <time>2016-06-04T08:32:01Z</time>
      </trkpt>
      <trkpt lat="43.60245" lon="1.17591">
        <ele>263</ele>
        <time>2016-06-04T08:32:02Z</time>
      </trkpt>
      <trkpt lat="43.60248" lon="1.17594">
        <ele>263</ele>
        <time>2016-06-04T08:32:04Z</time>
      </trkpt>
      <trkpt lat="43.60251" lon="1.17597">
        <ele>263</ele>
        <time>2016-06-04T08:32:06Z</time>
      </trkpt>
      <trkpt lat="43.60252" lon="1.17599">
        <ele>263</ele>
        <time>2016-06-04T08:32:07Z</time>
      </trkpt>
      <trkpt lat="43.60254" lon="1.176">
        <ele>263</ele>
        <time>2016-06-04T08:32:08Z</time>
      </trkpt>
      <trkpt lat="43.60257" lon="1.17602">
        <ele>263</ele>
        <time>2016-06-04T08:32:10Z</time>
      </trkpt>
      <trkpt lat="43.60259" lon="1.17605">
        <ele>263</ele>
        <time>2016-06-04T08:32:12Z</time>
      </trkpt>
      <trkpt lat="43.6026" lon="1.17606">
        <ele>263</ele>
        <time>2016-06-04T08:32:13Z</time>
      </trkpt>
      <trkpt lat="43.60262" lon="1.17608">
        <ele>263</ele>
        <time>2016-06-04T08:32:14Z</time>
      </trkpt>
      <trkpt lat="43.60265" lon="1.1761">
        <ele>263</ele>
        <time>2016-06-04T08:32:16Z</time>
      </trkpt>
      <trkpt lat="43.60267" lon="1.17613">
        <ele>263</ele>
        <time>2016-06-04T08:32:18Z</time>
      </trkpt>
      <trkpt lat="43.6027" lon="1.17614">
        <ele>263</ele>
        <time>2016-06-04T08:32:20Z</time>
      </trkpt>
      <trkpt lat="43.60273" lon="1.17618">
        <ele>263</ele>
        <time>2016-06-04T08:32:22Z</time>
      </trkpt>
      <trkpt lat="43.60275" lon="1.17622">
        <ele>263</ele>
        <time>2016-06-04T08:32:24Z</time>
      </trkpt>
      <trkpt lat="43.60279" lon="1.17625">
        <ele>263</ele>
        <time>2016-06-04T08:32:26Z</time>
      </trkpt>
      <trkpt lat="43.60292" lon="1.1763">
        <ele>263</ele>
        <time>2016-06-04T08:32:34Z</time>
      </trkpt>
      <trkpt lat="43.60295" lon="1.17631">
        <ele>263</ele>
        <time>2016-06-04T08:32:36Z</time>
      </trkpt>
      <trkpt lat="43.60296" lon="1.17631">
        <ele>263</ele>
        <time>2016-06-04T08:32:37Z</time>
      </trkpt>
      <trkpt lat="43.60297" lon="1.17632">
        <ele>263</ele>
        <time>2016-06-04T08:32:38Z</time>
      </trkpt>
      <trkpt lat="43.603" lon="1.17634">
        <ele>263</ele>
        <time>2016-06-04T08:32:40Z</time>
      </trkpt>
      <trkpt lat="43.60302" lon="1.17637">
        <ele>264</ele>
        <time>2016-06-04T08:32:42Z</time>
      </trkpt>
      <trkpt lat="43.60304" lon="1.17639">
        <ele>264</ele>
        <time>2016-06-04T08:32:43Z</time>
      </trkpt>
      <trkpt lat="43.60312" lon="1.17647">
        <ele>264</ele>
        <time>2016-06-04T08:32:48Z</time>
      </trkpt>
      <trkpt lat="43.60313" lon="1.17648">
        <ele>264</ele>
        <time>2016-06-04T08:32:49Z</time>
      </trkpt>
      <trkpt lat="43.60335" lon="1.17683">
        <ele>247</ele>
        <time>2016-06-04T08:33:14Z</time>
      </trkpt>
      <trkpt lat="43.60336" lon="1.17683">
        <ele>245</ele>
        <time>2016-06-04T08:33:16Z</time>
      </trkpt>
      <trkpt lat="43.60337" lon="1.17684">
        <ele>244</ele>
        <time>2016-06-04T08:33:18Z</time>
      </trkpt>
      <trkpt lat="43.60338" lon="1.17685">
        <ele>242</ele>
        <time>2016-06-04T08:33:20Z</time>
      </trkpt>
      <trkpt lat="43.6034" lon="1.17686">
        <ele>241</ele>
        <time>2016-06-04T08:33:22Z</time>
      </trkpt>
      <trkpt lat="43.60342" lon="1.17688">
        <ele>240</ele>
        <time>2016-06-04T08:33:24Z</time>
      </trkpt>
      <trkpt lat="43.60344" lon="1.17688">
        <ele>240</ele>
        <time>2016-06-04T08:33:25Z</time>
      </trkpt>
      <trkpt lat="43.60345" lon="1.17689">
        <ele>240</ele>
        <time>2016-06-04T08:33:26Z</time>
      </trkpt>
      <trkpt lat="43.60347" lon="1.1769">
        <ele>240</ele>
        <time>2016-06-04T08:33:28Z</time>
      </trkpt>
      <trkpt lat="43.6035" lon="1.17692">
        <ele>240</ele>
        <time>2016-06-04T08:33:30Z</time>
      </trkpt>
      <trkpt lat="43.60353" lon="1.17694">
        <ele>240</ele>
        <time>2016-06-04T08:33:32Z</time>
      </trkpt>
      <trkpt lat="43.60356" lon="1.17695">
        <ele>240</ele>
        <time>2016-06-04T08:33:34Z</time>
      </trkpt>
      <trkpt lat="43.60359" lon="1.17697">
        <ele>241</ele>
        <time>2016-06-04T08:33:36Z</time>
      </trkpt>
      <trkpt lat="43.60362" lon="1.17699">
        <ele>241</ele>
        <time>2016-06-04T08:33:38Z</time>
      </trkpt>
      <trkpt lat="43.60366" lon="1.17701">
        <ele>242</ele>
        <time>2016-06-04T08:33:40Z</time>
      </trkpt>
      <trkpt lat="43.60368" lon="1.17702">
        <ele>242</ele>
        <time>2016-06-04T08:33:42Z</time>
      </trkpt>
      <trkpt lat="43.60371" lon="1.17704">
        <ele>242</ele>
        <time>2016-06-04T08:33:44Z</time>
      </trkpt>
      <trkpt lat="43.60372" lon="1.17705">
        <ele>242</ele>
        <time>2016-06-04T08:33:45Z</time>
      </trkpt>
      <trkpt lat="43.60374" lon="1.17706">
        <ele>243</ele>
        <time>2016-06-04T08:33:46Z</time>
      </trkpt>
      <trkpt lat="43.60378" lon="1.17708">
        <ele>243</ele>
        <time>2016-06-04T08:33:48Z</time>
      </trkpt>
      <trkpt lat="43.6038" lon="1.1771">
        <ele>243</ele>
        <time>2016-06-04T08:33:50Z</time>
      </trkpt>
      <trkpt lat="43.60383" lon="1.17713">
        <ele>244</ele>
        <time>2016-06-04T08:33:52Z</time>
      </trkpt>
      <trkpt lat="43.60386" lon="1.17716">
        <ele>244</ele>
        <time>2016-06-04T08:33:54Z</time>
      </trkpt>
      <trkpt lat="43.60389" lon="1.17718">
        <ele>244</ele>
        <time>2016-06-04T08:33:56Z</time>
      </trkpt>
      <trkpt lat="43.60391" lon="1.17719">
        <ele>244</ele>
        <time>2016-06-04T08:33:58Z</time>
      </trkpt>
      <trkpt lat="43.60393" lon="1.17721">
        <ele>245</ele>
        <time>2016-06-04T08:34:00Z</time>
      </trkpt>
      <trkpt lat="43.60395" lon="1.17723">
        <ele>245</ele>
        <time>2016-06-04T08:34:02Z</time>
      </trkpt>
      <trkpt lat="43.60396" lon="1.17724">
        <ele>245</ele>
        <time>2016-06-04T08:34:03Z</time>
      </trkpt>
      <trkpt lat="43.60397" lon="1.17726">
        <ele>246</ele>
        <time>2016-06-04T08:34:04Z</time>
      </trkpt>
      <trkpt lat="43.604" lon="1.17728">
        <ele>246</ele>
        <time>2016-06-04T08:34:06Z</time>
      </trkpt>
      <trkpt lat="43.60402" lon="1.17732">
        <ele>246</ele>
        <time>2016-06-04T08:34:08Z</time>
      </trkpt>
      <trkpt lat="43.60405" lon="1.17744">
        <ele>247</ele>
        <time>2016-06-04T08:34:12Z</time>
      </trkpt>
      <trkpt lat="43.60409" lon="1.17744">
        <ele>247</ele>
        <time>2016-06-04T08:34:14Z</time>
      </trkpt>
      <trkpt lat="43.60412" lon="1.17745">
        <ele>247</ele>
        <time>2016-06-04T08:34:16Z</time>
      </trkpt>
      <trkpt lat="43.60415" lon="1.17746">
        <ele>247</ele>
        <time>2016-06-04T08:34:18Z</time>
      </trkpt>
      <trkpt lat="43.60418" lon="1.1775">
        <ele>248</ele>
        <time>2016-06-04T08:34:20Z</time>
      </trkpt>
      <trkpt lat="43.60423" lon="1.17752">
        <ele>248</ele>
        <time>2016-06-04T08:34:22Z</time>
      </trkpt>
      <trkpt lat="43.60424" lon="1.17752">
        <ele>248</ele>
        <time>2016-06-04T08:34:23Z</time>
      </trkpt>
      <trkpt lat="43.60427" lon="1.17754">
        <ele>248</ele>
        <time>2016-06-04T08:34:25Z</time>
      </trkpt>
      <trkpt lat="43.60429" lon="1.17755">
        <ele>248</ele>
        <time>2016-06-04T08:34:26Z</time>
      </trkpt>
      <trkpt lat="43.60432" lon="1.17757">
        <ele>248</ele>
        <time>2016-06-04T08:34:28Z</time>
      </trkpt>
      <trkpt lat="43.60434" lon="1.1776">
        <ele>248</ele>
        <time>2016-06-04T08:34:30Z</time>
      </trkpt>
      <trkpt lat="43.60437" lon="1.17764">
        <ele>248</ele>
        <time>2016-06-04T08:34:32Z</time>
      </trkpt>
      <trkpt lat="43.6044" lon="1.17767">
        <ele>248</ele>
        <time>2016-06-04T08:34:34Z</time>
      </trkpt>
      <trkpt lat="43.60442" lon="1.17769">
        <ele>248</ele>
        <time>2016-06-04T08:34:36Z</time>
      </trkpt>
      <trkpt lat="43.60445" lon="1.17772">
        <ele>248</ele>
        <time>2016-06-04T08:34:38Z</time>
      </trkpt>
      <trkpt lat="43.60447" lon="1.17774">
        <ele>247</ele>
        <time>2016-06-04T08:34:40Z</time>
      </trkpt>
      <trkpt lat="43.6045" lon="1.17778">
        <ele>247</ele>
        <time>2016-06-04T08:34:42Z</time>
      </trkpt>
      <trkpt lat="43.60452" lon="1.17779">
        <ele>247</ele>
        <time>2016-06-04T08:34:43Z</time>
      </trkpt>
      <trkpt lat="43.60453" lon="1.1778">
        <ele>246</ele>
        <time>2016-06-04T08:34:44Z</time>
      </trkpt>
      <trkpt lat="43.60455" lon="1.17783">
        <ele>246</ele>
        <time>2016-06-04T08:34:46Z</time>
      </trkpt>
      <trkpt lat="43.60458" lon="1.17786">
        <ele>246</ele>
        <time>2016-06-04T08:34:48Z</time>
      </trkpt>
      <trkpt lat="43.6046" lon="1.1779">
        <ele>246</ele>
        <time>2016-06-04T08:34:50Z</time>
      </trkpt>
      <trkpt lat="43.60462" lon="1.17792">
        <ele>246</ele>
        <time>2016-06-04T08:34:52Z</time>
      </trkpt>
      <trkpt lat="43.60463" lon="1.17793">
        <ele>246</ele>
        <time>2016-06-04T08:34:53Z</time>
      </trkpt>
      <trkpt lat="43.60465" lon="1.17796">
        <ele>246</ele>
        <time>2016-06-04T08:34:55Z</time>
      </trkpt>
      <trkpt lat="43.60465" lon="1.17798">
        <ele>246</ele>
        <time>2016-06-04T08:34:56Z</time>
      </trkpt>
      <trkpt lat="43.60467" lon="1.17801">
        <ele>246</ele>
        <time>2016-06-04T08:34:58Z</time>
      </trkpt>
      <trkpt lat="43.60469" lon="1.17803">
        <ele>246</ele>
        <time>2016-06-04T08:35:00Z</time>
      </trkpt>
      <trkpt lat="43.6047" lon="1.17807">
        <ele>246</ele>
        <time>2016-06-04T08:35:02Z</time>
      </trkpt>
      <trkpt lat="43.60471" lon="1.17808">
        <ele>246</ele>
        <time>2016-06-04T08:35:03Z</time>
      </trkpt>
      <trkpt lat="43.60476" lon="1.17816">
        <ele>246</ele>
        <time>2016-06-04T08:35:08Z</time>
      </trkpt>
      <trkpt lat="43.60481" lon="1.17823">
        <ele>247</ele>
        <time>2016-06-04T08:35:12Z</time>
      </trkpt>
      <trkpt lat="43.60484" lon="1.17829">
        <ele>247</ele>
        <time>2016-06-04T08:35:16Z</time>
      </trkpt>
      <trkpt lat="43.60487" lon="1.17836">
        <ele>246</ele>
        <time>2016-06-04T08:35:19Z</time>
      </trkpt>
      <trkpt lat="43.60489" lon="1.17841">
        <ele>246</ele>
        <time>2016-06-04T08:35:22Z</time>
      </trkpt>
      <trkpt lat="43.60491" lon="1.17848">
        <ele>246</ele>
        <time>2016-06-04T08:35:25Z</time>
      </trkpt>
      <trkpt lat="43.60492" lon="1.17855">
        <ele>245</ele>
        <time>2016-06-04T08:35:28Z</time>
      </trkpt>
      <trkpt lat="43.60496" lon="1.17864">
        <ele>245</ele>
        <time>2016-06-04T08:35:32Z</time>
      </trkpt>
      <trkpt lat="43.605" lon="1.17871">
        <ele>245</ele>
        <time>2016-06-04T08:35:36Z</time>
      </trkpt>
      <trkpt lat="43.60504" lon="1.17878">
        <ele>245</ele>
        <time>2016-06-04T08:35:40Z</time>
      </trkpt>
      <trkpt lat="43.60507" lon="1.17883">
        <ele>245</ele>
        <time>2016-06-04T08:35:43Z</time>
      </trkpt>
      <trkpt lat="43.6051" lon="1.17889">
        <ele>245</ele>
        <time>2016-06-04T08:35:46Z</time>
      </trkpt>
      <trkpt lat="43.60513" lon="1.17897">
        <ele>245</ele>
        <time>2016-06-04T08:35:50Z</time>
      </trkpt>
      <trkpt lat="43.60516" lon="1.17904">
        <ele>245</ele>
        <time>2016-06-04T08:35:54Z</time>
      </trkpt>
      <trkpt lat="43.60519" lon="1.17912">
        <ele>245</ele>
        <time>2016-06-04T08:35:58Z</time>
      </trkpt>
      <trkpt lat="43.60521" lon="1.17919">
        <ele>246</ele>
        <time>2016-06-04T08:36:02Z</time>
      </trkpt>
      <trkpt lat="43.60523" lon="1.17927">
        <ele>246</ele>
        <time>2016-06-04T08:36:04Z</time>
      </trkpt>
      <trkpt lat="43.60526" lon="1.17935">
        <ele>246</ele>
        <time>2016-06-04T08:36:08Z</time>
      </trkpt>
      <trkpt lat="43.60529" lon="1.17943">
        <ele>246</ele>
        <time>2016-06-04T08:36:12Z</time>
      </trkpt>
      <trkpt lat="43.60533" lon="1.17952">
        <ele>247</ele>
        <time>2016-06-04T08:36:16Z</time>
      </trkpt>
      <trkpt lat="43.60536" lon="1.17958">
        <ele>247</ele>
        <time>2016-06-04T08:36:20Z</time>
      </trkpt>
      <trkpt lat="43.6054" lon="1.17966">
        <ele>247</ele>
        <time>2016-06-04T08:36:24Z</time>
      </trkpt>
      <trkpt lat="43.60544" lon="1.17972">
        <ele>247</ele>
        <time>2016-06-04T08:36:28Z</time>
      </trkpt>
      <trkpt lat="43.60547" lon="1.17981">
        <ele>247</ele>
        <time>2016-06-04T08:36:32Z</time>
      </trkpt>
      <trkpt lat="43.60549" lon="1.17992">
        <ele>247</ele>
        <time>2016-06-04T08:36:36Z</time>
      </trkpt>
      <trkpt lat="43.60551" lon="1.18">
        <ele>246</ele>
        <time>2016-06-04T08:36:40Z</time>
      </trkpt>
      <trkpt lat="43.60552" lon="1.18008">
        <ele>246</ele>
        <time>2016-06-04T08:36:44Z</time>
      </trkpt>
      <trkpt lat="43.60553" lon="1.18015">
        <ele>245</ele>
        <time>2016-06-04T08:36:48Z</time>
      </trkpt>
      <trkpt lat="43.60556" lon="1.18025">
        <ele>244</ele>
        <time>2016-06-04T08:36:52Z</time>
      </trkpt>
      <trkpt lat="43.60558" lon="1.18033">
        <ele>243</ele>
        <time>2016-06-04T08:36:56Z</time>
      </trkpt>
      <trkpt lat="43.6056" lon="1.18042">
        <ele>243</ele>
        <time>2016-06-04T08:37:00Z</time>
      </trkpt>
      <trkpt lat="43.60562" lon="1.18052">
        <ele>242</ele>
        <time>2016-06-04T08:37:04Z</time>
      </trkpt>
      <trkpt lat="43.60563" lon="1.18062">
        <ele>241</ele>
        <time>2016-06-04T08:37:08Z</time>
      </trkpt>
      <trkpt lat="43.60564" lon="1.18073">
        <ele>240</ele>
        <time>2016-06-04T08:37:12Z</time>
      </trkpt>
      <trkpt lat="43.60566" lon="1.18085">
        <ele>239</ele>
        <time>2016-06-04T08:37:16Z</time>
      </trkpt>
      <trkpt lat="43.60566" lon="1.18093">
        <ele>239</ele>
        <time>2016-06-04T08:37:19Z</time>
      </trkpt>
      <trkpt lat="43.60568" lon="1.18101">
        <ele>238</ele>
        <time>2016-06-04T08:37:22Z</time>
      </trkpt>
      <trkpt lat="43.60569" lon="1.18111">
        <ele>237</ele>
        <time>2016-06-04T08:37:24Z</time>
      </trkpt>
      <trkpt lat="43.60569" lon="1.18118">
        <ele>236</ele>
        <time>2016-06-04T08:37:26Z</time>
      </trkpt>
      <trkpt lat="43.6057" lon="1.18125">
        <ele>235</ele>
        <time>2016-06-04T08:37:28Z</time>
      </trkpt>
      <trkpt lat="43.60572" lon="1.18147">
        <ele>234</ele>
        <time>2016-06-04T08:37:34Z</time>
      </trkpt>
      <trkpt lat="43.60572" lon="1.18158">
        <ele>233</ele>
        <time>2016-06-04T08:37:38Z</time>
      </trkpt>
      <trkpt lat="43.60572" lon="1.18165">
        <ele>232</ele>
        <time>2016-06-04T08:37:42Z</time>
      </trkpt>
      <trkpt lat="43.60572" lon="1.18173">
        <ele>231</ele>
        <time>2016-06-04T08:37:48Z</time>
      </trkpt>
      <trkpt lat="43.60572" lon="1.18174">
        <ele>231</ele>
        <time>2016-06-04T08:37:50Z</time>
      </trkpt>
      <trkpt lat="43.60572" lon="1.18174">
        <ele>230</ele>
        <time>2016-06-04T08:38:18Z</time>
      </trkpt>
      <trkpt lat="43.60572" lon="1.18174">
        <ele>230</ele>
        <time>2016-06-04T08:38:20Z</time>
      </trkpt>
      <trkpt lat="43.60572" lon="1.18174">
        <ele>230</ele>
        <time>2016-06-04T08:38:49Z</time>
      </trkpt>
      <trkpt lat="43.60572" lon="1.18174">
        <ele>230</ele>
        <time>2016-06-04T08:38:50Z</time>
      </trkpt>
      <trkpt lat="43.60572" lon="1.18174">
        <ele>230</ele>
        <time>2016-06-04T08:39:20Z</time>
      </trkpt>
      <trkpt lat="43.60572" lon="1.18174">
        <ele>230</ele>
        <time>2016-06-04T08:39:22Z</time>
      </trkpt>
      <trkpt lat="43.60574" lon="1.18179">
        <ele>228</ele>
        <time>2016-06-04T08:40:24Z</time>
      </trkpt>
      <trkpt lat="43.60575" lon="1.18178">
        <ele>227</ele>
        <time>2016-06-04T08:40:26Z</time>
      </trkpt>
      <trkpt lat="43.60576" lon="1.18176">
        <ele>226</ele>
        <time>2016-06-04T08:40:28Z</time>
      </trkpt>
      <trkpt lat="43.60577" lon="1.18174">
        <ele>224</ele>
        <time>2016-06-04T08:40:30Z</time>
      </trkpt>
      <trkpt lat="43.6058" lon="1.18168">
        <ele>223</ele>
        <time>2016-06-04T08:40:34Z</time>
      </trkpt>
      <trkpt lat="43.60582" lon="1.18164">
        <ele>223</ele>
        <time>2016-06-04T08:40:36Z</time>
      </trkpt>
      <trkpt lat="43.60584" lon="1.18158">
        <ele>223</ele>
        <time>2016-06-04T08:40:40Z</time>
      </trkpt>
      <trkpt lat="43.60586" lon="1.18151">
        <ele>223</ele>
        <time>2016-06-04T08:40:44Z</time>
      </trkpt>
      <trkpt lat="43.60588" lon="1.18147">
        <ele>223</ele>
        <time>2016-06-04T08:40:46Z</time>
      </trkpt>
      <trkpt lat="43.6059" lon="1.18141">
        <ele>224</ele>
        <time>2016-06-04T08:40:50Z</time>
      </trkpt>
      <trkpt lat="43.60593" lon="1.18135">
        <ele>224</ele>
        <time>2016-06-04T08:40:54Z</time>
      </trkpt>
      <trkpt lat="43.60595" lon="1.18128">
        <ele>224</ele>
        <time>2016-06-04T08:40:58Z</time>
      </trkpt>
      <trkpt lat="43.60598" lon="1.18123">
        <ele>225</ele>
        <time>2016-06-04T08:41:00Z</time>
      </trkpt>
      <trkpt lat="43.606" lon="1.18119">
        <ele>225</ele>
        <time>2016-06-04T08:41:02Z</time>
      </trkpt>
      <trkpt lat="43.60605" lon="1.18113">
        <ele>226</ele>
        <time>2016-06-04T08:41:06Z</time>
      </trkpt>
      <trkpt lat="43.60606" lon="1.1811">
        <ele>226</ele>
        <time>2016-06-04T08:41:08Z</time>
      </trkpt>
      <trkpt lat="43.60608" lon="1.18107">
        <ele>226</ele>
        <time>2016-06-04T08:41:10Z</time>
      </trkpt>
      <trkpt lat="43.60609" lon="1.18098">
        <ele>227</ele>
        <time>2016-06-04T08:41:16Z</time>
      </trkpt>
      <trkpt lat="43.6061" lon="1.18096">
        <ele>227</ele>
        <time>2016-06-04T08:41:17Z</time>
      </trkpt>
      <trkpt lat="43.60611" lon="1.18093">
        <ele>228</ele>
        <time>2016-06-04T08:41:19Z</time>
      </trkpt>
      <trkpt lat="43.60612" lon="1.18091">
        <ele>228</ele>
        <time>2016-06-04T08:41:20Z</time>
      </trkpt>
      <trkpt lat="43.60613" lon="1.18087">
        <ele>228</ele>
        <time>2016-06-04T08:41:22Z</time>
      </trkpt>
      <trkpt lat="43.60617" lon="1.18081">
        <ele>229</ele>
        <time>2016-06-04T08:41:26Z</time>
      </trkpt>
      <trkpt lat="43.60619" lon="1.18077">
        <ele>229</ele>
        <time>2016-06-04T08:41:28Z</time>
      </trkpt>
      <trkpt lat="43.60621" lon="1.18074">
        <ele>229</ele>
        <time>2016-06-04T08:41:30Z</time>
      </trkpt>
      <trkpt lat="43.60625" lon="1.18069">
        <ele>229</ele>
        <time>2016-06-04T08:41:34Z</time>
      </trkpt>
      <trkpt lat="43.60627" lon="1.18066">
        <ele>230</ele>
        <time>2016-06-04T08:41:36Z</time>
      </trkpt>
      <trkpt lat="43.60631" lon="1.18061">
        <ele>230</ele>
        <time>2016-06-04T08:41:40Z</time>
      </trkpt>
      <trkpt lat="43.60633" lon="1.18059">
        <ele>231</ele>
        <time>2016-06-04T08:41:42Z</time>
      </trkpt>
      <trkpt lat="43.60634" lon="1.18057">
        <ele>231</ele>
        <time>2016-06-04T08:41:43Z</time>
      </trkpt>
      <trkpt lat="43.60635" lon="1.18056">
        <ele>231</ele>
        <time>2016-06-04T08:41:44Z</time>
      </trkpt>
      <trkpt lat="43.60637" lon="1.18055">
        <ele>232</ele>
        <time>2016-06-04T08:41:46Z</time>
      </trkpt>
      <trkpt lat="43.6064" lon="1.1805">
        <ele>232</ele>
        <time>2016-06-04T08:41:50Z</time>
      </trkpt>
      <trkpt lat="43.60644" lon="1.18045">
        <ele>232</ele>
        <time>2016-06-04T08:41:54Z</time>
      </trkpt>
      <trkpt lat="43.60645" lon="1.18044">
        <ele>233</ele>
        <time>2016-06-04T08:41:55Z</time>
      </trkpt>
      <trkpt lat="43.60648" lon="1.18041">
        <ele>233</ele>
        <time>2016-06-04T08:41:58Z</time>
      </trkpt>
      <trkpt lat="43.60651" lon="1.18038">
        <ele>233</ele>
        <time>2016-06-04T08:42:00Z</time>
      </trkpt>
      <trkpt lat="43.60654" lon="1.18036">
        <ele>234</ele>
        <time>2016-06-04T08:42:02Z</time>
      </trkpt>
      <trkpt lat="43.60658" lon="1.18032">
        <ele>234</ele>
        <time>2016-06-04T08:42:06Z</time>
      </trkpt>
      <trkpt lat="43.6066" lon="1.1803">
        <ele>234</ele>
        <time>2016-06-04T08:42:08Z</time>
      </trkpt>
      <trkpt lat="43.60663" lon="1.18028">
        <ele>234</ele>
        <time>2016-06-04T08:42:10Z</time>
      </trkpt>
      <trkpt lat="43.60666" lon="1.18025">
        <ele>234</ele>
        <time>2016-06-04T08:42:12Z</time>
      </trkpt>
      <trkpt lat="43.60669" lon="1.18021">
        <ele>235</ele>
        <time>2016-06-04T08:42:16Z</time>
      </trkpt>
      <trkpt lat="43.60672" lon="1.18019">
        <ele>235</ele>
        <time>2016-06-04T08:42:18Z</time>
      </trkpt>
      <trkpt lat="43.60677" lon="1.18014">
        <ele>235</ele>
        <time>2016-06-04T08:42:24Z</time>
      </trkpt>
      <trkpt lat="43.60679" lon="1.18013">
        <ele>235</ele>
        <time>2016-06-04T08:42:26Z</time>
      </trkpt>
      <trkpt lat="43.60682" lon="1.18012">
        <ele>235</ele>
        <time>2016-06-04T08:42:28Z</time>
      </trkpt>
      <trkpt lat="43.60685" lon="1.18009">
        <ele>236</ele>
        <time>2016-06-04T08:42:30Z</time>
      </trkpt>
      <trkpt lat="43.60689" lon="1.18007">
        <ele>236</ele>
        <time>2016-06-04T08:42:34Z</time>
      </trkpt>
      <trkpt lat="43.60701" lon="1.17999">
        <ele>236</ele>
        <time>2016-06-04T08:42:40Z</time>
      </trkpt>
      <trkpt lat="43.6071" lon="1.17994">
        <ele>237</ele>
        <time>2016-06-04T08:42:46Z</time>
      </trkpt>
      <trkpt lat="43.60712" lon="1.17993">
        <ele>237</ele>
        <time>2016-06-04T08:42:48Z</time>
      </trkpt>
      <trkpt lat="43.60714" lon="1.17992">
        <ele>237</ele>
        <time>2016-06-04T08:42:50Z</time>
      </trkpt>
      <trkpt lat="43.60717" lon="1.1799">
        <ele>237</ele>
        <time>2016-06-04T08:42:52Z</time>
      </trkpt>
      <trkpt lat="43.60725" lon="1.17985">
        <ele>238</ele>
        <time>2016-06-04T08:42:56Z</time>
      </trkpt>
      <trkpt lat="43.60733" lon="1.17981">
        <ele>238</ele>
        <time>2016-06-04T08:43:00Z</time>
      </trkpt>
      <trkpt lat="43.60737" lon="1.1798">
        <ele>238</ele>
        <time>2016-06-04T08:43:02Z</time>
      </trkpt>
      <trkpt lat="43.60741" lon="1.17979">
        <ele>238</ele>
        <time>2016-06-04T08:43:06Z</time>
      </trkpt>
      <trkpt lat="43.60742" lon="1.17979">
        <ele>238</ele>
        <time>2016-06-04T08:43:07Z</time>
      </trkpt>
      <trkpt lat="43.60746" lon="1.17978">
        <ele>237</ele>
        <time>2016-06-04T08:43:12Z</time>
      </trkpt>
      <trkpt lat="43.60748" lon="1.17975">
        <ele>237</ele>
        <time>2016-06-04T08:43:14Z</time>
      </trkpt>
      <trkpt lat="43.60751" lon="1.17973">
        <ele>237</ele>
        <time>2016-06-04T08:43:16Z</time>
      </trkpt>
      <trkpt lat="43.60755" lon="1.17971">
        <ele>236</ele>
        <time>2016-06-04T08:43:18Z</time>
      </trkpt>
      <trkpt lat="43.60758" lon="1.17969">
        <ele>236</ele>
        <time>2016-06-04T08:43:20Z</time>
      </trkpt>
      <trkpt lat="43.60764" lon="1.17966">
        <ele>236</ele>
        <time>2016-06-04T08:43:24Z</time>
      </trkpt>
      <trkpt lat="43.60767" lon="1.17965">
        <ele>235</ele>
        <time>2016-06-04T08:43:26Z</time>
      </trkpt>
      <trkpt lat="43.6077" lon="1.17963">
        <ele>235</ele>
        <time>2016-06-04T08:43:28Z</time>
      </trkpt>
      <trkpt lat="43.60772" lon="1.17963">
        <ele>235</ele>
        <time>2016-06-04T08:43:30Z</time>
      </trkpt>
      <trkpt lat="43.60774" lon="1.17962">
        <ele>234</ele>
        <time>2016-06-04T08:43:32Z</time>
      </trkpt>
      <trkpt lat="43.60777" lon="1.17961">
        <ele>234</ele>
        <time>2016-06-04T08:43:34Z</time>
      </trkpt>
      <trkpt lat="43.60778" lon="1.1796">
        <ele>234</ele>
        <time>2016-06-04T08:43:36Z</time>
      </trkpt>
      <trkpt lat="43.60783" lon="1.17958">
        <ele>234</ele>
        <time>2016-06-04T08:43:40Z</time>
      </trkpt>
      <trkpt lat="43.60784" lon="1.17957">
        <ele>234</ele>
        <time>2016-06-04T08:43:42Z</time>
      </trkpt>
      <trkpt lat="43.60788" lon="1.17954">
        <ele>234</ele>
        <time>2016-06-04T08:43:46Z</time>
      </trkpt>
      <trkpt lat="43.60794" lon="1.1795">
        <ele>235</ele>
        <time>2016-06-04T08:43:52Z</time>
      </trkpt>
      <trkpt lat="43.60799" lon="1.17947">
        <ele>235</ele>
        <time>2016-06-04T08:43:56Z</time>
      </trkpt>
      <trkpt lat="43.60805" lon="1.17943">
        <ele>235</ele>
        <time>2016-06-04T08:44:00Z</time>
      </trkpt>
      <trkpt lat="43.60815" lon="1.17936">
        <ele>235</ele>
        <time>2016-06-04T08:44:06Z</time>
      </trkpt>
      <trkpt lat="43.60818" lon="1.17935">
        <ele>235</ele>
        <time>2016-06-04T08:44:08Z</time>
      </trkpt>
      <trkpt lat="43.6082" lon="1.17933">
        <ele>235</ele>
        <time>2016-06-04T08:44:10Z</time>
      </trkpt>
      <trkpt lat="43.60825" lon="1.1793">
        <ele>235</ele>
        <time>2016-06-04T08:44:14Z</time>
      </trkpt>
      <trkpt lat="43.60828" lon="1.17929">
        <ele>236</ele>
        <time>2016-06-04T08:44:16Z</time>
      </trkpt>
      <trkpt lat="43.60833" lon="1.17926">
        <ele>236</ele>
        <time>2016-06-04T08:44:20Z</time>
      </trkpt>
      <trkpt lat="43.60834" lon="1.17925">
        <ele>237</ele>
        <time>2016-06-04T08:44:22Z</time>
      </trkpt>
      <trkpt lat="43.60838" lon="1.17923">
        <ele>237</ele>
        <time>2016-06-04T08:44:26Z</time>
      </trkpt>
      <trkpt lat="43.60843" lon="1.1792">
        <ele>238</ele>
        <time>2016-06-04T08:44:30Z</time>
      </trkpt>
      <trkpt lat="43.6086" lon="1.1791">
        <ele>239</ele>
        <time>2016-06-04T08:44:38Z</time>
      </trkpt>
      <trkpt lat="43.60865" lon="1.17907">
        <ele>239</ele>
        <time>2016-06-04T08:44:42Z</time>
      </trkpt>
      <trkpt lat="43.60868" lon="1.17905">
        <ele>239</ele>
        <time>2016-06-04T08:44:44Z</time>
      </trkpt>
      <trkpt lat="43.60873" lon="1.17903">
        <ele>239</ele>
        <time>2016-06-04T08:44:48Z</time>
      </trkpt>
      <trkpt lat="43.60876" lon="1.179">
        <ele>239</ele>
        <time>2016-06-04T08:44:52Z</time>
      </trkpt>
      <trkpt lat="43.60882" lon="1.17897">
        <ele>239</ele>
        <time>2016-06-04T08:44:58Z</time>
      </trkpt>
      <trkpt lat="43.60886" lon="1.17897">
        <ele>240</ele>
        <time>2016-06-04T08:45:00Z</time>
      </trkpt>
      <trkpt lat="43.60888" lon="1.17897">
        <ele>240</ele>
        <time>2016-06-04T08:45:02Z</time>
      </trkpt>
      <trkpt lat="43.60891" lon="1.17898">
        <ele>240</ele>
        <time>2016-06-04T08:45:04Z</time>
      </trkpt>
      <trkpt lat="43.60897" lon="1.17896">
        <ele>241</ele>
        <time>2016-06-04T08:45:08Z</time>
      </trkpt>
      <trkpt lat="43.609" lon="1.17893">
        <ele>241</ele>
        <time>2016-06-04T08:45:10Z</time>
      </trkpt>
      <trkpt lat="43.60902" lon="1.17891">
        <ele>242</ele>
        <time>2016-06-04T08:45:12Z</time>
      </trkpt>
      <trkpt lat="43.60905" lon="1.17889">
        <ele>242</ele>
        <time>2016-06-04T08:45:14Z</time>
      </trkpt>
      <trkpt lat="43.60908" lon="1.17887">
        <ele>242</ele>
        <time>2016-06-04T08:45:16Z</time>
      </trkpt>
      <trkpt lat="43.60917" lon="1.17882">
        <ele>243</ele>
        <time>2016-06-04T08:45:22Z</time>
      </trkpt>
      <trkpt lat="43.60918" lon="1.17881">
        <ele>243</ele>
        <time>2016-06-04T08:45:24Z</time>
      </trkpt>
      <trkpt lat="43.60919" lon="1.17881">
        <ele>244</ele>
        <time>2016-06-04T08:45:26Z</time>
      </trkpt>
      <trkpt lat="43.60922" lon="1.1788">
        <ele>244</ele>
        <time>2016-06-04T08:45:28Z</time>
      </trkpt>
      <trkpt lat="43.60929" lon="1.17875">
        <ele>245</ele>
        <time>2016-06-04T08:45:32Z</time>
      </trkpt>
      <trkpt lat="43.60932" lon="1.17873">
        <ele>245</ele>
        <time>2016-06-04T08:45:34Z</time>
      </trkpt>
      <trkpt lat="43.60933" lon="1.17873">
        <ele>245</ele>
        <time>2016-06-04T08:45:35Z</time>
      </trkpt>
      <trkpt lat="43.60945" lon="1.17867">
        <ele>246</ele>
        <time>2016-06-04T08:45:42Z</time>
      </trkpt>
      <trkpt lat="43.60958" lon="1.17859">
        <ele>246</ele>
        <time>2016-06-04T08:45:48Z</time>
      </trkpt>
      <trkpt lat="43.6096" lon="1.17858">
        <ele>246</ele>
        <time>2016-06-04T08:45:50Z</time>
      </trkpt>
      <trkpt lat="43.60961" lon="1.17857">
        <ele>246</ele>
        <time>2016-06-04T08:45:52Z</time>
      </trkpt>
      <trkpt lat="43.60963" lon="1.17856">
        <ele>245</ele>
        <time>2016-06-04T08:45:54Z</time>
      </trkpt>
      <trkpt lat="43.60965" lon="1.17853">
        <ele>245</ele>
        <time>2016-06-04T08:45:56Z</time>
      </trkpt>
      <trkpt lat="43.60968" lon="1.17851">
        <ele>245</ele>
        <time>2016-06-04T08:45:58Z</time>
      </trkpt>
      <trkpt lat="43.60969" lon="1.17851">
        <ele>245</ele>
        <time>2016-06-04T08:46:00Z</time>
      </trkpt>
      <trkpt lat="43.60971" lon="1.1785">
        <ele>245</ele>
        <time>2016-06-04T08:46:02Z</time>
      </trkpt>
      <trkpt lat="43.60973" lon="1.17848">
        <ele>245</ele>
        <time>2016-06-04T08:46:04Z</time>
      </trkpt>
      <trkpt lat="43.60975" lon="1.17848">
        <ele>245</ele>
        <time>2016-06-04T08:46:06Z</time>
      </trkpt>
      <trkpt lat="43.60977" lon="1.17848">
        <ele>245</ele>
        <time>2016-06-04T08:46:08Z</time>
      </trkpt>
      <trkpt lat="43.60979" lon="1.17847">
        <ele>246</ele>
        <time>2016-06-04T08:46:09Z</time>
      </trkpt>
      <trkpt lat="43.6098" lon="1.17846">
        <ele>246</ele>
        <time>2016-06-04T08:46:10Z</time>
      </trkpt>
      <trkpt lat="43.60982" lon="1.17844">
        <ele>246</ele>
        <time>2016-06-04T08:46:12Z</time>
      </trkpt>
      <trkpt lat="43.60983" lon="1.17844">
        <ele>246</ele>
        <time>2016-06-04T08:46:13Z</time>
      </trkpt>
      <trkpt lat="43.60984" lon="1.17843">
        <ele>247</ele>
        <time>2016-06-04T08:46:15Z</time>
      </trkpt>
      <trkpt lat="43.60986" lon="1.17842">
        <ele>247</ele>
        <time>2016-06-04T08:46:16Z</time>
      </trkpt>
      <trkpt lat="43.60989" lon="1.17841">
        <ele>247</ele>
        <time>2016-06-04T08:46:18Z</time>
      </trkpt>
      <trkpt lat="43.60991" lon="1.1784">
        <ele>247</ele>
        <time>2016-06-04T08:46:20Z</time>
      </trkpt>
      <trkpt lat="43.60992" lon="1.17839">
        <ele>247</ele>
        <time>2016-06-04T08:46:22Z</time>
      </trkpt>
      <trkpt lat="43.60995" lon="1.17838">
        <ele>248</ele>
        <time>2016-06-04T08:46:24Z</time>
      </trkpt>
      <trkpt lat="43.60997" lon="1.17836">
        <ele>248</ele>
        <time>2016-06-04T08:46:26Z</time>
      </trkpt>
      <trkpt lat="43.60999" lon="1.17835">
        <ele>248</ele>
        <time>2016-06-04T08:46:28Z</time>
      </trkpt>
      <trkpt lat="43.61001" lon="1.17833">
        <ele>249</ele>
        <time>2016-06-04T08:46:30Z</time>
      </trkpt>
      <trkpt lat="43.61003" lon="1.17832">
        <ele>249</ele>
        <time>2016-06-04T08:46:32Z</time>
      </trkpt>
      <trkpt lat="43.61005" lon="1.1783">
        <ele>249</ele>
        <time>2016-06-04T08:46:34Z</time>
      </trkpt>
      <trkpt lat="43.61008" lon="1.17829">
        <ele>249</ele>
        <time>2016-06-04T08:46:36Z</time>
      </trkpt>
      <trkpt lat="43.61009" lon="1.17828">
        <ele>250</ele>
        <time>2016-06-04T08:46:37Z</time>
      </trkpt>
      <trkpt lat="43.6101" lon="1.17827">
        <ele>250</ele>
        <time>2016-06-04T08:46:38Z</time>
      </trkpt>
      <trkpt lat="43.61015" lon="1.17824">
        <ele>250</ele>
        <time>2016-06-04T08:46:40Z</time>
      </trkpt>
      <trkpt lat="43.61021" lon="1.17823">
        <ele>251</ele>
        <time>2016-06-04T08:46:44Z</time>
      </trkpt>
      <trkpt lat="43.61021" lon="1.17823">
        <ele>251</ele>
        <time>2016-06-04T08:46:46Z</time>
      </trkpt>
      <trkpt lat="43.61025" lon="1.1782">
        <ele>251</ele>
        <time>2016-06-04T08:46:48Z</time>
      </trkpt>
      <trkpt lat="43.61027" lon="1.17818">
        <ele>251</ele>
        <time>2016-06-04T08:46:50Z</time>
      </trkpt>
      <trkpt lat="43.61034" lon="1.17815">
        <ele>252</ele>
        <time>2016-06-04T08:46:54Z</time>
      </trkpt>
      <trkpt lat="43.61037" lon="1.17814">
        <ele>252</ele>
        <time>2016-06-04T08:46:56Z</time>
      </trkpt>
      <trkpt lat="43.61039" lon="1.17813">
        <ele>253</ele>
        <time>2016-06-04T08:46:58Z</time>
      </trkpt>
      <trkpt lat="43.61041" lon="1.17812">
        <ele>253</ele>
        <time>2016-06-04T08:47:00Z</time>
      </trkpt>
      <trkpt lat="43.61043" lon="1.1781">
        <ele>253</ele>
        <time>2016-06-04T08:47:02Z</time>
      </trkpt>
      <trkpt lat="43.61044" lon="1.17808">
        <ele>253</ele>
        <time>2016-06-04T08:47:04Z</time>
      </trkpt>
      <trkpt lat="43.61046" lon="1.17807">
        <ele>253</ele>
        <time>2016-06-04T08:47:06Z</time>
      </trkpt>
      <trkpt lat="43.61047" lon="1.17806">
        <ele>254</ele>
        <time>2016-06-04T08:47:08Z</time>
      </trkpt>
      <trkpt lat="43.6105" lon="1.17805">
        <ele>254</ele>
        <time>2016-06-04T08:47:10Z</time>
      </trkpt>
      <trkpt lat="43.61052" lon="1.17803">
        <ele>254</ele>
        <time>2016-06-04T08:47:12Z</time>
      </trkpt>
      <trkpt lat="43.61054" lon="1.17801">
        <ele>254</ele>
        <time>2016-06-04T08:47:14Z</time>
      </trkpt>
      <trkpt lat="43.61055" lon="1.178">
        <ele>254</ele>
        <time>2016-06-04T08:47:16Z</time>
      </trkpt>
      <trkpt lat="43.61056" lon="1.178">
        <ele>254</ele>
        <time>2016-06-04T08:47:17Z</time>
      </trkpt>
      <trkpt lat="43.61058" lon="1.17798">
        <ele>255</ele>
        <time>2016-06-04T08:47:19Z</time>
      </trkpt>
      <trkpt lat="43.61059" lon="1.17797">
        <ele>255</ele>
        <time>2016-06-04T08:47:20Z</time>
      </trkpt>
      <trkpt lat="43.6106" lon="1.17796">
        <ele>255</ele>
        <time>2016-06-04T08:47:22Z</time>
      </trkpt>
      <trkpt lat="43.61063" lon="1.17794">
        <ele>255</ele>
        <time>2016-06-04T08:47:24Z</time>
      </trkpt>
      <trkpt lat="43.61066" lon="1.17792">
        <ele>255</ele>
        <time>2016-06-04T08:47:26Z</time>
      </trkpt>
      <trkpt lat="43.6107" lon="1.17791">
        <ele>255</ele>
        <time>2016-06-04T08:47:28Z</time>
      </trkpt>
      <trkpt lat="43.61071" lon="1.17791">
        <ele>255</ele>
        <time>2016-06-04T08:47:30Z</time>
      </trkpt>
      <trkpt lat="43.61075" lon="1.17789">
        <ele>255</ele>
        <time>2016-06-04T08:47:32Z</time>
      </trkpt>
      <trkpt lat="43.6108" lon="1.17787">
        <ele>256</ele>
        <time>2016-06-04T08:47:34Z</time>
      </trkpt>
      <trkpt lat="43.61083" lon="1.17786">
        <ele>256</ele>
        <time>2016-06-04T08:47:36Z</time>
      </trkpt>
      <trkpt lat="43.61091" lon="1.17784">
        <ele>256</ele>
        <time>2016-06-04T08:47:40Z</time>
      </trkpt>
      <trkpt lat="43.61095" lon="1.17784">
        <ele>256</ele>
        <time>2016-06-04T08:47:42Z</time>
      </trkpt>
      <trkpt lat="43.61105" lon="1.17782">
        <ele>257</ele>
        <time>2016-06-04T08:47:46Z</time>
      </trkpt>
      <trkpt lat="43.6111" lon="1.17779">
        <ele>257</ele>
        <time>2016-06-04T08:47:48Z</time>
      </trkpt>
      <trkpt lat="43.61117" lon="1.17776">
        <ele>257</ele>
        <time>2016-06-04T08:47:52Z</time>
      </trkpt>
      <trkpt lat="43.61119" lon="1.17775">
        <ele>257</ele>
        <time>2016-06-04T08:47:54Z</time>
      </trkpt>
      <trkpt lat="43.61121" lon="1.17775">
        <ele>257</ele>
        <time>2016-06-04T08:47:56Z</time>
      </trkpt>
      <trkpt lat="43.61126" lon="1.17775">
        <ele>256</ele>
        <time>2016-06-04T08:47:58Z</time>
      </trkpt>
      <trkpt lat="43.61127" lon="1.17776">
        <ele>256</ele>
        <time>2016-06-04T08:48:00Z</time>
      </trkpt>
      <trkpt lat="43.61129" lon="1.17776">
        <ele>256</ele>
        <time>2016-06-04T08:48:02Z</time>
      </trkpt>
      <trkpt lat="43.61131" lon="1.17778">
        <ele>256</ele>
        <time>2016-06-04T08:48:04Z</time>
      </trkpt>
      <trkpt lat="43.61132" lon="1.17781">
        <ele>256</ele>
        <time>2016-06-04T08:48:06Z</time>
      </trkpt>
      <trkpt lat="43.61135" lon="1.17782">
        <ele>256</ele>
        <time>2016-06-04T08:48:08Z</time>
      </trkpt>
      <trkpt lat="43.61137" lon="1.17784">
        <ele>256</ele>
        <time>2016-06-04T08:48:10Z</time>
      </trkpt>
      <trkpt lat="43.6114" lon="1.17785">
        <ele>256</ele>
        <time>2016-06-04T08:48:12Z</time>
      </trkpt>
      <trkpt lat="43.61141" lon="1.17786">
        <ele>256</ele>
        <time>2016-06-04T08:48:13Z</time>
      </trkpt>
      <trkpt lat="43.61142" lon="1.17788">
        <ele>256</ele>
        <time>2016-06-04T08:48:14Z</time>
      </trkpt>
      <trkpt lat="43.61144" lon="1.17788">
        <ele>256</ele>
        <time>2016-06-04T08:48:16Z</time>
      </trkpt>
      <trkpt lat="43.61145" lon="1.1779">
        <ele>256</ele>
        <time>2016-06-04T08:48:18Z</time>
      </trkpt>
      <trkpt lat="43.61145" lon="1.17792">
        <ele>257</ele>
        <time>2016-06-04T08:48:20Z</time>
      </trkpt>
      <trkpt lat="43.61145" lon="1.17793">
        <ele>257</ele>
        <time>2016-06-04T08:48:22Z</time>
      </trkpt>
      <trkpt lat="43.61146" lon="1.17795">
        <ele>257</ele>
        <time>2016-06-04T08:48:24Z</time>
      </trkpt>
      <trkpt lat="43.61148" lon="1.17796">
        <ele>257</ele>
        <time>2016-06-04T08:48:26Z</time>
      </trkpt>
      <trkpt lat="43.61149" lon="1.17798">
        <ele>258</ele>
        <time>2016-06-04T08:48:28Z</time>
      </trkpt>
      <trkpt lat="43.61151" lon="1.17801">
        <ele>258</ele>
        <time>2016-06-04T08:48:30Z</time>
      </trkpt>
      <trkpt lat="43.61153" lon="1.17803">
        <ele>258</ele>
        <time>2016-06-04T08:48:32Z</time>
      </trkpt>
      <trkpt lat="43.61153" lon="1.17805">
        <ele>258</ele>
        <time>2016-06-04T08:48:34Z</time>
      </trkpt>
      <trkpt lat="43.61155" lon="1.17808">
        <ele>258</ele>
        <time>2016-06-04T08:48:36Z</time>
      </trkpt>
      <trkpt lat="43.61156" lon="1.17812">
        <ele>259</ele>
        <time>2016-06-04T08:48:38Z</time>
      </trkpt>
      <trkpt lat="43.61157" lon="1.17814">
        <ele>259</ele>
        <time>2016-06-04T08:48:40Z</time>
      </trkpt>
      <trkpt lat="43.61158" lon="1.17817">
        <ele>260</ele>
        <time>2016-06-04T08:48:42Z</time>
      </trkpt>
      <trkpt lat="43.61161" lon="1.1782">
        <ele>260</ele>
        <time>2016-06-04T08:48:44Z</time>
      </trkpt>
      <trkpt lat="43.61163" lon="1.17822">
        <ele>260</ele>
        <time>2016-06-04T08:48:46Z</time>
      </trkpt>
      <trkpt lat="43.61164" lon="1.17826">
        <ele>261</ele>
        <time>2016-06-04T08:48:48Z</time>
      </trkpt>
      <trkpt lat="43.61166" lon="1.1783">
        <ele>261</ele>
        <time>2016-06-04T08:48:50Z</time>
      </trkpt>
      <trkpt lat="43.61167" lon="1.17832">
        <ele>261</ele>
        <time>2016-06-04T08:48:52Z</time>
      </trkpt>
      <trkpt lat="43.61169" lon="1.17834">
        <ele>261</ele>
        <time>2016-06-04T08:48:54Z</time>
      </trkpt>
      <trkpt lat="43.61171" lon="1.17835">
        <ele>262</ele>
        <time>2016-06-04T08:48:56Z</time>
      </trkpt>
      <trkpt lat="43.61172" lon="1.17838">
        <ele>262</ele>
        <time>2016-06-04T08:48:58Z</time>
      </trkpt>
      <trkpt lat="43.61173" lon="1.17842">
        <ele>262</ele>
        <time>2016-06-04T08:49:00Z</time>
      </trkpt>
      <trkpt lat="43.61173" lon="1.17844">
        <ele>263</ele>
        <time>2016-06-04T08:49:02Z</time>
      </trkpt>
      <trkpt lat="43.61174" lon="1.17848">
        <ele>263</ele>
        <time>2016-06-04T08:49:04Z</time>
      </trkpt>
      <trkpt lat="43.61176" lon="1.17849">
        <ele>264</ele>
        <time>2016-06-04T08:49:06Z</time>
      </trkpt>
      <trkpt lat="43.61177" lon="1.17853">
        <ele>264</ele>
        <time>2016-06-04T08:49:08Z</time>
      </trkpt>
      <trkpt lat="43.61179" lon="1.17856">
        <ele>265</ele>
        <time>2016-06-04T08:49:10Z</time>
      </trkpt>
      <trkpt lat="43.6118" lon="1.1786">
        <ele>265</ele>
        <time>2016-06-04T08:49:12Z</time>
      </trkpt>
      <trkpt lat="43.61181" lon="1.17863">
        <ele>265</ele>
        <time>2016-06-04T08:49:14Z</time>
      </trkpt>
      <trkpt lat="43.61182" lon="1.17866">
        <ele>266</ele>
        <time>2016-06-04T08:49:16Z</time>
      </trkpt>
      <trkpt lat="43.61182" lon="1.1787">
        <ele>266</ele>
        <time>2016-06-04T08:49:18Z</time>
      </trkpt>
      <trkpt lat="43.61184" lon="1.17871">
        <ele>267</ele>
        <time>2016-06-04T08:49:20Z</time>
      </trkpt>
      <trkpt lat="43.61186" lon="1.17886">
        <ele>267</ele>
        <time>2016-06-04T08:49:22Z</time>
      </trkpt>
      <trkpt lat="43.61189" lon="1.17888">
        <ele>267</ele>
        <time>2016-06-04T08:49:24Z</time>
      </trkpt>
      <trkpt lat="43.6119" lon="1.17892">
        <ele>268</ele>
        <time>2016-06-04T08:49:26Z</time>
      </trkpt>
      <trkpt lat="43.61191" lon="1.17893">
        <ele>268</ele>
        <time>2016-06-04T08:49:28Z</time>
      </trkpt>
      <trkpt lat="43.61192" lon="1.17897">
        <ele>268</ele>
        <time>2016-06-04T08:49:30Z</time>
      </trkpt>
      <trkpt lat="43.61194" lon="1.17901">
        <ele>268</ele>
        <time>2016-06-04T08:49:32Z</time>
      </trkpt>
      <trkpt lat="43.61195" lon="1.17903">
        <ele>268</ele>
        <time>2016-06-04T08:49:34Z</time>
      </trkpt>
      <trkpt lat="43.61197" lon="1.17907">
        <ele>269</ele>
        <time>2016-06-04T08:49:36Z</time>
      </trkpt>
      <trkpt lat="43.61197" lon="1.17908">
        <ele>269</ele>
        <time>2016-06-04T08:49:38Z</time>
      </trkpt>
      <trkpt lat="43.61198" lon="1.17913">
        <ele>270</ele>
        <time>2016-06-04T08:49:40Z</time>
      </trkpt>
      <trkpt lat="43.61199" lon="1.17915">
        <ele>270</ele>
        <time>2016-06-04T08:49:42Z</time>
      </trkpt>
      <trkpt lat="43.612" lon="1.17916">
        <ele>270</ele>
        <time>2016-06-04T08:49:44Z</time>
      </trkpt>
      <trkpt lat="43.61202" lon="1.17919">
        <ele>271</ele>
        <time>2016-06-04T08:49:46Z</time>
      </trkpt>
      <trkpt lat="43.61202" lon="1.17923">
        <ele>271</ele>
        <time>2016-06-04T08:49:48Z</time>
      </trkpt>
      <trkpt lat="43.61203" lon="1.17926">
        <ele>272</ele>
        <time>2016-06-04T08:49:50Z</time>
      </trkpt>
      <trkpt lat="43.61204" lon="1.1793">
        <ele>272</ele>
        <time>2016-06-04T08:49:51Z</time>
      </trkpt>
      <trkpt lat="43.61204" lon="1.17941">
        <ele>272</ele>
        <time>2016-06-04T08:49:53Z</time>
      </trkpt>
      <trkpt lat="43.61206" lon="1.17945">
        <ele>273</ele>
        <time>2016-06-04T08:49:55Z</time>
      </trkpt>
      <trkpt lat="43.61206" lon="1.17947">
        <ele>273</ele>
        <time>2016-06-04T08:49:56Z</time>
      </trkpt>
      <trkpt lat="43.61208" lon="1.17953">
        <ele>273</ele>
        <time>2016-06-04T08:49:58Z</time>
      </trkpt>
      <trkpt lat="43.6121" lon="1.17957">
        <ele>273</ele>
        <time>2016-06-04T08:50:00Z</time>
      </trkpt>
      <trkpt lat="43.61211" lon="1.17958">
        <ele>273</ele>
        <time>2016-06-04T08:50:01Z</time>
      </trkpt>
      <trkpt lat="43.61211" lon="1.1796">
        <ele>274</ele>
        <time>2016-06-04T08:50:02Z</time>
      </trkpt>
      <trkpt lat="43.61213" lon="1.17962">
        <ele>274</ele>
        <time>2016-06-04T08:50:04Z</time>
      </trkpt>
      <trkpt lat="43.61214" lon="1.17965">
        <ele>274</ele>
        <time>2016-06-04T08:50:06Z</time>
      </trkpt>
      <trkpt lat="43.61216" lon="1.17968">
        <ele>274</ele>
        <time>2016-06-04T08:50:08Z</time>
      </trkpt>
      <trkpt lat="43.61218" lon="1.17971">
        <ele>275</ele>
        <time>2016-06-04T08:50:10Z</time>
      </trkpt>
      <trkpt lat="43.61219" lon="1.17978">
        <ele>275</ele>
        <time>2016-06-04T08:50:12Z</time>
      </trkpt>
      <trkpt lat="43.61219" lon="1.17983">
        <ele>276</ele>
        <time>2016-06-04T08:50:14Z</time>
      </trkpt>
      <trkpt lat="43.61221" lon="1.17985">
        <ele>276</ele>
        <time>2016-06-04T08:50:16Z</time>
      </trkpt>
      <trkpt lat="43.61223" lon="1.17987">
        <ele>276</ele>
        <time>2016-06-04T08:50:18Z</time>
      </trkpt>
      <trkpt lat="43.61224" lon="1.17992">
        <ele>277</ele>
        <time>2016-06-04T08:50:20Z</time>
      </trkpt>
      <trkpt lat="43.61224" lon="1.17997">
        <ele>277</ele>
        <time>2016-06-04T08:50:22Z</time>
      </trkpt>
      <trkpt lat="43.61226" lon="1.17999">
        <ele>278</ele>
        <time>2016-06-04T08:50:24Z</time>
      </trkpt>
      <trkpt lat="43.61226" lon="1.18">
        <ele>278</ele>
        <time>2016-06-04T08:50:25Z</time>
      </trkpt>
      <trkpt lat="43.61228" lon="1.18004">
        <ele>278</ele>
        <time>2016-06-04T08:50:27Z</time>
      </trkpt>
      <trkpt lat="43.61229" lon="1.18006">
        <ele>279</ele>
        <time>2016-06-04T08:50:28Z</time>
      </trkpt>
      <trkpt lat="43.61231" lon="1.1801">
        <ele>279</ele>
        <time>2016-06-04T08:50:30Z</time>
      </trkpt>
      <trkpt lat="43.61232" lon="1.18017">
        <ele>279</ele>
        <time>2016-06-04T08:50:32Z</time>
      </trkpt>
      <trkpt lat="43.61233" lon="1.18021">
        <ele>279</ele>
        <time>2016-06-04T08:50:34Z</time>
      </trkpt>
      <trkpt lat="43.61233" lon="1.18027">
        <ele>279</ele>
        <time>2016-06-04T08:50:36Z</time>
      </trkpt>
      <trkpt lat="43.61234" lon="1.18032">
        <ele>279</ele>
        <time>2016-06-04T08:50:38Z</time>
      </trkpt>
      <trkpt lat="43.61236" lon="1.18037">
        <ele>279</ele>
        <time>2016-06-04T08:50:40Z</time>
      </trkpt>
      <trkpt lat="43.61237" lon="1.18042">
        <ele>279</ele>
        <time>2016-06-04T08:50:42Z</time>
      </trkpt>
      <trkpt lat="43.61239" lon="1.18045">
        <ele>279</ele>
        <time>2016-06-04T08:50:44Z</time>
      </trkpt>
      <trkpt lat="43.61239" lon="1.18049">
        <ele>280</ele>
        <time>2016-06-04T08:50:46Z</time>
      </trkpt>
      <trkpt lat="43.61239" lon="1.18054">
        <ele>280</ele>
        <time>2016-06-04T08:50:48Z</time>
      </trkpt>
      <trkpt lat="43.6124" lon="1.1806">
        <ele>281</ele>
        <time>2016-06-04T08:50:50Z</time>
      </trkpt>
      <trkpt lat="43.6124" lon="1.18066">
        <ele>281</ele>
        <time>2016-06-04T08:50:52Z</time>
      </trkpt>
      <trkpt lat="43.6124" lon="1.18067">
        <ele>282</ele>
        <time>2016-06-04T08:50:54Z</time>
      </trkpt>
      <trkpt lat="43.6125" lon="1.18212">
        <ele>294</ele>
        <time>2016-06-04T08:50:58Z</time>
      </trkpt>
      <trkpt lat="43.61254" lon="1.18217">
        <ele>292</ele>
        <time>2016-06-04T08:51:18Z</time>
      </trkpt>
      <trkpt lat="43.61256" lon="1.18211">
        <ele>289</ele>
        <time>2016-06-04T08:51:20Z</time>
      </trkpt>
      <trkpt lat="43.61257" lon="1.18209">
        <ele>286</ele>
        <time>2016-06-04T08:51:22Z</time>
      </trkpt>
      <trkpt lat="43.61257" lon="1.18209">
        <ele>276</ele>
        <time>2016-06-04T08:51:50Z</time>
      </trkpt>
      <trkpt lat="43.61257" lon="1.18209">
        <ele>267</ele>
        <time>2016-06-04T08:51:52Z</time>
      </trkpt>
      <trkpt lat="43.61257" lon="1.18209">
        <ele>266</ele>
        <time>2016-06-04T08:52:20Z</time>
      </trkpt>
      <trkpt lat="43.61257" lon="1.18209">
        <ele>266</ele>
        <time>2016-06-04T08:52:22Z</time>
      </trkpt>
      <trkpt lat="43.61257" lon="1.18209">
        <ele>266</ele>
        <time>2016-06-04T08:52:50Z</time>
      </trkpt>
      <trkpt lat="43.61257" lon="1.18209">
        <ele>266</ele>
        <time>2016-06-04T08:52:52Z</time>
      </trkpt>
      <trkpt lat="43.61249" lon="1.18202">
        <ele>249</ele>
        <time>2016-06-04T08:55:37Z</time>
      </trkpt>
      <trkpt lat="43.61249" lon="1.18201">
        <ele>240</ele>
        <time>2016-06-04T08:55:38Z</time>
      </trkpt>
      <trkpt lat="43.61249" lon="1.18201">
        <ele>232</ele>
        <time>2016-06-04T08:55:40Z</time>
      </trkpt>
      <trkpt lat="43.61249" lon="1.18201">
        <ele>223</ele>
        <time>2016-06-04T08:56:04Z</time>
      </trkpt>
      <trkpt lat="43.61249" lon="1.18201">
        <ele>223</ele>
        <time>2016-06-04T08:56:06Z</time>
      </trkpt>
      <trkpt lat="43.61251" lon="1.18194">
        <ele>222</ele>
        <time>2016-06-04T08:56:34Z</time>
      </trkpt>
      <trkpt lat="43.61253" lon="1.18195">
        <ele>222</ele>
        <time>2016-06-04T08:56:36Z</time>
      </trkpt>
      <trkpt lat="43.61254" lon="1.18197">
        <ele>221</ele>
        <time>2016-06-04T08:56:38Z</time>
      </trkpt>
      <trkpt lat="43.61255" lon="1.18199">
        <ele>220</ele>
        <time>2016-06-04T08:56:40Z</time>
      </trkpt>
      <trkpt lat="43.61257" lon="1.182">
        <ele>219</ele>
        <time>2016-06-04T08:56:42Z</time>
      </trkpt>
      <trkpt lat="43.61258" lon="1.18202">
        <ele>219</ele>
        <time>2016-06-04T08:56:44Z</time>
      </trkpt>
      <trkpt lat="43.61259" lon="1.18205">
        <ele>219</ele>
        <time>2016-06-04T08:56:46Z</time>
      </trkpt>
      <trkpt lat="43.6126" lon="1.18208">
        <ele>219</ele>
        <time>2016-06-04T08:56:48Z</time>
      </trkpt>
      <trkpt lat="43.6126" lon="1.1821">
        <ele>219</ele>
        <time>2016-06-04T08:56:49Z</time>
      </trkpt>
      <trkpt lat="43.61261" lon="1.18211">
        <ele>219</ele>
        <time>2016-06-04T08:56:50Z</time>
      </trkpt>
      <trkpt lat="43.61263" lon="1.18212">
        <ele>220</ele>
        <time>2016-06-04T08:56:52Z</time>
      </trkpt>
      <trkpt lat="43.61265" lon="1.18216">
        <ele>220</ele>
        <time>2016-06-04T08:56:54Z</time>
      </trkpt>
      <trkpt lat="43.61266" lon="1.18217">
        <ele>220</ele>
        <time>2016-06-04T08:56:56Z</time>
      </trkpt>
      <trkpt lat="43.61267" lon="1.18219">
        <ele>220</ele>
        <time>2016-06-04T08:56:58Z</time>
      </trkpt>
      <trkpt lat="43.61269" lon="1.18221">
        <ele>220</ele>
        <time>2016-06-04T08:57:00Z</time>
      </trkpt>
      <trkpt lat="43.6127" lon="1.18224">
        <ele>221</ele>
        <time>2016-06-04T08:57:02Z</time>
      </trkpt>
      <trkpt lat="43.61272" lon="1.18226">
        <ele>221</ele>
        <time>2016-06-04T08:57:04Z</time>
      </trkpt>
      <trkpt lat="43.61272" lon="1.18228">
        <ele>221</ele>
        <time>2016-06-04T08:57:06Z</time>
      </trkpt>
      <trkpt lat="43.61273" lon="1.18232">
        <ele>221</ele>
        <time>2016-06-04T08:57:08Z</time>
      </trkpt>
      <trkpt lat="43.61273" lon="1.18235">
        <ele>221</ele>
        <time>2016-06-04T08:57:10Z</time>
      </trkpt>
      <trkpt lat="43.61273" lon="1.18238">
        <ele>221</ele>
        <time>2016-06-04T08:57:12Z</time>
      </trkpt>
      <trkpt lat="43.61274" lon="1.18239">
        <ele>222</ele>
        <time>2016-06-04T08:57:13Z</time>
      </trkpt>
      <trkpt lat="43.61275" lon="1.18241">
        <ele>222</ele>
        <time>2016-06-04T08:57:14Z</time>
      </trkpt>
      <trkpt lat="43.61276" lon="1.18244">
        <ele>222</ele>
        <time>2016-06-04T08:57:16Z</time>
      </trkpt>
      <trkpt lat="43.61276" lon="1.18247">
        <ele>222</ele>
        <time>2016-06-04T08:57:18Z</time>
      </trkpt>
      <trkpt lat="43.61277" lon="1.1825">
        <ele>222</ele>
        <time>2016-06-04T08:57:20Z</time>
      </trkpt>
      <trkpt lat="43.61279" lon="1.18254">
        <ele>222</ele>
        <time>2016-06-04T08:57:22Z</time>
      </trkpt>
      <trkpt lat="43.6128" lon="1.18257">
        <ele>222</ele>
        <time>2016-06-04T08:57:24Z</time>
      </trkpt>
      <trkpt lat="43.61282" lon="1.18261">
        <ele>222</ele>
        <time>2016-06-04T08:57:26Z</time>
      </trkpt>
      <trkpt lat="43.61284" lon="1.18264">
        <ele>222</ele>
        <time>2016-06-04T08:57:28Z</time>
      </trkpt>
      <trkpt lat="43.61285" lon="1.18269">
        <ele>223</ele>
        <time>2016-06-04T08:57:30Z</time>
      </trkpt>
      <trkpt lat="43.61286" lon="1.18271">
        <ele>223</ele>
        <time>2016-06-04T08:57:31Z</time>
      </trkpt>
      <trkpt lat="43.61287" lon="1.18274">
        <ele>223</ele>
        <time>2016-06-04T08:57:32Z</time>
      </trkpt>
      <trkpt lat="43.61289" lon="1.18279">
        <ele>223</ele>
        <time>2016-06-04T08:57:34Z</time>
      </trkpt>
      <trkpt lat="43.61291" lon="1.18283">
        <ele>223</ele>
        <time>2016-06-04T08:57:36Z</time>
      </trkpt>
      <trkpt lat="43.61292" lon="1.18285">
        <ele>223</ele>
        <time>2016-06-04T08:57:37Z</time>
      </trkpt>
      <trkpt lat="43.61292" lon="1.18288">
        <ele>223</ele>
        <time>2016-06-04T08:57:38Z</time>
      </trkpt>
      <trkpt lat="43.61293" lon="1.18293">
        <ele>224</ele>
        <time>2016-06-04T08:57:40Z</time>
      </trkpt>
      <trkpt lat="43.61295" lon="1.18299">
        <ele>224</ele>
        <time>2016-06-04T08:57:42Z</time>
      </trkpt>
      <trkpt lat="43.61296" lon="1.18303">
        <ele>224</ele>
        <time>2016-06-04T08:57:44Z</time>
      </trkpt>
      <trkpt lat="43.61298" lon="1.18308">
        <ele>224</ele>
        <time>2016-06-04T08:57:46Z</time>
      </trkpt>
      <trkpt lat="43.61298" lon="1.18312">
        <ele>225</ele>
        <time>2016-06-04T08:57:48Z</time>
      </trkpt>
      <trkpt lat="43.61299" lon="1.18318">
        <ele>225</ele>
        <time>2016-06-04T08:57:50Z</time>
      </trkpt>
      <trkpt lat="43.613" lon="1.18323">
        <ele>225</ele>
        <time>2016-06-04T08:57:52Z</time>
      </trkpt>
      <trkpt lat="43.61301" lon="1.18326">
        <ele>226</ele>
        <time>2016-06-04T08:57:54Z</time>
      </trkpt>
      <trkpt lat="43.61303" lon="1.18329">
        <ele>226</ele>
        <time>2016-06-04T08:57:56Z</time>
      </trkpt>
      <trkpt lat="43.61304" lon="1.18332">
        <ele>226</ele>
        <time>2016-06-04T08:57:58Z</time>
      </trkpt>
      <trkpt lat="43.61304" lon="1.18333">
        <ele>226</ele>
        <time>2016-06-04T08:57:59Z</time>
      </trkpt>
      <trkpt lat="43.61306" lon="1.18337">
        <ele>227</ele>
        <time>2016-06-04T08:58:01Z</time>
      </trkpt>
      <trkpt lat="43.61307" lon="1.18341">
        <ele>227</ele>
        <time>2016-06-04T08:58:02Z</time>
      </trkpt>
      <trkpt lat="43.61308" lon="1.18347">
        <ele>227</ele>
        <time>2016-06-04T08:58:04Z</time>
      </trkpt>
      <trkpt lat="43.61309" lon="1.18353">
        <ele>228</ele>
        <time>2016-06-04T08:58:06Z</time>
      </trkpt>
      <trkpt lat="43.6131" lon="1.18358">
        <ele>228</ele>
        <time>2016-06-04T08:58:08Z</time>
      </trkpt>
      <trkpt lat="43.61311" lon="1.18362">
        <ele>229</ele>
        <time>2016-06-04T08:58:10Z</time>
      </trkpt>
      <trkpt lat="43.61313" lon="1.18366">
        <ele>229</ele>
        <time>2016-06-04T08:58:12Z</time>
      </trkpt>
      <trkpt lat="43.61314" lon="1.18369">
        <ele>230</ele>
        <time>2016-06-04T08:58:13Z</time>
      </trkpt>
      <trkpt lat="43.61314" lon="1.18371">
        <ele>230</ele>
        <time>2016-06-04T08:58:14Z</time>
      </trkpt>
      <trkpt lat="43.61314" lon="1.18376">
        <ele>231</ele>
        <time>2016-06-04T08:58:16Z</time>
      </trkpt>
      <trkpt lat="43.61314" lon="1.1838">
        <ele>231</ele>
        <time>2016-06-04T08:58:18Z</time>
      </trkpt>
      <trkpt lat="43.61316" lon="1.18382">
        <ele>232</ele>
        <time>2016-06-04T08:58:20Z</time>
      </trkpt>
      <trkpt lat="43.61317" lon="1.18385">
        <ele>233</ele>
        <time>2016-06-04T08:58:22Z</time>
      </trkpt>
      <trkpt lat="43.61319" lon="1.1839">
        <ele>234</ele>
        <time>2016-06-04T08:58:24Z</time>
      </trkpt>
      <trkpt lat="43.61319" lon="1.18392">
        <ele>235</ele>
        <time>2016-06-04T08:58:25Z</time>
      </trkpt>
      <trkpt lat="43.6132" lon="1.18394">
        <ele>235</ele>
        <time>2016-06-04T08:58:26Z</time>
      </trkpt>
      <trkpt lat="43.61321" lon="1.18398">
        <ele>236</ele>
        <time>2016-06-04T08:58:28Z</time>
      </trkpt>
      <trkpt lat="43.61323" lon="1.18401">
        <ele>237</ele>
        <time>2016-06-04T08:58:30Z</time>
      </trkpt>
      <trkpt lat="43.61324" lon="1.18404">
        <ele>238</ele>
        <time>2016-06-04T08:58:32Z</time>
      </trkpt>
      <trkpt lat="43.61326" lon="1.18407">
        <ele>239</ele>
        <time>2016-06-04T08:58:34Z</time>
      </trkpt>
      <trkpt lat="43.61326" lon="1.18411">
        <ele>239</ele>
        <time>2016-06-04T08:58:36Z</time>
      </trkpt>
      <trkpt lat="43.61329" lon="1.18415">
        <ele>241</ele>
        <time>2016-06-04T08:58:38Z</time>
      </trkpt>
      <trkpt lat="43.61332" lon="1.18418">
        <ele>241</ele>
        <time>2016-06-04T08:58:40Z</time>
      </trkpt>
      <trkpt lat="43.61334" lon="1.18423">
        <ele>242</ele>
        <time>2016-06-04T08:58:42Z</time>
      </trkpt>
      <trkpt lat="43.61335" lon="1.18425">
        <ele>242</ele>
        <time>2016-06-04T08:58:44Z</time>
      </trkpt>
      <trkpt lat="43.61337" lon="1.18428">
        <ele>243</ele>
        <time>2016-06-04T08:58:46Z</time>
      </trkpt>
      <trkpt lat="43.61338" lon="1.1843">
        <ele>244</ele>
        <time>2016-06-04T08:58:47Z</time>
      </trkpt>
      <trkpt lat="43.61338" lon="1.18435">
        <ele>244</ele>
        <time>2016-06-04T08:58:49Z</time>
      </trkpt>
      <trkpt lat="43.61339" lon="1.18436">
        <ele>245</ele>
        <time>2016-06-04T08:58:50Z</time>
      </trkpt>
      <trkpt lat="43.61341" lon="1.1844">
        <ele>245</ele>
        <time>2016-06-04T08:58:52Z</time>
      </trkpt>
      <trkpt lat="43.61341" lon="1.18447">
        <ele>245</ele>
        <time>2016-06-04T08:58:54Z</time>
      </trkpt>
      <trkpt lat="43.61342" lon="1.18451">
        <ele>246</ele>
        <time>2016-06-04T08:58:55Z</time>
      </trkpt>
      <trkpt lat="43.61342" lon="1.18453">
        <ele>246</ele>
        <time>2016-06-04T08:58:56Z</time>
      </trkpt>
      <trkpt lat="43.61343" lon="1.18458">
        <ele>246</ele>
        <time>2016-06-04T08:58:58Z</time>
      </trkpt>
      <trkpt lat="43.61344" lon="1.18462">
        <ele>246</ele>
        <time>2016-06-04T08:59:00Z</time>
      </trkpt>
      <trkpt lat="43.61345" lon="1.18467">
        <ele>246</ele>
        <time>2016-06-04T08:59:02Z</time>
      </trkpt>
      <trkpt lat="43.61346" lon="1.18471">
        <ele>247</ele>
        <time>2016-06-04T08:59:04Z</time>
      </trkpt>
      <trkpt lat="43.61348" lon="1.18475">
        <ele>247</ele>
        <time>2016-06-04T08:59:06Z</time>
      </trkpt>
      <trkpt lat="43.61349" lon="1.18482">
        <ele>247</ele>
        <time>2016-06-04T08:59:08Z</time>
      </trkpt>
      <trkpt lat="43.61351" lon="1.18484">
        <ele>248</ele>
        <time>2016-06-04T08:59:10Z</time>
      </trkpt>
      <trkpt lat="43.61354" lon="1.18488">
        <ele>248</ele>
        <time>2016-06-04T08:59:12Z</time>
      </trkpt>
      <trkpt lat="43.61356" lon="1.18492">
        <ele>248</ele>
        <time>2016-06-04T08:59:14Z</time>
      </trkpt>
      <trkpt lat="43.61357" lon="1.18497">
        <ele>249</ele>
        <time>2016-06-04T08:59:16Z</time>
      </trkpt>
      <trkpt lat="43.61359" lon="1.18501">
        <ele>249</ele>
        <time>2016-06-04T08:59:18Z</time>
      </trkpt>
      <trkpt lat="43.61359" lon="1.18505">
        <ele>249</ele>
        <time>2016-06-04T08:59:19Z</time>
      </trkpt>
      <trkpt lat="43.61359" lon="1.18509">
        <ele>250</ele>
        <time>2016-06-04T08:59:20Z</time>
      </trkpt>
      <trkpt lat="43.6136" lon="1.18515">
        <ele>250</ele>
        <time>2016-06-04T08:59:22Z</time>
      </trkpt>
      <trkpt lat="43.61362" lon="1.18518">
        <ele>250</ele>
        <time>2016-06-04T08:59:24Z</time>
      </trkpt>
      <trkpt lat="43.61363" lon="1.1852">
        <ele>250</ele>
        <time>2016-06-04T08:59:25Z</time>
      </trkpt>
      <trkpt lat="43.61363" lon="1.18521">
        <ele>250</ele>
        <time>2016-06-04T08:59:26Z</time>
      </trkpt>
      <trkpt lat="43.61363" lon="1.18526">
        <ele>251</ele>
        <time>2016-06-04T08:59:28Z</time>
      </trkpt>
      <trkpt lat="43.61364" lon="1.18528">
        <ele>251</ele>
        <time>2016-06-04T08:59:29Z</time>
      </trkpt>
      <trkpt lat="43.61367" lon="1.18532">
        <ele>251</ele>
        <time>2016-06-04T08:59:31Z</time>
      </trkpt>
      <trkpt lat="43.61367" lon="1.18534">
        <ele>252</ele>
        <time>2016-06-04T08:59:32Z</time>
      </trkpt>
      <trkpt lat="43.61369" lon="1.18538">
        <ele>252</ele>
        <time>2016-06-04T08:59:34Z</time>
      </trkpt>
      <trkpt lat="43.61371" lon="1.18541">
        <ele>253</ele>
        <time>2016-06-04T08:59:36Z</time>
      </trkpt>
      <trkpt lat="43.61371" lon="1.18542">
        <ele>253</ele>
        <time>2016-06-04T08:59:37Z</time>
      </trkpt>
      <trkpt lat="43.61372" lon="1.18544">
        <ele>253</ele>
        <time>2016-06-04T08:59:38Z</time>
      </trkpt>
      <trkpt lat="43.61373" lon="1.18549">
        <ele>254</ele>
        <time>2016-06-04T08:59:40Z</time>
      </trkpt>
      <trkpt lat="43.61372" lon="1.18556">
        <ele>254</ele>
        <time>2016-06-04T08:59:42Z</time>
      </trkpt>
      <trkpt lat="43.61372" lon="1.18562">
        <ele>254</ele>
        <time>2016-06-04T08:59:44Z</time>
      </trkpt>
      <trkpt lat="43.61372" lon="1.18569">
        <ele>255</ele>
        <time>2016-06-04T08:59:46Z</time>
      </trkpt>
      <trkpt lat="43.61373" lon="1.18573">
        <ele>255</ele>
        <time>2016-06-04T08:59:48Z</time>
      </trkpt>
      <trkpt lat="43.61373" lon="1.18575">
        <ele>256</ele>
        <time>2016-06-04T08:59:49Z</time>
      </trkpt>
      <trkpt lat="43.61374" lon="1.18577">
        <ele>256</ele>
        <time>2016-06-04T08:59:50Z</time>
      </trkpt>
      <trkpt lat="43.61375" lon="1.18581">
        <ele>257</ele>
        <time>2016-06-04T08:59:52Z</time>
      </trkpt>
      <trkpt lat="43.6138" lon="1.18594">
        <ele>257</ele>
        <time>2016-06-04T08:59:56Z</time>
      </trkpt>
      <trkpt lat="43.6138" lon="1.18598">
        <ele>257</ele>
        <time>2016-06-04T08:59:58Z</time>
      </trkpt>
      <trkpt lat="43.61382" lon="1.186">
        <ele>257</ele>
        <time>2016-06-04T09:00:00Z</time>
      </trkpt>
      <trkpt lat="43.61384" lon="1.18603">
        <ele>257</ele>
        <time>2016-06-04T09:00:02Z</time>
      </trkpt>
      <trkpt lat="43.61386" lon="1.18605">
        <ele>258</ele>
        <time>2016-06-04T09:00:04Z</time>
      </trkpt>
      <trkpt lat="43.61389" lon="1.1861">
        <ele>258</ele>
        <time>2016-06-04T09:00:06Z</time>
      </trkpt>
      <trkpt lat="43.61391" lon="1.18614">
        <ele>258</ele>
        <time>2016-06-04T09:00:08Z</time>
      </trkpt>
      <trkpt lat="43.61392" lon="1.18619">
        <ele>258</ele>
        <time>2016-06-04T09:00:10Z</time>
      </trkpt>
      <trkpt lat="43.61392" lon="1.18625">
        <ele>258</ele>
        <time>2016-06-04T09:00:12Z</time>
      </trkpt>
      <trkpt lat="43.61397" lon="1.18622">
        <ele>258</ele>
        <time>2016-06-04T09:00:14Z</time>
      </trkpt>
      <trkpt lat="43.61399" lon="1.18625">
        <ele>258</ele>
        <time>2016-06-04T09:00:16Z</time>
      </trkpt>
      <trkpt lat="43.614" lon="1.18629">
        <ele>258</ele>
        <time>2016-06-04T09:00:18Z</time>
      </trkpt>
      <trkpt lat="43.61401" lon="1.18635">
        <ele>258</ele>
        <time>2016-06-04T09:00:20Z</time>
      </trkpt>
      <trkpt lat="43.61403" lon="1.1864">
        <ele>258</ele>
        <time>2016-06-04T09:00:22Z</time>
      </trkpt>
      <trkpt lat="43.61405" lon="1.18645">
        <ele>259</ele>
        <time>2016-06-04T09:00:24Z</time>
      </trkpt>
      <trkpt lat="43.61406" lon="1.1865">
        <ele>259</ele>
        <time>2016-06-04T09:00:26Z</time>
      </trkpt>
      <trkpt lat="43.61408" lon="1.18655">
        <ele>259</ele>
        <time>2016-06-04T09:00:28Z</time>
      </trkpt>
      <trkpt lat="43.6141" lon="1.18659">
        <ele>259</ele>
        <time>2016-06-04T09:00:30Z</time>
      </trkpt>
      <trkpt lat="43.61411" lon="1.18665">
        <ele>259</ele>
        <time>2016-06-04T09:00:32Z</time>
      </trkpt>
      <trkpt lat="43.61413" lon="1.18671">
        <ele>260</ele>
        <time>2016-06-04T09:00:34Z</time>
      </trkpt>
      <trkpt lat="43.61414" lon="1.18678">
        <ele>260</ele>
        <time>2016-06-04T09:00:36Z</time>
      </trkpt>
      <trkpt lat="43.61415" lon="1.18683">
        <ele>260</ele>
        <time>2016-06-04T09:00:38Z</time>
      </trkpt>
      <trkpt lat="43.61416" lon="1.18688">
        <ele>260</ele>
        <time>2016-06-04T09:00:40Z</time>
      </trkpt>
      <trkpt lat="43.61418" lon="1.18691">
        <ele>260</ele>
        <time>2016-06-04T09:00:42Z</time>
      </trkpt>
      <trkpt lat="43.6142" lon="1.18696">
        <ele>260</ele>
        <time>2016-06-04T09:00:44Z</time>
      </trkpt>
      <trkpt lat="43.6142" lon="1.18701">
        <ele>260</ele>
        <time>2016-06-04T09:00:46Z</time>
      </trkpt>
      <trkpt lat="43.61422" lon="1.18705">
        <ele>260</ele>
        <time>2016-06-04T09:00:48Z</time>
      </trkpt>
      <trkpt lat="43.61421" lon="1.18707">
        <ele>260</ele>
        <time>2016-06-04T09:00:50Z</time>
      </trkpt>
      <trkpt lat="43.61422" lon="1.18711">
        <ele>260</ele>
        <time>2016-06-04T09:00:52Z</time>
      </trkpt>
      <trkpt lat="43.61423" lon="1.18713">
        <ele>260</ele>
        <time>2016-06-04T09:00:54Z</time>
      </trkpt>
      <trkpt lat="43.61424" lon="1.18718">
        <ele>260</ele>
        <time>2016-06-04T09:00:56Z</time>
      </trkpt>
      <trkpt lat="43.61426" lon="1.18723">
        <ele>260</ele>
        <time>2016-06-04T09:00:58Z</time>
      </trkpt>
      <trkpt lat="43.61428" lon="1.18728">
        <ele>260</ele>
        <time>2016-06-04T09:01:00Z</time>
      </trkpt>
      <trkpt lat="43.6143" lon="1.18732">
        <ele>259</ele>
        <time>2016-06-04T09:01:02Z</time>
      </trkpt>
      <trkpt lat="43.61432" lon="1.18737">
        <ele>260</ele>
        <time>2016-06-04T09:01:04Z</time>
      </trkpt>
      <trkpt lat="43.61433" lon="1.1874">
        <ele>260</ele>
        <time>2016-06-04T09:01:06Z</time>
      </trkpt>
      <trkpt lat="43.61434" lon="1.18745">
        <ele>260</ele>
        <time>2016-06-04T09:01:08Z</time>
      </trkpt>
      <trkpt lat="43.61435" lon="1.18754">
        <ele>260</ele>
        <time>2016-06-04T09:01:10Z</time>
      </trkpt>
      <trkpt lat="43.61436" lon="1.18761">
        <ele>260</ele>
        <time>2016-06-04T09:01:12Z</time>
      </trkpt>
      <trkpt lat="43.61437" lon="1.18768">
        <ele>260</ele>
        <time>2016-06-04T09:01:14Z</time>
      </trkpt>
      <trkpt lat="43.61439" lon="1.18773">
        <ele>260</ele>
        <time>2016-06-04T09:01:16Z</time>
      </trkpt>
      <trkpt lat="43.6144" lon="1.18772">
        <ele>260</ele>
        <time>2016-06-04T09:01:18Z</time>
      </trkpt>
      <trkpt lat="43.61442" lon="1.18778">
        <ele>260</ele>
        <time>2016-06-04T09:01:20Z</time>
      </trkpt>
      <trkpt lat="43.61443" lon="1.18786">
        <ele>260</ele>
        <time>2016-06-04T09:01:22Z</time>
      </trkpt>
      <trkpt lat="43.61445" lon="1.1879">
        <ele>260</ele>
        <time>2016-06-04T09:01:24Z</time>
      </trkpt>
      <trkpt lat="43.61446" lon="1.18794">
        <ele>260</ele>
        <time>2016-06-04T09:01:26Z</time>
      </trkpt>
      <trkpt lat="43.61448" lon="1.18799">
        <ele>260</ele>
        <time>2016-06-04T09:01:28Z</time>
      </trkpt>
      <trkpt lat="43.61449" lon="1.18804">
        <ele>261</ele>
        <time>2016-06-04T09:01:30Z</time>
      </trkpt>
      <trkpt lat="43.61449" lon="1.18805">
        <ele>261</ele>
        <time>2016-06-04T09:01:31Z</time>
      </trkpt>
      <trkpt lat="43.61449" lon="1.18807">
        <ele>261</ele>
        <time>2016-06-04T09:01:32Z</time>
      </trkpt>
      <trkpt lat="43.61449" lon="1.18815">
        <ele>261</ele>
        <time>2016-06-04T09:01:34Z</time>
      </trkpt>
      <trkpt lat="43.61449" lon="1.18824">
        <ele>261</ele>
        <time>2016-06-04T09:01:36Z</time>
      </trkpt>
      <trkpt lat="43.6145" lon="1.18829">
        <ele>261</ele>
        <time>2016-06-04T09:01:38Z</time>
      </trkpt>
      <trkpt lat="43.6145" lon="1.18834">
        <ele>261</ele>
        <time>2016-06-04T09:01:40Z</time>
      </trkpt>
      <trkpt lat="43.61451" lon="1.18839">
        <ele>261</ele>
        <time>2016-06-04T09:01:42Z</time>
      </trkpt>
      <trkpt lat="43.61452" lon="1.18842">
        <ele>261</ele>
        <time>2016-06-04T09:01:44Z</time>
      </trkpt>
      <trkpt lat="43.61454" lon="1.18848">
        <ele>261</ele>
        <time>2016-06-04T09:01:46Z</time>
      </trkpt>
      <trkpt lat="43.61456" lon="1.18852">
        <ele>261</ele>
        <time>2016-06-04T09:01:48Z</time>
      </trkpt>
      <trkpt lat="43.61458" lon="1.18856">
        <ele>261</ele>
        <time>2016-06-04T09:01:50Z</time>
      </trkpt>
      <trkpt lat="43.61459" lon="1.18864">
        <ele>261</ele>
        <time>2016-06-04T09:01:52Z</time>
      </trkpt>
      <trkpt lat="43.61459" lon="1.18871">
        <ele>261</ele>
        <time>2016-06-04T09:01:54Z</time>
      </trkpt>
      <trkpt lat="43.61459" lon="1.18878">
        <ele>261</ele>
        <time>2016-06-04T09:01:56Z</time>
      </trkpt>
      <trkpt lat="43.61461" lon="1.18883">
        <ele>261</ele>
        <time>2016-06-04T09:01:58Z</time>
      </trkpt>
      <trkpt lat="43.61462" lon="1.18889">
        <ele>261</ele>
        <time>2016-06-04T09:02:00Z</time>
      </trkpt>
      <trkpt lat="43.61463" lon="1.18898">
        <ele>261</ele>
        <time>2016-06-04T09:02:02Z</time>
      </trkpt>
      <trkpt lat="43.61463" lon="1.18904">
        <ele>261</ele>
        <time>2016-06-04T09:02:04Z</time>
      </trkpt>
      <trkpt lat="43.61465" lon="1.18912">
        <ele>261</ele>
        <time>2016-06-04T09:02:06Z</time>
      </trkpt>
      <trkpt lat="43.61468" lon="1.18928">
        <ele>259</ele>
        <time>2016-06-04T09:02:10Z</time>
      </trkpt>
      <trkpt lat="43.6147" lon="1.18932">
        <ele>258</ele>
        <time>2016-06-04T09:02:12Z</time>
      </trkpt>
      <trkpt lat="43.61474" lon="1.18933">
        <ele>257</ele>
        <time>2016-06-04T09:02:14Z</time>
      </trkpt>
      <trkpt lat="43.61478" lon="1.18937">
        <ele>256</ele>
        <time>2016-06-04T09:02:16Z</time>
      </trkpt>
      <trkpt lat="43.6148" lon="1.18939">
        <ele>255</ele>
        <time>2016-06-04T09:02:18Z</time>
      </trkpt>
      <trkpt lat="43.61484" lon="1.18943">
        <ele>255</ele>
        <time>2016-06-04T09:02:20Z</time>
      </trkpt>
      <trkpt lat="43.61485" lon="1.18948">
        <ele>254</ele>
        <time>2016-06-04T09:02:22Z</time>
      </trkpt>
      <trkpt lat="43.61487" lon="1.18952">
        <ele>253</ele>
        <time>2016-06-04T09:02:24Z</time>
      </trkpt>
      <trkpt lat="43.61495" lon="1.18951">
        <ele>251</ele>
        <time>2016-06-04T09:02:28Z</time>
      </trkpt>
      <trkpt lat="43.61498" lon="1.18951">
        <ele>250</ele>
        <time>2016-06-04T09:02:30Z</time>
      </trkpt>
      <trkpt lat="43.61501" lon="1.18949">
        <ele>249</ele>
        <time>2016-06-04T09:02:32Z</time>
      </trkpt>
      <trkpt lat="43.61523" lon="1.18949">
        <ele>246</ele>
        <time>2016-06-04T09:02:42Z</time>
      </trkpt>
      <trkpt lat="43.6153" lon="1.18949">
        <ele>244</ele>
        <time>2016-06-04T09:02:46Z</time>
      </trkpt>
      <trkpt lat="43.61533" lon="1.18949">
        <ele>243</ele>
        <time>2016-06-04T09:02:48Z</time>
      </trkpt>
      <trkpt lat="43.61536" lon="1.18949">
        <ele>242</ele>
        <time>2016-06-04T09:02:50Z</time>
      </trkpt>
      <trkpt lat="43.61538" lon="1.18948">
        <ele>241</ele>
        <time>2016-06-04T09:02:52Z</time>
      </trkpt>
      <trkpt lat="43.6154" lon="1.18947">
        <ele>240</ele>
        <time>2016-06-04T09:02:54Z</time>
      </trkpt>
      <trkpt lat="43.61543" lon="1.18946">
        <ele>239</ele>
        <time>2016-06-04T09:02:56Z</time>
      </trkpt>
      <trkpt lat="43.61545" lon="1.18946">
        <ele>239</ele>
        <time>2016-06-04T09:02:58Z</time>
      </trkpt>
      <trkpt lat="43.6155" lon="1.18945">
        <ele>238</ele>
        <time>2016-06-04T09:03:00Z</time>
      </trkpt>
      <trkpt lat="43.61553" lon="1.18943">
        <ele>237</ele>
        <time>2016-06-04T09:03:02Z</time>
      </trkpt>
      <trkpt lat="43.61556" lon="1.18942">
        <ele>236</ele>
        <time>2016-06-04T09:03:04Z</time>
      </trkpt>
      <trkpt lat="43.61559" lon="1.18942">
        <ele>235</ele>
        <time>2016-06-04T09:03:06Z</time>
      </trkpt>
      <trkpt lat="43.61563" lon="1.1894">
        <ele>235</ele>
        <time>2016-06-04T09:03:08Z</time>
      </trkpt>
      <trkpt lat="43.61567" lon="1.1894">
        <ele>234</ele>
        <time>2016-06-04T09:03:10Z</time>
      </trkpt>
      <trkpt lat="43.61569" lon="1.18939">
        <ele>234</ele>
        <time>2016-06-04T09:03:12Z</time>
      </trkpt>
      <trkpt lat="43.61572" lon="1.18936">
        <ele>233</ele>
        <time>2016-06-04T09:03:14Z</time>
      </trkpt>
      <trkpt lat="43.61583" lon="1.18933">
        <ele>232</ele>
        <time>2016-06-04T09:03:20Z</time>
      </trkpt>
      <trkpt lat="43.61593" lon="1.18929">
        <ele>231</ele>
        <time>2016-06-04T09:03:24Z</time>
      </trkpt>
      <trkpt lat="43.61605" lon="1.18921">
        <ele>231</ele>
        <time>2016-06-04T09:03:28Z</time>
      </trkpt>
      <trkpt lat="43.6162" lon="1.1892">
        <ele>230</ele>
        <time>2016-06-04T09:03:34Z</time>
      </trkpt>
      <trkpt lat="43.61623" lon="1.1892">
        <ele>229</ele>
        <time>2016-06-04T09:03:36Z</time>
      </trkpt>
      <trkpt lat="43.6163" lon="1.1892">
        <ele>229</ele>
        <time>2016-06-04T09:03:40Z</time>
      </trkpt>
      <trkpt lat="43.61638" lon="1.18919">
        <ele>228</ele>
        <time>2016-06-04T09:03:44Z</time>
      </trkpt>
      <trkpt lat="43.61641" lon="1.1892">
        <ele>228</ele>
        <time>2016-06-04T09:03:46Z</time>
      </trkpt>
      <trkpt lat="43.6165" lon="1.18921">
        <ele>228</ele>
        <time>2016-06-04T09:03:51Z</time>
      </trkpt>
      <trkpt lat="43.61652" lon="1.18921">
        <ele>228</ele>
        <time>2016-06-04T09:03:52Z</time>
      </trkpt>
      <trkpt lat="43.61656" lon="1.18922">
        <ele>228</ele>
        <time>2016-06-04T09:03:54Z</time>
      </trkpt>
      <trkpt lat="43.61675" lon="1.18926">
        <ele>230</ele>
        <time>2016-06-04T09:04:02Z</time>
      </trkpt>
      <trkpt lat="43.61677" lon="1.18928">
        <ele>230</ele>
        <time>2016-06-04T09:04:04Z</time>
      </trkpt>
      <trkpt lat="43.6168" lon="1.18933">
        <ele>231</ele>
        <time>2016-06-04T09:04:06Z</time>
      </trkpt>
      <trkpt lat="43.61683" lon="1.18935">
        <ele>231</ele>
        <time>2016-06-04T09:04:08Z</time>
      </trkpt>
      <trkpt lat="43.61686" lon="1.18937">
        <ele>231</ele>
        <time>2016-06-04T09:04:10Z</time>
      </trkpt>
      <trkpt lat="43.6169" lon="1.18938">
        <ele>231</ele>
        <time>2016-06-04T09:04:12Z</time>
      </trkpt>
      <trkpt lat="43.61693" lon="1.1894">
        <ele>231</ele>
        <time>2016-06-04T09:04:14Z</time>
      </trkpt>
      <trkpt lat="43.61695" lon="1.18942">
        <ele>232</ele>
        <time>2016-06-04T09:04:16Z</time>
      </trkpt>
      <trkpt lat="43.61697" lon="1.18945">
        <ele>232</ele>
        <time>2016-06-04T09:04:18Z</time>
      </trkpt>
      <trkpt lat="43.61698" lon="1.18945">
        <ele>232</ele>
        <time>2016-06-04T09:04:19Z</time>
      </trkpt>
      <trkpt lat="43.61699" lon="1.18947">
        <ele>233</ele>
        <time>2016-06-04T09:04:20Z</time>
      </trkpt>
      <trkpt lat="43.61705" lon="1.1895">
        <ele>234</ele>
        <time>2016-06-04T09:04:24Z</time>
      </trkpt>
      <trkpt lat="43.61706" lon="1.1895">
        <ele>234</ele>
        <time>2016-06-04T09:04:25Z</time>
      </trkpt>
      <trkpt lat="43.6171" lon="1.18952">
        <ele>235</ele>
        <time>2016-06-04T09:04:28Z</time>
      </trkpt>
      <trkpt lat="43.61712" lon="1.18954">
        <ele>235</ele>
        <time>2016-06-04T09:04:30Z</time>
      </trkpt>
      <trkpt lat="43.61713" lon="1.18955">
        <ele>235</ele>
        <time>2016-06-04T09:04:31Z</time>
      </trkpt>
      <trkpt lat="43.61714" lon="1.18955">
        <ele>235</ele>
        <time>2016-06-04T09:04:32Z</time>
      </trkpt>
      <trkpt lat="43.61714" lon="1.18956">
        <ele>236</ele>
        <time>2016-06-04T09:04:33Z</time>
      </trkpt>
      <trkpt lat="43.61712" lon="1.18969">
        <ele>235</ele>
        <time>2016-06-04T09:04:37Z</time>
      </trkpt>
      <trkpt lat="43.61712" lon="1.18983">
        <ele>234</ele>
        <time>2016-06-04T09:04:46Z</time>
      </trkpt>
      <trkpt lat="43.61713" lon="1.18987">
        <ele>232</ele>
        <time>2016-06-04T09:04:47Z</time>
      </trkpt>
      <trkpt lat="43.61715" lon="1.1899">
        <ele>231</ele>
        <time>2016-06-04T09:04:49Z</time>
      </trkpt>
      <trkpt lat="43.61717" lon="1.19003">
        <ele>228</ele>
        <time>2016-06-04T09:04:58Z</time>
      </trkpt>
      <trkpt lat="43.61717" lon="1.19005">
        <ele>225</ele>
        <time>2016-06-04T09:05:00Z</time>
      </trkpt>
      <trkpt lat="43.61717" lon="1.19005">
        <ele>224</ele>
        <time>2016-06-04T09:05:20Z</time>
      </trkpt>
      <trkpt lat="43.61717" lon="1.19005">
        <ele>223</ele>
        <time>2016-06-04T09:05:22Z</time>
      </trkpt>
      <trkpt lat="43.61722" lon="1.19009">
        <ele>218</ele>
        <time>2016-06-04T09:05:26Z</time>
      </trkpt>
      <trkpt lat="43.61723" lon="1.19008">
        <ele>216</ele>
        <time>2016-06-04T09:05:28Z</time>
      </trkpt>
      <trkpt lat="43.61721" lon="1.19007">
        <ele>214</ele>
        <time>2016-06-04T09:05:30Z</time>
      </trkpt>
      <trkpt lat="43.61721" lon="1.19007">
        <ele>211</ele>
        <time>2016-06-04T09:05:32Z</time>
      </trkpt>
      <trkpt lat="43.61721" lon="1.19006">
        <ele>210</ele>
        <time>2016-06-04T09:05:34Z</time>
      </trkpt>
      <trkpt lat="43.61721" lon="1.19006">
        <ele>210</ele>
        <time>2016-06-04T09:05:35Z</time>
      </trkpt>
      <trkpt lat="43.6172" lon="1.19005">
        <ele>209</ele>
        <time>2016-06-04T09:05:37Z</time>
      </trkpt>
      <trkpt lat="43.6172" lon="1.19005">
        <ele>208</ele>
        <time>2016-06-04T09:05:38Z</time>
      </trkpt>
      <trkpt lat="43.61721" lon="1.19005">
        <ele>208</ele>
        <time>2016-06-04T09:05:40Z</time>
      </trkpt>
      <trkpt lat="43.61722" lon="1.19005">
        <ele>207</ele>
        <time>2016-06-04T09:05:42Z</time>
      </trkpt>
      <trkpt lat="43.61722" lon="1.19005">
        <ele>206</ele>
        <time>2016-06-04T09:06:04Z</time>
      </trkpt>
      <trkpt lat="43.61742" lon="1.1901">
        <ele>209</ele>
        <time>2016-06-04T09:06:11Z</time>
      </trkpt>
      <trkpt lat="43.61731" lon="1.19018">
        <ele>204</ele>
        <time>2016-06-04T09:06:34Z</time>
      </trkpt>
      <trkpt lat="43.61731" lon="1.19018">
        <ele>202</ele>
        <time>2016-06-04T09:06:36Z</time>
      </trkpt>
      <trkpt lat="43.61729" lon="1.19015">
        <ele>201</ele>
        <time>2016-06-04T09:06:46Z</time>
      </trkpt>
      <trkpt lat="43.61728" lon="1.19016">
        <ele>201</ele>
        <time>2016-06-04T09:06:48Z</time>
      </trkpt>
      <trkpt lat="43.61727" lon="1.19016">
        <ele>201</ele>
        <time>2016-06-04T09:06:49Z</time>
      </trkpt>
      <trkpt lat="43.61725" lon="1.19016">
        <ele>200</ele>
        <time>2016-06-04T09:06:50Z</time>
      </trkpt>
      <trkpt lat="43.61723" lon="1.19016">
        <ele>200</ele>
        <time>2016-06-04T09:06:52Z</time>
      </trkpt>
      <trkpt lat="43.61721" lon="1.19015">
        <ele>200</ele>
        <time>2016-06-04T09:06:54Z</time>
      </trkpt>
      <trkpt lat="43.6172" lon="1.19016">
        <ele>200</ele>
        <time>2016-06-04T09:06:55Z</time>
      </trkpt>
      <trkpt lat="43.61718" lon="1.19016">
        <ele>200</ele>
        <time>2016-06-04T09:06:56Z</time>
      </trkpt>
      <trkpt lat="43.61715" lon="1.19016">
        <ele>200</ele>
        <time>2016-06-04T09:06:58Z</time>
      </trkpt>
      <trkpt lat="43.61713" lon="1.19017">
        <ele>200</ele>
        <time>2016-06-04T09:07:00Z</time>
      </trkpt>
      <trkpt lat="43.61711" lon="1.19018">
        <ele>200</ele>
        <time>2016-06-04T09:07:01Z</time>
      </trkpt>
      <trkpt lat="43.6171" lon="1.19019">
        <ele>200</ele>
        <time>2016-06-04T09:07:02Z</time>
      </trkpt>
      <trkpt lat="43.61706" lon="1.19019">
        <ele>200</ele>
        <time>2016-06-04T09:07:04Z</time>
      </trkpt>
      <trkpt lat="43.61705" lon="1.19018">
        <ele>200</ele>
        <time>2016-06-04T09:07:05Z</time>
      </trkpt>
      <trkpt lat="43.61702" lon="1.19018">
        <ele>200</ele>
        <time>2016-06-04T09:07:07Z</time>
      </trkpt>
      <trkpt lat="43.61701" lon="1.19018">
        <ele>200</ele>
        <time>2016-06-04T09:07:08Z</time>
      </trkpt>
      <trkpt lat="43.61699" lon="1.19017">
        <ele>200</ele>
        <time>2016-06-04T09:07:10Z</time>
      </trkpt>
      <trkpt lat="43.61692" lon="1.19019">
        <ele>200</ele>
        <time>2016-06-04T09:07:14Z</time>
      </trkpt>
      <trkpt lat="43.61691" lon="1.19017">
        <ele>200</ele>
        <time>2016-06-04T09:07:16Z</time>
      </trkpt>
      <trkpt lat="43.61689" lon="1.19017">
        <ele>200</ele>
        <time>2016-06-04T09:07:18Z</time>
      </trkpt>
      <trkpt lat="43.61689" lon="1.19015">
        <ele>200</ele>
        <time>2016-06-04T09:07:20Z</time>
      </trkpt>
      <trkpt lat="43.61687" lon="1.19015">
        <ele>200</ele>
        <time>2016-06-04T09:07:22Z</time>
      </trkpt>
      <trkpt lat="43.61684" lon="1.19016">
        <ele>200</ele>
        <time>2016-06-04T09:07:24Z</time>
      </trkpt>
      <trkpt lat="43.61683" lon="1.19016">
        <ele>200</ele>
        <time>2016-06-04T09:07:26Z</time>
      </trkpt>
      <trkpt lat="43.61676" lon="1.19017">
        <ele>200</ele>
        <time>2016-06-04T09:07:30Z</time>
      </trkpt>
      <trkpt lat="43.61673" lon="1.19016">
        <ele>200</ele>
        <time>2016-06-04T09:07:32Z</time>
      </trkpt>
      <trkpt lat="43.61667" lon="1.19017">
        <ele>201</ele>
        <time>2016-06-04T09:07:36Z</time>
      </trkpt>
      <trkpt lat="43.61664" lon="1.19018">
        <ele>201</ele>
        <time>2016-06-04T09:07:38Z</time>
      </trkpt>
      <trkpt lat="43.6166" lon="1.19018">
        <ele>201</ele>
        <time>2016-06-04T09:07:40Z</time>
      </trkpt>
      <trkpt lat="43.61643" lon="1.19023">
        <ele>201</ele>
        <time>2016-06-04T09:07:46Z</time>
      </trkpt>
      <trkpt lat="43.61637" lon="1.19023">
        <ele>201</ele>
        <time>2016-06-04T09:07:48Z</time>
      </trkpt>
      <trkpt lat="43.61631" lon="1.19022">
        <ele>201</ele>
        <time>2016-06-04T09:07:50Z</time>
      </trkpt>
      <trkpt lat="43.61629" lon="1.19022">
        <ele>201</ele>
        <time>2016-06-04T09:07:51Z</time>
      </trkpt>
      <trkpt lat="43.61622" lon="1.1902">
        <ele>201</ele>
        <time>2016-06-04T09:07:55Z</time>
      </trkpt>
      <trkpt lat="43.61621" lon="1.1902">
        <ele>201</ele>
        <time>2016-06-04T09:07:56Z</time>
      </trkpt>
      <trkpt lat="43.61622" lon="1.19017">
        <ele>201</ele>
        <time>2016-06-04T09:07:58Z</time>
      </trkpt>
      <trkpt lat="43.61619" lon="1.19017">
        <ele>202</ele>
        <time>2016-06-04T09:08:00Z</time>
      </trkpt>
      <trkpt lat="43.61618" lon="1.19015">
        <ele>202</ele>
        <time>2016-06-04T09:08:02Z</time>
      </trkpt>
      <trkpt lat="43.61617" lon="1.19017">
        <ele>202</ele>
        <time>2016-06-04T09:08:04Z</time>
      </trkpt>
      <trkpt lat="43.61614" lon="1.19018">
        <ele>202</ele>
        <time>2016-06-04T09:08:06Z</time>
      </trkpt>
      <trkpt lat="43.61614" lon="1.19018">
        <ele>202</ele>
        <time>2016-06-04T09:08:07Z</time>
      </trkpt>
      <trkpt lat="43.61613" lon="1.19019">
        <ele>202</ele>
        <time>2016-06-04T09:08:08Z</time>
      </trkpt>
      <trkpt lat="43.61613" lon="1.1902">
        <ele>202</ele>
        <time>2016-06-04T09:08:10Z</time>
      </trkpt>
      <trkpt lat="43.61612" lon="1.19021">
        <ele>202</ele>
        <time>2016-06-04T09:08:11Z</time>
      </trkpt>
      <trkpt lat="43.61614" lon="1.19022">
        <ele>202</ele>
        <time>2016-06-04T09:08:13Z</time>
      </trkpt>
      <trkpt lat="43.61613" lon="1.19023">
        <ele>202</ele>
        <time>2016-06-04T09:08:14Z</time>
      </trkpt>
      <trkpt lat="43.61612" lon="1.19024">
        <ele>202</ele>
        <time>2016-06-04T09:08:16Z</time>
      </trkpt>
      <trkpt lat="43.6161" lon="1.19026">
        <ele>202</ele>
        <time>2016-06-04T09:08:18Z</time>
      </trkpt>
      <trkpt lat="43.61582" lon="1.19029">
        <ele>202</ele>
        <time>2016-06-04T09:08:25Z</time>
      </trkpt>
      <trkpt lat="43.61581" lon="1.19029">
        <ele>202</ele>
        <time>2016-06-04T09:08:26Z</time>
      </trkpt>
      <trkpt lat="43.61578" lon="1.19029">
        <ele>202</ele>
        <time>2016-06-04T09:08:28Z</time>
      </trkpt>
      <trkpt lat="43.61575" lon="1.19029">
        <ele>202</ele>
        <time>2016-06-04T09:08:30Z</time>
      </trkpt>
      <trkpt lat="43.61573" lon="1.19031">
        <ele>202</ele>
        <time>2016-06-04T09:08:32Z</time>
      </trkpt>
      <trkpt lat="43.61572" lon="1.19031">
        <ele>202</ele>
        <time>2016-06-04T09:08:33Z</time>
      </trkpt>
      <trkpt lat="43.6157" lon="1.19032">
        <ele>202</ele>
        <time>2016-06-04T09:08:35Z</time>
      </trkpt>
      <trkpt lat="43.61569" lon="1.19033">
        <ele>202</ele>
        <time>2016-06-04T09:08:37Z</time>
      </trkpt>
      <trkpt lat="43.61568" lon="1.19034">
        <ele>202</ele>
        <time>2016-06-04T09:08:38Z</time>
      </trkpt>
      <trkpt lat="43.61567" lon="1.19035">
        <ele>202</ele>
        <time>2016-06-04T09:08:40Z</time>
      </trkpt>
      <trkpt lat="43.61565" lon="1.19036">
        <ele>202</ele>
        <time>2016-06-04T09:08:42Z</time>
      </trkpt>
      <trkpt lat="43.61564" lon="1.19038">
        <ele>202</ele>
        <time>2016-06-04T09:08:44Z</time>
      </trkpt>
      <trkpt lat="43.61562" lon="1.19037">
        <ele>202</ele>
        <time>2016-06-04T09:08:46Z</time>
      </trkpt>
      <trkpt lat="43.6155" lon="1.19036">
        <ele>201</ele>
        <time>2016-06-04T09:08:52Z</time>
      </trkpt>
      <trkpt lat="43.61548" lon="1.19036">
        <ele>201</ele>
        <time>2016-06-04T09:08:53Z</time>
      </trkpt>
      <trkpt lat="43.61536" lon="1.19037">
        <ele>201</ele>
        <time>2016-06-04T09:08:59Z</time>
      </trkpt>
      <trkpt lat="43.61534" lon="1.19038">
        <ele>201</ele>
        <time>2016-06-04T09:09:01Z</time>
      </trkpt>
      <trkpt lat="43.61533" lon="1.19039">
        <ele>201</ele>
        <time>2016-06-04T09:09:02Z</time>
      </trkpt>
      <trkpt lat="43.6153" lon="1.1904">
        <ele>201</ele>
        <time>2016-06-04T09:09:04Z</time>
      </trkpt>
      <trkpt lat="43.6153" lon="1.19042">
        <ele>201</ele>
        <time>2016-06-04T09:09:06Z</time>
      </trkpt>
      <trkpt lat="43.61529" lon="1.19043">
        <ele>202</ele>
        <time>2016-06-04T09:09:07Z</time>
      </trkpt>
      <trkpt lat="43.61529" lon="1.19044">
        <ele>202</ele>
        <time>2016-06-04T09:09:08Z</time>
      </trkpt>
      <trkpt lat="43.61527" lon="1.19047">
        <ele>202</ele>
        <time>2016-06-04T09:09:10Z</time>
      </trkpt>
      <trkpt lat="43.61525" lon="1.19049">
        <ele>202</ele>
        <time>2016-06-04T09:09:12Z</time>
      </trkpt>
      <trkpt lat="43.61524" lon="1.19052">
        <ele>202</ele>
        <time>2016-06-04T09:09:14Z</time>
      </trkpt>
      <trkpt lat="43.61523" lon="1.19053">
        <ele>202</ele>
        <time>2016-06-04T09:09:16Z</time>
      </trkpt>
      <trkpt lat="43.61523" lon="1.19055">
        <ele>203</ele>
        <time>2016-06-04T09:09:17Z</time>
      </trkpt>
      <trkpt lat="43.61522" lon="1.19056">
        <ele>203</ele>
        <time>2016-06-04T09:09:19Z</time>
      </trkpt>
      <trkpt lat="43.61522" lon="1.19056">
        <ele>203</ele>
        <time>2016-06-04T09:09:20Z</time>
      </trkpt>
      <trkpt lat="43.6152" lon="1.19059">
        <ele>203</ele>
        <time>2016-06-04T09:09:22Z</time>
      </trkpt>
      <trkpt lat="43.6152" lon="1.1906">
        <ele>204</ele>
        <time>2016-06-04T09:09:23Z</time>
      </trkpt>
      <trkpt lat="43.61521" lon="1.19063">
        <ele>204</ele>
        <time>2016-06-04T09:09:25Z</time>
      </trkpt>
      <trkpt lat="43.61522" lon="1.19064">
        <ele>204</ele>
        <time>2016-06-04T09:09:26Z</time>
      </trkpt>
      <trkpt lat="43.61522" lon="1.19067">
        <ele>204</ele>
        <time>2016-06-04T09:09:28Z</time>
      </trkpt>
      <trkpt lat="43.61522" lon="1.1907">
        <ele>205</ele>
        <time>2016-06-04T09:09:30Z</time>
      </trkpt>
      <trkpt lat="43.61523" lon="1.19073">
        <ele>205</ele>
        <time>2016-06-04T09:09:32Z</time>
      </trkpt>
      <trkpt lat="43.61523" lon="1.19076">
        <ele>205</ele>
        <time>2016-06-04T09:09:34Z</time>
      </trkpt>
      <trkpt lat="43.61524" lon="1.19077">
        <ele>206</ele>
        <time>2016-06-04T09:09:36Z</time>
      </trkpt>
      <trkpt lat="43.61524" lon="1.1908">
        <ele>206</ele>
        <time>2016-06-04T09:09:37Z</time>
      </trkpt>
      <trkpt lat="43.61524" lon="1.19082">
        <ele>206</ele>
        <time>2016-06-04T09:09:38Z</time>
      </trkpt>
      <trkpt lat="43.61525" lon="1.19085">
        <ele>206</ele>
        <time>2016-06-04T09:09:40Z</time>
      </trkpt>
      <trkpt lat="43.61527" lon="1.19088">
        <ele>207</ele>
        <time>2016-06-04T09:09:42Z</time>
      </trkpt>
      <trkpt lat="43.61528" lon="1.19089">
        <ele>207</ele>
        <time>2016-06-04T09:09:44Z</time>
      </trkpt>
      <trkpt lat="43.61529" lon="1.19092">
        <ele>207</ele>
        <time>2016-06-04T09:09:46Z</time>
      </trkpt>
      <trkpt lat="43.6153" lon="1.19094">
        <ele>208</ele>
        <time>2016-06-04T09:09:48Z</time>
      </trkpt>
      <trkpt lat="43.6153" lon="1.19095">
        <ele>208</ele>
        <time>2016-06-04T09:09:49Z</time>
      </trkpt>
      <trkpt lat="43.61531" lon="1.19095">
        <ele>208</ele>
        <time>2016-06-04T09:09:50Z</time>
      </trkpt>
      <trkpt lat="43.61531" lon="1.19098">
        <ele>208</ele>
        <time>2016-06-04T09:09:52Z</time>
      </trkpt>
      <trkpt lat="43.61533" lon="1.19106">
        <ele>209</ele>
        <time>2016-06-04T09:09:56Z</time>
      </trkpt>
      <trkpt lat="43.61534" lon="1.19108">
        <ele>209</ele>
        <time>2016-06-04T09:09:58Z</time>
      </trkpt>
      <trkpt lat="43.61534" lon="1.1911">
        <ele>209</ele>
        <time>2016-06-04T09:10:00Z</time>
      </trkpt>
      <trkpt lat="43.61534" lon="1.19112">
        <ele>209</ele>
        <time>2016-06-04T09:10:01Z</time>
      </trkpt>
      <trkpt lat="43.61533" lon="1.19113">
        <ele>209</ele>
        <time>2016-06-04T09:10:02Z</time>
      </trkpt>
      <trkpt lat="43.61533" lon="1.19115">
        <ele>210</ele>
        <time>2016-06-04T09:10:04Z</time>
      </trkpt>
      <trkpt lat="43.61533" lon="1.19116">
        <ele>210</ele>
        <time>2016-06-04T09:10:05Z</time>
      </trkpt>
      <trkpt lat="43.61532" lon="1.19118">
        <ele>210</ele>
        <time>2016-06-04T09:10:07Z</time>
      </trkpt>
      <trkpt lat="43.61532" lon="1.19119">
        <ele>210</ele>
        <time>2016-06-04T09:10:08Z</time>
      </trkpt>
      <trkpt lat="43.61529" lon="1.19122">
        <ele>210</ele>
        <time>2016-06-04T09:10:10Z</time>
      </trkpt>
      <trkpt lat="43.61527" lon="1.19125">
        <ele>210</ele>
        <time>2016-06-04T09:10:12Z</time>
      </trkpt>
      <trkpt lat="43.61522" lon="1.19133">
        <ele>211</ele>
        <time>2016-06-04T09:10:16Z</time>
      </trkpt>
      <trkpt lat="43.6152" lon="1.19137">
        <ele>211</ele>
        <time>2016-06-04T09:10:18Z</time>
      </trkpt>
      <trkpt lat="43.6152" lon="1.19138">
        <ele>211</ele>
        <time>2016-06-04T09:10:19Z</time>
      </trkpt>
      <trkpt lat="43.6152" lon="1.1914">
        <ele>211</ele>
        <time>2016-06-04T09:10:20Z</time>
      </trkpt>
      <trkpt lat="43.61519" lon="1.19143">
        <ele>211</ele>
        <time>2016-06-04T09:10:22Z</time>
      </trkpt>
      <trkpt lat="43.61517" lon="1.19147">
        <ele>211</ele>
        <time>2016-06-04T09:10:24Z</time>
      </trkpt>
      <trkpt lat="43.61515" lon="1.19149">
        <ele>212</ele>
        <time>2016-06-04T09:10:26Z</time>
      </trkpt>
      <trkpt lat="43.61513" lon="1.19152">
        <ele>212</ele>
        <time>2016-06-04T09:10:28Z</time>
      </trkpt>
      <trkpt lat="43.61511" lon="1.19154">
        <ele>212</ele>
        <time>2016-06-04T09:10:30Z</time>
      </trkpt>
      <trkpt lat="43.61511" lon="1.19157">
        <ele>212</ele>
        <time>2016-06-04T09:10:32Z</time>
      </trkpt>
      <trkpt lat="43.61512" lon="1.1919">
        <ele>211</ele>
        <time>2016-06-04T09:10:38Z</time>
      </trkpt>
      <trkpt lat="43.61511" lon="1.19194">
        <ele>210</ele>
        <time>2016-06-04T09:10:40Z</time>
      </trkpt>
      <trkpt lat="43.61509" lon="1.19198">
        <ele>210</ele>
        <time>2016-06-04T09:10:42Z</time>
      </trkpt>
      <trkpt lat="43.6151" lon="1.19205">
        <ele>209</ele>
        <time>2016-06-04T09:10:44Z</time>
      </trkpt>
      <trkpt lat="43.61493" lon="1.19218">
        <ele>209</ele>
        <time>2016-06-04T09:10:47Z</time>
      </trkpt>
      <trkpt lat="43.61491" lon="1.19219">
        <ele>209</ele>
        <time>2016-06-04T09:10:49Z</time>
      </trkpt>
      <trkpt lat="43.61484" lon="1.19225">
        <ele>210</ele>
        <time>2016-06-04T09:10:52Z</time>
      </trkpt>
      <trkpt lat="43.61469" lon="1.19235">
        <ele>209</ele>
        <time>2016-06-04T09:11:01Z</time>
      </trkpt>
      <trkpt lat="43.61468" lon="1.19235">
        <ele>209</ele>
        <time>2016-06-04T09:11:02Z</time>
      </trkpt>
      <trkpt lat="43.61465" lon="1.19236">
        <ele>209</ele>
        <time>2016-06-04T09:11:04Z</time>
      </trkpt>
      <trkpt lat="43.61464" lon="1.19237">
        <ele>209</ele>
        <time>2016-06-04T09:11:05Z</time>
      </trkpt>
      <trkpt lat="43.61463" lon="1.19238">
        <ele>210</ele>
        <time>2016-06-04T09:11:07Z</time>
      </trkpt>
      <trkpt lat="43.61452" lon="1.19243">
        <ele>210</ele>
        <time>2016-06-04T09:11:13Z</time>
      </trkpt>
      <trkpt lat="43.61451" lon="1.19244">
        <ele>210</ele>
        <time>2016-06-04T09:11:14Z</time>
      </trkpt>
      <trkpt lat="43.61449" lon="1.19246">
        <ele>210</ele>
        <time>2016-06-04T09:11:16Z</time>
      </trkpt>
      <trkpt lat="43.61447" lon="1.19248">
        <ele>210</ele>
        <time>2016-06-04T09:11:18Z</time>
      </trkpt>
      <trkpt lat="43.61445" lon="1.1925">
        <ele>210</ele>
        <time>2016-06-04T09:11:20Z</time>
      </trkpt>
      <trkpt lat="43.6144" lon="1.19255">
        <ele>210</ele>
        <time>2016-06-04T09:11:22Z</time>
      </trkpt>
      <trkpt lat="43.61437" lon="1.19255">
        <ele>210</ele>
        <time>2016-06-04T09:11:24Z</time>
      </trkpt>
      <trkpt lat="43.61437" lon="1.19255">
        <ele>210</ele>
        <time>2016-06-04T09:11:25Z</time>
      </trkpt>
      <trkpt lat="43.61435" lon="1.19255">
        <ele>210</ele>
        <time>2016-06-04T09:11:26Z</time>
      </trkpt>
      <trkpt lat="43.61433" lon="1.19255">
        <ele>210</ele>
        <time>2016-06-04T09:11:28Z</time>
      </trkpt>
      <trkpt lat="43.61432" lon="1.19256">
        <ele>210</ele>
        <time>2016-06-04T09:11:30Z</time>
      </trkpt>
      <trkpt lat="43.61427" lon="1.19258">
        <ele>210</ele>
        <time>2016-06-04T09:11:32Z</time>
      </trkpt>
      <trkpt lat="43.61422" lon="1.1926">
        <ele>209</ele>
        <time>2016-06-04T09:11:35Z</time>
      </trkpt>
      <trkpt lat="43.6142" lon="1.19261">
        <ele>209</ele>
        <time>2016-06-04T09:11:37Z</time>
      </trkpt>
      <trkpt lat="43.6142" lon="1.19262">
        <ele>209</ele>
        <time>2016-06-04T09:11:38Z</time>
      </trkpt>
      <trkpt lat="43.61417" lon="1.19264">
        <ele>209</ele>
        <time>2016-06-04T09:11:40Z</time>
      </trkpt>
      <trkpt lat="43.61415" lon="1.19265">
        <ele>209</ele>
        <time>2016-06-04T09:11:42Z</time>
      </trkpt>
      <trkpt lat="43.61413" lon="1.19267">
        <ele>209</ele>
        <time>2016-06-04T09:11:44Z</time>
      </trkpt>
      <trkpt lat="43.61411" lon="1.19268">
        <ele>209</ele>
        <time>2016-06-04T09:11:46Z</time>
      </trkpt>
      <trkpt lat="43.61407" lon="1.19269">
        <ele>209</ele>
        <time>2016-06-04T09:11:48Z</time>
      </trkpt>
      <trkpt lat="43.614" lon="1.19268">
        <ele>209</ele>
        <time>2016-06-04T09:11:52Z</time>
      </trkpt>
      <trkpt lat="43.61398" lon="1.1927">
        <ele>209</ele>
        <time>2016-06-04T09:11:54Z</time>
      </trkpt>
      <trkpt lat="43.61385" lon="1.19273">
        <ele>209</ele>
        <time>2016-06-04T09:12:01Z</time>
      </trkpt>
      <trkpt lat="43.61383" lon="1.19273">
        <ele>209</ele>
        <time>2016-06-04T09:12:02Z</time>
      </trkpt>
      <trkpt lat="43.61381" lon="1.19275">
        <ele>208</ele>
        <time>2016-06-04T09:12:04Z</time>
      </trkpt>
      <trkpt lat="43.61379" lon="1.19277">
        <ele>208</ele>
        <time>2016-06-04T09:12:06Z</time>
      </trkpt>
      <trkpt lat="43.61376" lon="1.1928">
        <ele>208</ele>
        <time>2016-06-04T09:12:08Z</time>
      </trkpt>
      <trkpt lat="43.61376" lon="1.19282">
        <ele>208</ele>
        <time>2016-06-04T09:12:10Z</time>
      </trkpt>
      <trkpt lat="43.61375" lon="1.19285">
        <ele>208</ele>
        <time>2016-06-04T09:12:12Z</time>
      </trkpt>
      <trkpt lat="43.61347" lon="1.19295">
        <ele>208</ele>
        <time>2016-06-04T09:12:25Z</time>
      </trkpt>
      <trkpt lat="43.61346" lon="1.19296">
        <ele>208</ele>
        <time>2016-06-04T09:12:26Z</time>
      </trkpt>
      <trkpt lat="43.61344" lon="1.19298">
        <ele>208</ele>
        <time>2016-06-04T09:12:28Z</time>
      </trkpt>
      <trkpt lat="43.61341" lon="1.193">
        <ele>208</ele>
        <time>2016-06-04T09:12:30Z</time>
      </trkpt>
      <trkpt lat="43.61337" lon="1.19301">
        <ele>208</ele>
        <time>2016-06-04T09:12:32Z</time>
      </trkpt>
      <trkpt lat="43.61334" lon="1.19303">
        <ele>208</ele>
        <time>2016-06-04T09:12:34Z</time>
      </trkpt>
      <trkpt lat="43.61331" lon="1.19302">
        <ele>208</ele>
        <time>2016-06-04T09:12:36Z</time>
      </trkpt>
      <trkpt lat="43.61328" lon="1.19302">
        <ele>207</ele>
        <time>2016-06-04T09:12:38Z</time>
      </trkpt>
      <trkpt lat="43.61327" lon="1.19305">
        <ele>207</ele>
        <time>2016-06-04T09:12:40Z</time>
      </trkpt>
      <trkpt lat="43.61314" lon="1.19314">
        <ele>207</ele>
        <time>2016-06-04T09:12:48Z</time>
      </trkpt>
      <trkpt lat="43.61313" lon="1.19315">
        <ele>207</ele>
        <time>2016-06-04T09:12:50Z</time>
      </trkpt>
      <trkpt lat="43.6131" lon="1.19316">
        <ele>207</ele>
        <time>2016-06-04T09:12:52Z</time>
      </trkpt>
      <trkpt lat="43.61301" lon="1.19319">
        <ele>207</ele>
        <time>2016-06-04T09:12:58Z</time>
      </trkpt>
      <trkpt lat="43.61297" lon="1.19322">
        <ele>207</ele>
        <time>2016-06-04T09:13:00Z</time>
      </trkpt>
      <trkpt lat="43.61296" lon="1.19323">
        <ele>207</ele>
        <time>2016-06-04T09:13:01Z</time>
      </trkpt>
      <trkpt lat="43.61292" lon="1.19327">
        <ele>207</ele>
        <time>2016-06-04T09:13:04Z</time>
      </trkpt>
      <trkpt lat="43.61287" lon="1.1933">
        <ele>207</ele>
        <time>2016-06-04T09:13:06Z</time>
      </trkpt>
      <trkpt lat="43.61285" lon="1.19331">
        <ele>207</ele>
        <time>2016-06-04T09:13:08Z</time>
      </trkpt>
      <trkpt lat="43.61282" lon="1.19333">
        <ele>206</ele>
        <time>2016-06-04T09:13:10Z</time>
      </trkpt>
      <trkpt lat="43.61278" lon="1.19335">
        <ele>206</ele>
        <time>2016-06-04T09:13:13Z</time>
      </trkpt>
      <trkpt lat="43.61276" lon="1.19336">
        <ele>206</ele>
        <time>2016-06-04T09:13:14Z</time>
      </trkpt>
      <trkpt lat="43.61274" lon="1.19337">
        <ele>206</ele>
        <time>2016-06-04T09:13:16Z</time>
      </trkpt>
      <trkpt lat="43.61271" lon="1.19339">
        <ele>206</ele>
        <time>2016-06-04T09:13:18Z</time>
      </trkpt>
      <trkpt lat="43.61269" lon="1.19341">
        <ele>206</ele>
        <time>2016-06-04T09:13:20Z</time>
      </trkpt>
      <trkpt lat="43.61268" lon="1.19342">
        <ele>206</ele>
        <time>2016-06-04T09:13:22Z</time>
      </trkpt>
      <trkpt lat="43.61264" lon="1.19344">
        <ele>206</ele>
        <time>2016-06-04T09:13:24Z</time>
      </trkpt>
      <trkpt lat="43.61253" lon="1.19349">
        <ele>206</ele>
        <time>2016-06-04T09:13:30Z</time>
      </trkpt>
      <trkpt lat="43.6125" lon="1.1935">
        <ele>206</ele>
        <time>2016-06-04T09:13:32Z</time>
      </trkpt>
      <trkpt lat="43.61249" lon="1.19351">
        <ele>206</ele>
        <time>2016-06-04T09:13:33Z</time>
      </trkpt>
      <trkpt lat="43.61242" lon="1.19352">
        <ele>206</ele>
        <time>2016-06-04T09:13:36Z</time>
      </trkpt>
      <trkpt lat="43.61234" lon="1.19357">
        <ele>206</ele>
        <time>2016-06-04T09:13:42Z</time>
      </trkpt>
      <trkpt lat="43.61233" lon="1.19358">
        <ele>206</ele>
        <time>2016-06-04T09:13:43Z</time>
      </trkpt>
      <trkpt lat="43.61232" lon="1.19359">
        <ele>206</ele>
        <time>2016-06-04T09:13:44Z</time>
      </trkpt>
      <trkpt lat="43.61227" lon="1.1936">
        <ele>206</ele>
        <time>2016-06-04T09:13:46Z</time>
      </trkpt>
      <trkpt lat="43.61221" lon="1.19363">
        <ele>206</ele>
        <time>2016-06-04T09:13:49Z</time>
      </trkpt>
      <trkpt lat="43.61219" lon="1.19362">
        <ele>206</ele>
        <time>2016-06-04T09:13:50Z</time>
      </trkpt>
      <trkpt lat="43.61198" lon="1.19352">
        <ele>205</ele>
        <time>2016-06-04T09:13:58Z</time>
      </trkpt>
      <trkpt lat="43.61198" lon="1.19352">
        <ele>204</ele>
        <time>2016-06-04T09:14:20Z</time>
      </trkpt>
      <trkpt lat="43.61198" lon="1.19352">
        <ele>204</ele>
        <time>2016-06-04T09:14:22Z</time>
      </trkpt>
      <trkpt lat="43.61179" lon="1.19358">
        <ele>202</ele>
        <time>2016-06-04T09:14:42Z</time>
      </trkpt>
      <trkpt lat="43.61179" lon="1.19357">
        <ele>201</ele>
        <time>2016-06-04T09:14:44Z</time>
      </trkpt>
      <trkpt lat="43.61179" lon="1.19356">
        <ele>200</ele>
        <time>2016-06-04T09:14:46Z</time>
      </trkpt>
      <trkpt lat="43.61179" lon="1.19356">
        <ele>200</ele>
        <time>2016-06-04T09:15:05Z</time>
      </trkpt>
      <trkpt lat="43.61179" lon="1.19356">
        <ele>200</ele>
        <time>2016-06-04T09:15:07Z</time>
      </trkpt>
      <trkpt lat="43.6117" lon="1.19359">
        <ele>199</ele>
        <time>2016-06-04T09:15:19Z</time>
      </trkpt>
      <trkpt lat="43.61169" lon="1.19359">
        <ele>198</ele>
        <time>2016-06-04T09:15:20Z</time>
      </trkpt>
      <trkpt lat="43.61169" lon="1.1936">
        <ele>198</ele>
        <time>2016-06-04T09:15:22Z</time>
      </trkpt>
      <trkpt lat="43.61169" lon="1.1936">
        <ele>197</ele>
        <time>2016-06-04T09:15:50Z</time>
      </trkpt>
      <trkpt lat="43.61169" lon="1.1936">
        <ele>197</ele>
        <time>2016-06-04T09:15:52Z</time>
      </trkpt>
      <trkpt lat="43.61169" lon="1.1936">
        <ele>197</ele>
        <time>2016-06-04T09:16:20Z</time>
      </trkpt>
      <trkpt lat="43.61169" lon="1.1936">
        <ele>197</ele>
        <time>2016-06-04T09:16:22Z</time>
      </trkpt>
      <trkpt lat="43.61174" lon="1.19355">
        <ele>196</ele>
        <time>2016-06-04T09:16:37Z</time>
      </trkpt>
      <trkpt lat="43.61175" lon="1.19355">
        <ele>196</ele>
        <time>2016-06-04T09:16:38Z</time>
      </trkpt>
      <trkpt lat="43.61175" lon="1.19355">
        <ele>196</ele>
        <time>2016-06-04T09:16:40Z</time>
      </trkpt>
      <trkpt lat="43.61174" lon="1.19355">
        <ele>195</ele>
        <time>2016-06-04T09:16:42Z</time>
      </trkpt>
      <trkpt lat="43.61171" lon="1.19364">
        <ele>195</ele>
        <time>2016-06-04T09:16:58Z</time>
      </trkpt>
      <trkpt lat="43.61172" lon="1.19364">
        <ele>194</ele>
        <time>2016-06-04T09:17:00Z</time>
      </trkpt>
      <trkpt lat="43.61172" lon="1.19364">
        <ele>194</ele>
        <time>2016-06-04T09:17:02Z</time>
      </trkpt>
      <trkpt lat="43.61174" lon="1.19363">
        <ele>194</ele>
        <time>2016-06-04T09:17:04Z</time>
      </trkpt>
      <trkpt lat="43.61175" lon="1.19363">
        <ele>194</ele>
        <time>2016-06-04T09:17:05Z</time>
      </trkpt>
      <trkpt lat="43.61177" lon="1.19363">
        <ele>194</ele>
        <time>2016-06-04T09:17:07Z</time>
      </trkpt>
      <trkpt lat="43.61177" lon="1.19363">
        <ele>194</ele>
        <time>2016-06-04T09:17:08Z</time>
      </trkpt>
      <trkpt lat="43.61181" lon="1.19365">
        <ele>194</ele>
        <time>2016-06-04T09:17:10Z</time>
      </trkpt>
      <trkpt lat="43.61182" lon="1.19366">
        <ele>194</ele>
        <time>2016-06-04T09:17:12Z</time>
      </trkpt>
      <trkpt lat="43.61184" lon="1.19368">
        <ele>194</ele>
        <time>2016-06-04T09:17:14Z</time>
      </trkpt>
      <trkpt lat="43.61186" lon="1.1937">
        <ele>195</ele>
        <time>2016-06-04T09:17:16Z</time>
      </trkpt>
      <trkpt lat="43.61188" lon="1.1937">
        <ele>195</ele>
        <time>2016-06-04T09:17:18Z</time>
      </trkpt>
      <trkpt lat="43.6119" lon="1.19373">
        <ele>195</ele>
        <time>2016-06-04T09:17:20Z</time>
      </trkpt>
      <trkpt lat="43.61194" lon="1.19375">
        <ele>195</ele>
        <time>2016-06-04T09:17:22Z</time>
      </trkpt>
      <trkpt lat="43.61196" lon="1.19378">
        <ele>195</ele>
        <time>2016-06-04T09:17:24Z</time>
      </trkpt>
      <trkpt lat="43.61198" lon="1.19379">
        <ele>195</ele>
        <time>2016-06-04T09:17:25Z</time>
      </trkpt>
      <trkpt lat="43.61198" lon="1.19381">
        <ele>195</ele>
        <time>2016-06-04T09:17:26Z</time>
      </trkpt>
      <trkpt lat="43.612" lon="1.19384">
        <ele>196</ele>
        <time>2016-06-04T09:17:28Z</time>
      </trkpt>
      <trkpt lat="43.612" lon="1.19386">
        <ele>196</ele>
        <time>2016-06-04T09:17:30Z</time>
      </trkpt>
      <trkpt lat="43.61201" lon="1.1939">
        <ele>196</ele>
        <time>2016-06-04T09:17:32Z</time>
      </trkpt>
      <trkpt lat="43.61202" lon="1.19394">
        <ele>196</ele>
        <time>2016-06-04T09:17:34Z</time>
      </trkpt>
      <trkpt lat="43.61203" lon="1.19397">
        <ele>196</ele>
        <time>2016-06-04T09:17:36Z</time>
      </trkpt>
      <trkpt lat="43.61204" lon="1.19399">
        <ele>197</ele>
        <time>2016-06-04T09:17:38Z</time>
      </trkpt>
      <trkpt lat="43.61205" lon="1.19402">
        <ele>197</ele>
        <time>2016-06-04T09:17:40Z</time>
      </trkpt>
      <trkpt lat="43.61206" lon="1.19406">
        <ele>197</ele>
        <time>2016-06-04T09:17:42Z</time>
      </trkpt>
      <trkpt lat="43.61207" lon="1.19409">
        <ele>198</ele>
        <time>2016-06-04T09:17:44Z</time>
      </trkpt>
      <trkpt lat="43.61206" lon="1.19412">
        <ele>198</ele>
        <time>2016-06-04T09:17:46Z</time>
      </trkpt>
      <trkpt lat="43.61206" lon="1.19415">
        <ele>198</ele>
        <time>2016-06-04T09:17:48Z</time>
      </trkpt>
      <trkpt lat="43.61206" lon="1.1942">
        <ele>199</ele>
        <time>2016-06-04T09:17:50Z</time>
      </trkpt>
      <trkpt lat="43.61206" lon="1.19422">
        <ele>199</ele>
        <time>2016-06-04T09:17:52Z</time>
      </trkpt>
      <trkpt lat="43.61208" lon="1.19425">
        <ele>199</ele>
        <time>2016-06-04T09:17:54Z</time>
      </trkpt>
      <trkpt lat="43.61208" lon="1.19426">
        <ele>199</ele>
        <time>2016-06-04T09:17:56Z</time>
      </trkpt>
      <trkpt lat="43.61208" lon="1.19429">
        <ele>200</ele>
        <time>2016-06-04T09:17:58Z</time>
      </trkpt>
      <trkpt lat="43.61208" lon="1.19432">
        <ele>200</ele>
        <time>2016-06-04T09:18:00Z</time>
      </trkpt>
      <trkpt lat="43.61209" lon="1.19436">
        <ele>200</ele>
        <time>2016-06-04T09:18:02Z</time>
      </trkpt>
      <trkpt lat="43.61209" lon="1.1944">
        <ele>200</ele>
        <time>2016-06-04T09:18:04Z</time>
      </trkpt>
      <trkpt lat="43.61209" lon="1.19441">
        <ele>200</ele>
        <time>2016-06-04T09:18:05Z</time>
      </trkpt>
      <trkpt lat="43.6121" lon="1.19443">
        <ele>201</ele>
        <time>2016-06-04T09:18:07Z</time>
      </trkpt>
      <trkpt lat="43.6121" lon="1.19444">
        <ele>201</ele>
        <time>2016-06-04T09:18:08Z</time>
      </trkpt>
      <trkpt lat="43.6121" lon="1.19446">
        <ele>201</ele>
        <time>2016-06-04T09:18:10Z</time>
      </trkpt>
      <trkpt lat="43.61211" lon="1.19446">
        <ele>201</ele>
        <time>2016-06-04T09:18:12Z</time>
      </trkpt>
      <trkpt lat="43.61213" lon="1.1945">
        <ele>201</ele>
        <time>2016-06-04T09:18:14Z</time>
      </trkpt>
      <trkpt lat="43.61214" lon="1.19451">
        <ele>201</ele>
        <time>2016-06-04T09:18:15Z</time>
      </trkpt>
      <trkpt lat="43.61216" lon="1.19452">
        <ele>202</ele>
        <time>2016-06-04T09:18:17Z</time>
      </trkpt>
      <trkpt lat="43.61218" lon="1.19454">
        <ele>202</ele>
        <time>2016-06-04T09:18:19Z</time>
      </trkpt>
      <trkpt lat="43.61219" lon="1.19454">
        <ele>202</ele>
        <time>2016-06-04T09:18:20Z</time>
      </trkpt>
      <trkpt lat="43.61221" lon="1.19456">
        <ele>202</ele>
        <time>2016-06-04T09:18:22Z</time>
      </trkpt>
      <trkpt lat="43.61219" lon="1.19463">
        <ele>202</ele>
        <time>2016-06-04T09:18:24Z</time>
      </trkpt>
      <trkpt lat="43.61221" lon="1.19466">
        <ele>202</ele>
        <time>2016-06-04T09:18:26Z</time>
      </trkpt>
      <trkpt lat="43.61222" lon="1.19467">
        <ele>202</ele>
        <time>2016-06-04T09:18:28Z</time>
      </trkpt>
      <trkpt lat="43.61224" lon="1.19469">
        <ele>202</ele>
        <time>2016-06-04T09:18:30Z</time>
      </trkpt>
      <trkpt lat="43.61226" lon="1.19469">
        <ele>202</ele>
        <time>2016-06-04T09:18:31Z</time>
      </trkpt>
      <trkpt lat="43.61227" lon="1.1947">
        <ele>202</ele>
        <time>2016-06-04T09:18:32Z</time>
      </trkpt>
      <trkpt lat="43.61229" lon="1.19471">
        <ele>202</ele>
        <time>2016-06-04T09:18:34Z</time>
      </trkpt>
      <trkpt lat="43.61231" lon="1.19471">
        <ele>202</ele>
        <time>2016-06-04T09:18:36Z</time>
      </trkpt>
      <trkpt lat="43.61232" lon="1.19471">
        <ele>202</ele>
        <time>2016-06-04T09:18:37Z</time>
      </trkpt>
      <trkpt lat="43.61233" lon="1.19471">
        <ele>202</ele>
        <time>2016-06-04T09:18:38Z</time>
      </trkpt>
      <trkpt lat="43.61235" lon="1.19471">
        <ele>202</ele>
        <time>2016-06-04T09:18:40Z</time>
      </trkpt>
      <trkpt lat="43.61237" lon="1.1947">
        <ele>202</ele>
        <time>2016-06-04T09:18:42Z</time>
      </trkpt>
      <trkpt lat="43.61238" lon="1.1947">
        <ele>202</ele>
        <time>2016-06-04T09:18:43Z</time>
      </trkpt>
      <trkpt lat="43.61239" lon="1.19471">
        <ele>202</ele>
        <time>2016-06-04T09:18:45Z</time>
      </trkpt>
      <trkpt lat="43.61241" lon="1.19471">
        <ele>202</ele>
        <time>2016-06-04T09:18:46Z</time>
      </trkpt>
      <trkpt lat="43.61243" lon="1.19473">
        <ele>202</ele>
        <time>2016-06-04T09:18:48Z</time>
      </trkpt>
      <trkpt lat="43.61247" lon="1.19475">
        <ele>202</ele>
        <time>2016-06-04T09:18:50Z</time>
      </trkpt>
      <trkpt lat="43.61249" lon="1.19476">
        <ele>202</ele>
        <time>2016-06-04T09:18:52Z</time>
      </trkpt>
      <trkpt lat="43.61251" lon="1.19475">
        <ele>202</ele>
        <time>2016-06-04T09:18:54Z</time>
      </trkpt>
      <trkpt lat="43.61254" lon="1.19474">
        <ele>202</ele>
        <time>2016-06-04T09:18:56Z</time>
      </trkpt>
      <trkpt lat="43.61257" lon="1.19475">
        <ele>202</ele>
        <time>2016-06-04T09:18:58Z</time>
      </trkpt>
      <trkpt lat="43.61258" lon="1.19476">
        <ele>202</ele>
        <time>2016-06-04T09:19:00Z</time>
      </trkpt>
      <trkpt lat="43.6126" lon="1.19477">
        <ele>202</ele>
        <time>2016-06-04T09:19:01Z</time>
      </trkpt>
      <trkpt lat="43.61262" lon="1.19477">
        <ele>202</ele>
        <time>2016-06-04T09:19:02Z</time>
      </trkpt>
      <trkpt lat="43.61265" lon="1.19479">
        <ele>202</ele>
        <time>2016-06-04T09:19:04Z</time>
      </trkpt>
      <trkpt lat="43.61266" lon="1.1948">
        <ele>202</ele>
        <time>2016-06-04T09:19:05Z</time>
      </trkpt>
      <trkpt lat="43.61268" lon="1.19482">
        <ele>202</ele>
        <time>2016-06-04T09:19:07Z</time>
      </trkpt>
      <trkpt lat="43.6127" lon="1.19482">
        <ele>202</ele>
        <time>2016-06-04T09:19:08Z</time>
      </trkpt>
      <trkpt lat="43.61271" lon="1.19484">
        <ele>202</ele>
        <time>2016-06-04T09:19:10Z</time>
      </trkpt>
      <trkpt lat="43.61273" lon="1.19486">
        <ele>202</ele>
        <time>2016-06-04T09:19:12Z</time>
      </trkpt>
      <trkpt lat="43.61274" lon="1.19487">
        <ele>202</ele>
        <time>2016-06-04T09:19:13Z</time>
      </trkpt>
      <trkpt lat="43.61274" lon="1.19489">
        <ele>202</ele>
        <time>2016-06-04T09:19:14Z</time>
      </trkpt>
      <trkpt lat="43.61276" lon="1.19491">
        <ele>202</ele>
        <time>2016-06-04T09:19:16Z</time>
      </trkpt>
      <trkpt lat="43.61277" lon="1.19493">
        <ele>202</ele>
        <time>2016-06-04T09:19:18Z</time>
      </trkpt>
      <trkpt lat="43.61277" lon="1.19495">
        <ele>202</ele>
        <time>2016-06-04T09:19:19Z</time>
      </trkpt>
      <trkpt lat="43.61278" lon="1.19496">
        <ele>202</ele>
        <time>2016-06-04T09:19:20Z</time>
      </trkpt>
      <trkpt lat="43.6128" lon="1.19498">
        <ele>202</ele>
        <time>2016-06-04T09:19:22Z</time>
      </trkpt>
      <trkpt lat="43.61282" lon="1.19501">
        <ele>202</ele>
        <time>2016-06-04T09:19:24Z</time>
      </trkpt>
      <trkpt lat="43.61282" lon="1.19502">
        <ele>202</ele>
        <time>2016-06-04T09:19:25Z</time>
      </trkpt>
      <trkpt lat="43.61282" lon="1.19503">
        <ele>202</ele>
        <time>2016-06-04T09:19:26Z</time>
      </trkpt>
      <trkpt lat="43.61283" lon="1.19505">
        <ele>203</ele>
        <time>2016-06-04T09:19:28Z</time>
      </trkpt>
      <trkpt lat="43.61284" lon="1.19508">
        <ele>203</ele>
        <time>2016-06-04T09:19:30Z</time>
      </trkpt>
      <trkpt lat="43.61285" lon="1.1951">
        <ele>203</ele>
        <time>2016-06-04T09:19:32Z</time>
      </trkpt>
      <trkpt lat="43.61285" lon="1.19513">
        <ele>204</ele>
        <time>2016-06-04T09:19:34Z</time>
      </trkpt>
      <trkpt lat="43.61286" lon="1.19516">
        <ele>204</ele>
        <time>2016-06-04T09:19:36Z</time>
      </trkpt>
      <trkpt lat="43.61286" lon="1.1952">
        <ele>205</ele>
        <time>2016-06-04T09:19:38Z</time>
      </trkpt>
      <trkpt lat="43.61286" lon="1.19522">
        <ele>205</ele>
        <time>2016-06-04T09:19:40Z</time>
      </trkpt>
      <trkpt lat="43.61286" lon="1.19526">
        <ele>205</ele>
        <time>2016-06-04T09:19:42Z</time>
      </trkpt>
      <trkpt lat="43.61286" lon="1.19529">
        <ele>206</ele>
        <time>2016-06-04T09:19:44Z</time>
      </trkpt>
      <trkpt lat="43.61286" lon="1.1953">
        <ele>206</ele>
        <time>2016-06-04T09:19:45Z</time>
      </trkpt>
      <trkpt lat="43.61286" lon="1.19531">
        <ele>206</ele>
        <time>2016-06-04T09:19:46Z</time>
      </trkpt>
      <trkpt lat="43.61286" lon="1.19535">
        <ele>207</ele>
        <time>2016-06-04T09:19:48Z</time>
      </trkpt>
      <trkpt lat="43.61286" lon="1.19537">
        <ele>207</ele>
        <time>2016-06-04T09:19:49Z</time>
      </trkpt>
      <trkpt lat="43.61286" lon="1.19538">
        <ele>207</ele>
        <time>2016-06-04T09:19:50Z</time>
      </trkpt>
      <trkpt lat="43.61285" lon="1.19542">
        <ele>207</ele>
        <time>2016-06-04T09:19:52Z</time>
      </trkpt>
      <trkpt lat="43.61286" lon="1.19547">
        <ele>208</ele>
        <time>2016-06-04T09:19:54Z</time>
      </trkpt>
      <trkpt lat="43.61285" lon="1.19551">
        <ele>208</ele>
        <time>2016-06-04T09:19:56Z</time>
      </trkpt>
      <trkpt lat="43.61286" lon="1.19557">
        <ele>208</ele>
        <time>2016-06-04T09:19:58Z</time>
      </trkpt>
      <trkpt lat="43.61284" lon="1.1956">
        <ele>209</ele>
        <time>2016-06-04T09:20:00Z</time>
      </trkpt>
      <trkpt lat="43.61283" lon="1.19563">
        <ele>209</ele>
        <time>2016-06-04T09:20:02Z</time>
      </trkpt>
      <trkpt lat="43.61283" lon="1.19567">
        <ele>210</ele>
        <time>2016-06-04T09:20:04Z</time>
      </trkpt>
      <trkpt lat="43.61284" lon="1.19568">
        <ele>210</ele>
        <time>2016-06-04T09:20:05Z</time>
      </trkpt>
      <trkpt lat="43.61285" lon="1.19575">
        <ele>211</ele>
        <time>2016-06-04T09:20:07Z</time>
      </trkpt>
      <trkpt lat="43.61285" lon="1.19577">
        <ele>211</ele>
        <time>2016-06-04T09:20:08Z</time>
      </trkpt>
      <trkpt lat="43.61288" lon="1.19581">
        <ele>211</ele>
        <time>2016-06-04T09:20:10Z</time>
      </trkpt>
      <trkpt lat="43.61289" lon="1.19586">
        <ele>212</ele>
        <time>2016-06-04T09:20:12Z</time>
      </trkpt>
      <trkpt lat="43.6129" lon="1.19589">
        <ele>212</ele>
        <time>2016-06-04T09:20:13Z</time>
      </trkpt>
      <trkpt lat="43.6129" lon="1.19592">
        <ele>212</ele>
        <time>2016-06-04T09:20:14Z</time>
      </trkpt>
      <trkpt lat="43.61292" lon="1.19596">
        <ele>213</ele>
        <time>2016-06-04T09:20:16Z</time>
      </trkpt>
      <trkpt lat="43.61292" lon="1.19601">
        <ele>213</ele>
        <time>2016-06-04T09:20:18Z</time>
      </trkpt>
      <trkpt lat="43.61293" lon="1.19604">
        <ele>213</ele>
        <time>2016-06-04T09:20:20Z</time>
      </trkpt>
      <trkpt lat="43.61295" lon="1.19607">
        <ele>213</ele>
        <time>2016-06-04T09:20:22Z</time>
      </trkpt>
      <trkpt lat="43.61297" lon="1.19611">
        <ele>214</ele>
        <time>2016-06-04T09:20:24Z</time>
      </trkpt>
      <trkpt lat="43.61297" lon="1.19613">
        <ele>214</ele>
        <time>2016-06-04T09:20:25Z</time>
      </trkpt>
      <trkpt lat="43.61297" lon="1.19615">
        <ele>214</ele>
        <time>2016-06-04T09:20:26Z</time>
      </trkpt>
      <trkpt lat="43.61298" lon="1.19618">
        <ele>214</ele>
        <time>2016-06-04T09:20:28Z</time>
      </trkpt>
      <trkpt lat="43.613" lon="1.19623">
        <ele>215</ele>
        <time>2016-06-04T09:20:30Z</time>
      </trkpt>
      <trkpt lat="43.61299" lon="1.19629">
        <ele>215</ele>
        <time>2016-06-04T09:20:32Z</time>
      </trkpt>
      <trkpt lat="43.61301" lon="1.19632">
        <ele>215</ele>
        <time>2016-06-04T09:20:34Z</time>
      </trkpt>
      <trkpt lat="43.61303" lon="1.19635">
        <ele>215</ele>
        <time>2016-06-04T09:20:36Z</time>
      </trkpt>
      <trkpt lat="43.61305" lon="1.19638">
        <ele>216</ele>
        <time>2016-06-04T09:20:38Z</time>
      </trkpt>
      <trkpt lat="43.61306" lon="1.1964">
        <ele>216</ele>
        <time>2016-06-04T09:20:40Z</time>
      </trkpt>
      <trkpt lat="43.61308" lon="1.19643">
        <ele>216</ele>
        <time>2016-06-04T09:20:42Z</time>
      </trkpt>
      <trkpt lat="43.61311" lon="1.19646">
        <ele>217</ele>
        <time>2016-06-04T09:20:44Z</time>
      </trkpt>
      <trkpt lat="43.6131" lon="1.19647">
        <ele>217</ele>
        <time>2016-06-04T09:20:45Z</time>
      </trkpt>
      <trkpt lat="43.6131" lon="1.19649">
        <ele>217</ele>
        <time>2016-06-04T09:20:46Z</time>
      </trkpt>
      <trkpt lat="43.61312" lon="1.19652">
        <ele>218</ele>
        <time>2016-06-04T09:20:48Z</time>
      </trkpt>
      <trkpt lat="43.61313" lon="1.19654">
        <ele>218</ele>
        <time>2016-06-04T09:20:50Z</time>
      </trkpt>
      <trkpt lat="43.61313" lon="1.19656">
        <ele>218</ele>
        <time>2016-06-04T09:20:52Z</time>
      </trkpt>
      <trkpt lat="43.61314" lon="1.19659">
        <ele>218</ele>
        <time>2016-06-04T09:20:54Z</time>
      </trkpt>
      <trkpt lat="43.61316" lon="1.19661">
        <ele>219</ele>
        <time>2016-06-04T09:20:56Z</time>
      </trkpt>
      <trkpt lat="43.61317" lon="1.19663">
        <ele>219</ele>
        <time>2016-06-04T09:20:58Z</time>
      </trkpt>
      <trkpt lat="43.61317" lon="1.19665">
        <ele>219</ele>
        <time>2016-06-04T09:20:59Z</time>
      </trkpt>
      <trkpt lat="43.61318" lon="1.19667">
        <ele>220</ele>
        <time>2016-06-04T09:21:01Z</time>
      </trkpt>
      <trkpt lat="43.61319" lon="1.19668">
        <ele>220</ele>
        <time>2016-06-04T09:21:02Z</time>
      </trkpt>
      <trkpt lat="43.61321" lon="1.1967">
        <ele>220</ele>
        <time>2016-06-04T09:21:04Z</time>
      </trkpt>
      <trkpt lat="43.61324" lon="1.19672">
        <ele>221</ele>
        <time>2016-06-04T09:21:06Z</time>
      </trkpt>
      <trkpt lat="43.61333" lon="1.19677">
        <ele>221</ele>
        <time>2016-06-04T09:21:10Z</time>
      </trkpt>
      <trkpt lat="43.61334" lon="1.1968">
        <ele>222</ele>
        <time>2016-06-04T09:21:12Z</time>
      </trkpt>
      <trkpt lat="43.61336" lon="1.19685">
        <ele>222</ele>
        <time>2016-06-04T09:21:14Z</time>
      </trkpt>
      <trkpt lat="43.61338" lon="1.19687">
        <ele>223</ele>
        <time>2016-06-04T09:21:16Z</time>
      </trkpt>
      <trkpt lat="43.61339" lon="1.19688">
        <ele>223</ele>
        <time>2016-06-04T09:21:17Z</time>
      </trkpt>
      <trkpt lat="43.6134" lon="1.1969">
        <ele>223</ele>
        <time>2016-06-04T09:21:19Z</time>
      </trkpt>
      <trkpt lat="43.61341" lon="1.19691">
        <ele>224</ele>
        <time>2016-06-04T09:21:21Z</time>
      </trkpt>
      <trkpt lat="43.61342" lon="1.19692">
        <ele>224</ele>
        <time>2016-06-04T09:21:22Z</time>
      </trkpt>
      <trkpt lat="43.61343" lon="1.19694">
        <ele>224</ele>
        <time>2016-06-04T09:21:24Z</time>
      </trkpt>
      <trkpt lat="43.61345" lon="1.19695">
        <ele>225</ele>
        <time>2016-06-04T09:21:25Z</time>
      </trkpt>
      <trkpt lat="43.61345" lon="1.19696">
        <ele>225</ele>
        <time>2016-06-04T09:21:26Z</time>
      </trkpt>
      <trkpt lat="43.61347" lon="1.19697">
        <ele>225</ele>
        <time>2016-06-04T09:21:28Z</time>
      </trkpt>
      <trkpt lat="43.61348" lon="1.19699">
        <ele>226</ele>
        <time>2016-06-04T09:21:30Z</time>
      </trkpt>
      <trkpt lat="43.6135" lon="1.19701">
        <ele>226</ele>
        <time>2016-06-04T09:21:32Z</time>
      </trkpt>
      <trkpt lat="43.61352" lon="1.19703">
        <ele>226</ele>
        <time>2016-06-04T09:21:34Z</time>
      </trkpt>
      <trkpt lat="43.61352" lon="1.19705">
        <ele>227</ele>
        <time>2016-06-04T09:21:35Z</time>
      </trkpt>
      <trkpt lat="43.61353" lon="1.19708">
        <ele>227</ele>
        <time>2016-06-04T09:21:37Z</time>
      </trkpt>
      <trkpt lat="43.61353" lon="1.19709">
        <ele>227</ele>
        <time>2016-06-04T09:21:38Z</time>
      </trkpt>
      <trkpt lat="43.61355" lon="1.19712">
        <ele>227</ele>
        <time>2016-06-04T09:21:40Z</time>
      </trkpt>
      <trkpt lat="43.61357" lon="1.19715">
        <ele>228</ele>
        <time>2016-06-04T09:21:42Z</time>
      </trkpt>
      <trkpt lat="43.61358" lon="1.19719">
        <ele>228</ele>
        <time>2016-06-04T09:21:44Z</time>
      </trkpt>
      <trkpt lat="43.61367" lon="1.19725">
        <ele>229</ele>
        <time>2016-06-04T09:21:48Z</time>
      </trkpt>
      <trkpt lat="43.61369" lon="1.19726">
        <ele>229</ele>
        <time>2016-06-04T09:21:50Z</time>
      </trkpt>
      <trkpt lat="43.61371" lon="1.19727">
        <ele>229</ele>
        <time>2016-06-04T09:21:52Z</time>
      </trkpt>
      <trkpt lat="43.61371" lon="1.1973">
        <ele>229</ele>
        <time>2016-06-04T09:21:54Z</time>
      </trkpt>
      <trkpt lat="43.6137" lon="1.19733">
        <ele>230</ele>
        <time>2016-06-04T09:21:56Z</time>
      </trkpt>
      <trkpt lat="43.61371" lon="1.19736">
        <ele>230</ele>
        <time>2016-06-04T09:21:58Z</time>
      </trkpt>
      <trkpt lat="43.61371" lon="1.19737">
        <ele>230</ele>
        <time>2016-06-04T09:22:00Z</time>
      </trkpt>
      <trkpt lat="43.61375" lon="1.19749">
        <ele>231</ele>
        <time>2016-06-04T09:22:12Z</time>
      </trkpt>
      <trkpt lat="43.61375" lon="1.1975">
        <ele>231</ele>
        <time>2016-06-04T09:22:13Z</time>
      </trkpt>
      <trkpt lat="43.61375" lon="1.1975">
        <ele>231</ele>
        <time>2016-06-04T09:22:14Z</time>
      </trkpt>
      <trkpt lat="43.61372" lon="1.19767">
        <ele>230</ele>
        <time>2016-06-04T09:22:26Z</time>
      </trkpt>
      <trkpt lat="43.61375" lon="1.19773">
        <ele>229</ele>
        <time>2016-06-04T09:22:28Z</time>
      </trkpt>
      <trkpt lat="43.61377" lon="1.19776">
        <ele>227</ele>
        <time>2016-06-04T09:22:30Z</time>
      </trkpt>
      <trkpt lat="43.61377" lon="1.19776">
        <ele>226</ele>
        <time>2016-06-04T09:22:50Z</time>
      </trkpt>
      <trkpt lat="43.61381" lon="1.19789">
        <ele>222</ele>
        <time>2016-06-04T09:22:54Z</time>
      </trkpt>
      <trkpt lat="43.61382" lon="1.19789">
        <ele>221</ele>
        <time>2016-06-04T09:22:55Z</time>
      </trkpt>
      <trkpt lat="43.6139" lon="1.19804">
        <ele>219</ele>
        <time>2016-06-04T09:23:14Z</time>
      </trkpt>
      <trkpt lat="43.61393" lon="1.19809">
        <ele>218</ele>
        <time>2016-06-04T09:23:16Z</time>
      </trkpt>
      <trkpt lat="43.61393" lon="1.19809">
        <ele>216</ele>
        <time>2016-06-04T09:23:35Z</time>
      </trkpt>
      <trkpt lat="43.61393" lon="1.19809">
        <ele>216</ele>
        <time>2016-06-04T09:23:37Z</time>
      </trkpt>
      <trkpt lat="43.61396" lon="1.19822">
        <ele>213</ele>
        <time>2016-06-04T09:23:46Z</time>
      </trkpt>
      <trkpt lat="43.61396" lon="1.19823">
        <ele>212</ele>
        <time>2016-06-04T09:23:47Z</time>
      </trkpt>
      <trkpt lat="43.61396" lon="1.19823">
        <ele>211</ele>
        <time>2016-06-04T09:23:49Z</time>
      </trkpt>
      <trkpt lat="43.61395" lon="1.19831">
        <ele>210</ele>
        <time>2016-06-04T09:23:53Z</time>
      </trkpt>
      <trkpt lat="43.61394" lon="1.19834">
        <ele>209</ele>
        <time>2016-06-04T09:23:55Z</time>
      </trkpt>
      <trkpt lat="43.61393" lon="1.19836">
        <ele>208</ele>
        <time>2016-06-04T09:23:56Z</time>
      </trkpt>
      <trkpt lat="43.61393" lon="1.19836">
        <ele>208</ele>
        <time>2016-06-04T09:24:20Z</time>
      </trkpt>
      <trkpt lat="43.61393" lon="1.19836">
        <ele>208</ele>
        <time>2016-06-04T09:24:22Z</time>
      </trkpt>
    </trkseg>
  </trk>
</gpx>